<?xml version="1.0" encoding="UTF-8" standalone="no" ?>
<gpx xmlns="http://www.topografix.com/GPX/1/1" xmlns:xsi="http://www.w3.org/2001/XMLSchema-instance" xsi:schemaLocation="http://www.topografix.com/GPX/1/1 http://www.topografix.com/GPX/1/1/gpx.xsd" version="1.1" creator="VisuGPX - https://www.visugpx.com">
  <metadata>
    <name>De Monte-Cristo à Maisons-Laffitte</name>
    <desc><![CDATA[http://www.pasapascourbevoie.com/]]></desc>
  </metadata>
  <trk>
    <name><![CDATA[ON move]]></name>
    <trkseg>
      <trkpt lat="48.8819" lon="2.10508">
        <ele>74</ele>
        <time>2012-11-24T12:36:34Z</time>
      </trkpt>
      <trkpt lat="48.88185" lon="2.1051">
        <ele>74</ele>
        <time>2012-11-24T12:36:40Z</time>
      </trkpt>
      <trkpt lat="48.88181" lon="2.10513">
        <ele>75</ele>
        <time>2012-11-24T12:36:46Z</time>
      </trkpt>
      <trkpt lat="48.88172" lon="2.10518">
        <ele>75</ele>
        <time>2012-11-24T12:36:53Z</time>
      </trkpt>
      <trkpt lat="48.88169" lon="2.10524">
        <ele>74</ele>
        <time>2012-11-24T12:36:58Z</time>
      </trkpt>
      <trkpt lat="48.88159" lon="2.10525">
        <ele>79</ele>
        <time>2012-11-24T12:37:14Z</time>
      </trkpt>
      <trkpt lat="48.88155" lon="2.10531">
        <ele>78</ele>
        <time>2012-11-24T12:37:24Z</time>
      </trkpt>
      <trkpt lat="48.8815" lon="2.10533">
        <ele>78</ele>
        <time>2012-11-24T12:37:28Z</time>
      </trkpt>
      <trkpt lat="48.88144" lon="2.10543">
        <ele>77</ele>
        <time>2012-11-24T12:37:38Z</time>
      </trkpt>
      <trkpt lat="48.88139" lon="2.10545">
        <ele>77</ele>
        <time>2012-11-24T12:37:48Z</time>
      </trkpt>
      <trkpt lat="48.88134" lon="2.10548">
        <ele>77</ele>
        <time>2012-11-24T12:37:53Z</time>
      </trkpt>
      <trkpt lat="48.88129" lon="2.10549">
        <ele>77</ele>
        <time>2012-11-24T12:37:57Z</time>
      </trkpt>
      <trkpt lat="48.88125" lon="2.10553">
        <ele>77</ele>
        <time>2012-11-24T12:38:01Z</time>
      </trkpt>
      <trkpt lat="48.88121" lon="2.10557">
        <ele>77</ele>
        <time>2012-11-24T12:38:04Z</time>
      </trkpt>
      <trkpt lat="48.88115" lon="2.10559">
        <ele>77</ele>
        <time>2012-11-24T12:38:08Z</time>
      </trkpt>
      <trkpt lat="48.88109" lon="2.10561">
        <ele>78</ele>
        <time>2012-11-24T12:38:13Z</time>
      </trkpt>
      <trkpt lat="48.88105" lon="2.10561">
        <ele>78</ele>
        <time>2012-11-24T12:38:16Z</time>
      </trkpt>
      <trkpt lat="48.88096" lon="2.10569">
        <ele>78</ele>
        <time>2012-11-24T12:38:21Z</time>
      </trkpt>
      <trkpt lat="48.88091" lon="2.10573">
        <ele>77</ele>
        <time>2012-11-24T12:38:26Z</time>
      </trkpt>
      <trkpt lat="48.88087" lon="2.10576">
        <ele>77</ele>
        <time>2012-11-24T12:38:29Z</time>
      </trkpt>
      <trkpt lat="48.88082" lon="2.1058">
        <ele>78</ele>
        <time>2012-11-24T12:38:33Z</time>
      </trkpt>
      <trkpt lat="48.88078" lon="2.10585">
        <ele>76</ele>
        <time>2012-11-24T12:38:38Z</time>
      </trkpt>
      <trkpt lat="48.88073" lon="2.10588">
        <ele>76</ele>
        <time>2012-11-24T12:38:41Z</time>
      </trkpt>
      <trkpt lat="48.88068" lon="2.1059">
        <ele>75</ele>
        <time>2012-11-24T12:38:45Z</time>
      </trkpt>
      <trkpt lat="48.88063" lon="2.1059">
        <ele>75</ele>
        <time>2012-11-24T12:38:49Z</time>
      </trkpt>
      <trkpt lat="48.88058" lon="2.10591">
        <ele>75</ele>
        <time>2012-11-24T12:38:54Z</time>
      </trkpt>
      <trkpt lat="48.88053" lon="2.10589">
        <ele>75</ele>
        <time>2012-11-24T12:38:58Z</time>
      </trkpt>
      <trkpt lat="48.8805" lon="2.10584">
        <ele>75</ele>
        <time>2012-11-24T12:39:03Z</time>
      </trkpt>
      <trkpt lat="48.88046" lon="2.10578">
        <ele>83</ele>
        <time>2012-11-24T12:39:07Z</time>
      </trkpt>
      <trkpt lat="48.88043" lon="2.10572">
        <ele>83</ele>
        <time>2012-11-24T12:39:11Z</time>
      </trkpt>
      <trkpt lat="48.88036" lon="2.10563">
        <ele>84</ele>
        <time>2012-11-24T12:39:22Z</time>
      </trkpt>
      <trkpt lat="48.88032" lon="2.10558">
        <ele>84</ele>
        <time>2012-11-24T12:39:28Z</time>
      </trkpt>
      <trkpt lat="48.88027" lon="2.10555">
        <ele>84</ele>
        <time>2012-11-24T12:39:32Z</time>
      </trkpt>
      <trkpt lat="48.88023" lon="2.10551">
        <ele>85</ele>
        <time>2012-11-24T12:39:38Z</time>
      </trkpt>
      <trkpt lat="48.88019" lon="2.10548">
        <ele>85</ele>
        <time>2012-11-24T12:39:44Z</time>
      </trkpt>
      <trkpt lat="48.8801" lon="2.10541">
        <ele>86</ele>
        <time>2012-11-24T12:39:54Z</time>
      </trkpt>
      <trkpt lat="48.88006" lon="2.10539">
        <ele>86</ele>
        <time>2012-11-24T12:39:59Z</time>
      </trkpt>
      <trkpt lat="48.88002" lon="2.10534">
        <ele>87</ele>
        <time>2012-11-24T12:40:04Z</time>
      </trkpt>
      <trkpt lat="48.87997" lon="2.10531">
        <ele>85</ele>
        <time>2012-11-24T12:40:08Z</time>
      </trkpt>
      <trkpt lat="48.87994" lon="2.10525">
        <ele>86</ele>
        <time>2012-11-24T12:40:12Z</time>
      </trkpt>
      <trkpt lat="48.8799" lon="2.10518">
        <ele>87</ele>
        <time>2012-11-24T12:40:16Z</time>
      </trkpt>
      <trkpt lat="48.87987" lon="2.10513">
        <ele>87</ele>
        <time>2012-11-24T12:40:20Z</time>
      </trkpt>
      <trkpt lat="48.87983" lon="2.1051">
        <ele>87</ele>
        <time>2012-11-24T12:40:25Z</time>
      </trkpt>
      <trkpt lat="48.87978" lon="2.10506">
        <ele>86</ele>
        <time>2012-11-24T12:40:29Z</time>
      </trkpt>
      <trkpt lat="48.87974" lon="2.10501">
        <ele>86</ele>
        <time>2012-11-24T12:40:33Z</time>
      </trkpt>
      <trkpt lat="48.87971" lon="2.10497">
        <ele>90</ele>
        <time>2012-11-24T12:40:37Z</time>
      </trkpt>
      <trkpt lat="48.87967" lon="2.1049">
        <ele>89</ele>
        <time>2012-11-24T12:40:42Z</time>
      </trkpt>
      <trkpt lat="48.87963" lon="2.10485">
        <ele>89</ele>
        <time>2012-11-24T12:40:46Z</time>
      </trkpt>
      <trkpt lat="48.87961" lon="2.10477">
        <ele>89</ele>
        <time>2012-11-24T12:40:51Z</time>
      </trkpt>
      <trkpt lat="48.87962" lon="2.10471">
        <ele>89</ele>
        <time>2012-11-24T12:40:55Z</time>
      </trkpt>
      <trkpt lat="48.87964" lon="2.10463">
        <ele>90</ele>
        <time>2012-11-24T12:41:00Z</time>
      </trkpt>
      <trkpt lat="48.87969" lon="2.1046">
        <ele>90</ele>
        <time>2012-11-24T12:41:05Z</time>
      </trkpt>
      <trkpt lat="48.87975" lon="2.1046">
        <ele>90</ele>
        <time>2012-11-24T12:41:11Z</time>
      </trkpt>
      <trkpt lat="48.8798" lon="2.10461">
        <ele>91</ele>
        <time>2012-11-24T12:41:18Z</time>
      </trkpt>
      <trkpt lat="48.87989" lon="2.10464">
        <ele>91</ele>
        <time>2012-11-24T12:41:33Z</time>
      </trkpt>
      <trkpt lat="48.87994" lon="2.10465">
        <ele>91</ele>
        <time>2012-11-24T12:41:39Z</time>
      </trkpt>
      <trkpt lat="48.87998" lon="2.1046">
        <ele>91</ele>
        <time>2012-11-24T12:41:48Z</time>
      </trkpt>
      <trkpt lat="48.88003" lon="2.1046">
        <ele>94</ele>
        <time>2012-11-24T12:41:52Z</time>
      </trkpt>
      <trkpt lat="48.88007" lon="2.10458">
        <ele>94</ele>
        <time>2012-11-24T12:41:56Z</time>
      </trkpt>
      <trkpt lat="48.88013" lon="2.10458">
        <ele>93</ele>
        <time>2012-11-24T12:42:00Z</time>
      </trkpt>
      <trkpt lat="48.88018" lon="2.10459">
        <ele>93</ele>
        <time>2012-11-24T12:42:03Z</time>
      </trkpt>
      <trkpt lat="48.88024" lon="2.10458">
        <ele>93</ele>
        <time>2012-11-24T12:42:08Z</time>
      </trkpt>
      <trkpt lat="48.88029" lon="2.10456">
        <ele>93</ele>
        <time>2012-11-24T12:42:13Z</time>
      </trkpt>
      <trkpt lat="48.88035" lon="2.10454">
        <ele>93</ele>
        <time>2012-11-24T12:42:18Z</time>
      </trkpt>
      <trkpt lat="48.88039" lon="2.10456">
        <ele>93</ele>
        <time>2012-11-24T12:42:21Z</time>
      </trkpt>
      <trkpt lat="48.88044" lon="2.10454">
        <ele>93</ele>
        <time>2012-11-24T12:42:25Z</time>
      </trkpt>
      <trkpt lat="48.88048" lon="2.10455">
        <ele>93</ele>
        <time>2012-11-24T12:42:29Z</time>
      </trkpt>
      <trkpt lat="48.88054" lon="2.10455">
        <ele>93</ele>
        <time>2012-11-24T12:42:34Z</time>
      </trkpt>
      <trkpt lat="48.88058" lon="2.10454">
        <ele>93</ele>
        <time>2012-11-24T12:42:37Z</time>
      </trkpt>
      <trkpt lat="48.88063" lon="2.10455">
        <ele>93</ele>
        <time>2012-11-24T12:42:40Z</time>
      </trkpt>
      <trkpt lat="48.88074" lon="2.10459">
        <ele>92</ele>
        <time>2012-11-24T12:42:45Z</time>
      </trkpt>
      <trkpt lat="48.88079" lon="2.10461">
        <ele>92</ele>
        <time>2012-11-24T12:42:47Z</time>
      </trkpt>
      <trkpt lat="48.88084" lon="2.10463">
        <ele>90</ele>
        <time>2012-11-24T12:42:49Z</time>
      </trkpt>
      <trkpt lat="48.88089" lon="2.10463">
        <ele>90</ele>
        <time>2012-11-24T12:42:53Z</time>
      </trkpt>
      <trkpt lat="48.88094" lon="2.10465">
        <ele>90</ele>
        <time>2012-11-24T12:42:56Z</time>
      </trkpt>
      <trkpt lat="48.88099" lon="2.10464">
        <ele>90</ele>
        <time>2012-11-24T12:43:00Z</time>
      </trkpt>
      <trkpt lat="48.88104" lon="2.10462">
        <ele>90</ele>
        <time>2012-11-24T12:43:07Z</time>
      </trkpt>
      <trkpt lat="48.8811" lon="2.1046">
        <ele>90</ele>
        <time>2012-11-24T12:43:11Z</time>
      </trkpt>
      <trkpt lat="48.88119" lon="2.10461">
        <ele>89</ele>
        <time>2012-11-24T12:43:20Z</time>
      </trkpt>
      <trkpt lat="48.88124" lon="2.1046">
        <ele>89</ele>
        <time>2012-11-24T12:43:25Z</time>
      </trkpt>
      <trkpt lat="48.88129" lon="2.10456">
        <ele>89</ele>
        <time>2012-11-24T12:43:28Z</time>
      </trkpt>
      <trkpt lat="48.88138" lon="2.10453">
        <ele>89</ele>
        <time>2012-11-24T12:43:37Z</time>
      </trkpt>
      <trkpt lat="48.88142" lon="2.1045">
        <ele>89</ele>
        <time>2012-11-24T12:43:42Z</time>
      </trkpt>
      <trkpt lat="48.88147" lon="2.10447">
        <ele>89</ele>
        <time>2012-11-24T12:43:45Z</time>
      </trkpt>
      <trkpt lat="48.88151" lon="2.10442">
        <ele>90</ele>
        <time>2012-11-24T12:43:50Z</time>
      </trkpt>
      <trkpt lat="48.88154" lon="2.10437">
        <ele>90</ele>
        <time>2012-11-24T12:43:57Z</time>
      </trkpt>
      <trkpt lat="48.8816" lon="2.10434">
        <ele>90</ele>
        <time>2012-11-24T12:44:01Z</time>
      </trkpt>
      <trkpt lat="48.88165" lon="2.10433">
        <ele>90</ele>
        <time>2012-11-24T12:44:04Z</time>
      </trkpt>
      <trkpt lat="48.88175" lon="2.1043">
        <ele>88</ele>
        <time>2012-11-24T12:44:11Z</time>
      </trkpt>
      <trkpt lat="48.88181" lon="2.10428">
        <ele>87</ele>
        <time>2012-11-24T12:44:14Z</time>
      </trkpt>
      <trkpt lat="48.88187" lon="2.10425">
        <ele>87</ele>
        <time>2012-11-24T12:44:18Z</time>
      </trkpt>
      <trkpt lat="48.88191" lon="2.10421">
        <ele>86</ele>
        <time>2012-11-24T12:44:25Z</time>
      </trkpt>
      <trkpt lat="48.882" lon="2.10417">
        <ele>85</ele>
        <time>2012-11-24T12:44:33Z</time>
      </trkpt>
      <trkpt lat="48.88206" lon="2.10417">
        <ele>85</ele>
        <time>2012-11-24T12:44:37Z</time>
      </trkpt>
      <trkpt lat="48.88205" lon="2.1041">
        <ele>90</ele>
        <time>2012-11-24T12:44:46Z</time>
      </trkpt>
      <trkpt lat="48.88208" lon="2.10404">
        <ele>90</ele>
        <time>2012-11-24T12:44:52Z</time>
      </trkpt>
      <trkpt lat="48.88213" lon="2.10401">
        <ele>90</ele>
        <time>2012-11-24T12:44:56Z</time>
      </trkpt>
      <trkpt lat="48.88218" lon="2.10399">
        <ele>89</ele>
        <time>2012-11-24T12:44:59Z</time>
      </trkpt>
      <trkpt lat="48.88227" lon="2.10395">
        <ele>89</ele>
        <time>2012-11-24T12:45:07Z</time>
      </trkpt>
      <trkpt lat="48.88231" lon="2.10391">
        <ele>89</ele>
        <time>2012-11-24T12:45:11Z</time>
      </trkpt>
      <trkpt lat="48.88235" lon="2.10387">
        <ele>89</ele>
        <time>2012-11-24T12:45:20Z</time>
      </trkpt>
      <trkpt lat="48.8824" lon="2.10384">
        <ele>89</ele>
        <time>2012-11-24T12:45:24Z</time>
      </trkpt>
      <trkpt lat="48.88245" lon="2.10383">
        <ele>89</ele>
        <time>2012-11-24T12:45:28Z</time>
      </trkpt>
      <trkpt lat="48.88249" lon="2.10381">
        <ele>89</ele>
        <time>2012-11-24T12:45:32Z</time>
      </trkpt>
      <trkpt lat="48.88254" lon="2.10381">
        <ele>84</ele>
        <time>2012-11-24T12:45:38Z</time>
      </trkpt>
      <trkpt lat="48.88259" lon="2.10379">
        <ele>84</ele>
        <time>2012-11-24T12:45:42Z</time>
      </trkpt>
      <trkpt lat="48.88263" lon="2.10375">
        <ele>84</ele>
        <time>2012-11-24T12:45:45Z</time>
      </trkpt>
      <trkpt lat="48.88269" lon="2.10371">
        <ele>84</ele>
        <time>2012-11-24T12:45:48Z</time>
      </trkpt>
      <trkpt lat="48.88274" lon="2.10368">
        <ele>84</ele>
        <time>2012-11-24T12:45:52Z</time>
      </trkpt>
      <trkpt lat="48.88279" lon="2.10367">
        <ele>84</ele>
        <time>2012-11-24T12:45:57Z</time>
      </trkpt>
      <trkpt lat="48.88283" lon="2.10364">
        <ele>84</ele>
        <time>2012-11-24T12:46:01Z</time>
      </trkpt>
      <trkpt lat="48.88287" lon="2.10361">
        <ele>84</ele>
        <time>2012-11-24T12:46:05Z</time>
      </trkpt>
      <trkpt lat="48.88292" lon="2.10358">
        <ele>84</ele>
        <time>2012-11-24T12:46:10Z</time>
      </trkpt>
      <trkpt lat="48.88298" lon="2.10356">
        <ele>84</ele>
        <time>2012-11-24T12:46:15Z</time>
      </trkpt>
      <trkpt lat="48.88303" lon="2.10353">
        <ele>84</ele>
        <time>2012-11-24T12:46:19Z</time>
      </trkpt>
      <trkpt lat="48.88308" lon="2.10353">
        <ele>84</ele>
        <time>2012-11-24T12:46:22Z</time>
      </trkpt>
      <trkpt lat="48.88313" lon="2.10349">
        <ele>84</ele>
        <time>2012-11-24T12:46:27Z</time>
      </trkpt>
      <trkpt lat="48.88316" lon="2.10344">
        <ele>84</ele>
        <time>2012-11-24T12:46:32Z</time>
      </trkpt>
      <trkpt lat="48.88321" lon="2.1034">
        <ele>84</ele>
        <time>2012-11-24T12:46:36Z</time>
      </trkpt>
      <trkpt lat="48.8833" lon="2.10337">
        <ele>85</ele>
        <time>2012-11-24T12:46:44Z</time>
      </trkpt>
      <trkpt lat="48.88336" lon="2.10335">
        <ele>84</ele>
        <time>2012-11-24T12:46:48Z</time>
      </trkpt>
      <trkpt lat="48.8834" lon="2.1033">
        <ele>84</ele>
        <time>2012-11-24T12:46:51Z</time>
      </trkpt>
      <trkpt lat="48.88345" lon="2.10327">
        <ele>84</ele>
        <time>2012-11-24T12:46:58Z</time>
      </trkpt>
      <trkpt lat="48.8835" lon="2.10325">
        <ele>83</ele>
        <time>2012-11-24T12:47:02Z</time>
      </trkpt>
      <trkpt lat="48.88354" lon="2.10323">
        <ele>83</ele>
        <time>2012-11-24T12:47:06Z</time>
      </trkpt>
      <trkpt lat="48.88359" lon="2.10319">
        <ele>83</ele>
        <time>2012-11-24T12:47:09Z</time>
      </trkpt>
      <trkpt lat="48.88363" lon="2.10314">
        <ele>82</ele>
        <time>2012-11-24T12:47:12Z</time>
      </trkpt>
      <trkpt lat="48.88368" lon="2.10312">
        <ele>82</ele>
        <time>2012-11-24T12:47:16Z</time>
      </trkpt>
      <trkpt lat="48.88372" lon="2.10309">
        <ele>82</ele>
        <time>2012-11-24T12:47:21Z</time>
      </trkpt>
      <trkpt lat="48.88377" lon="2.10305">
        <ele>82</ele>
        <time>2012-11-24T12:47:24Z</time>
      </trkpt>
      <trkpt lat="48.88382" lon="2.103">
        <ele>81</ele>
        <time>2012-11-24T12:47:29Z</time>
      </trkpt>
      <trkpt lat="48.88385" lon="2.10296">
        <ele>81</ele>
        <time>2012-11-24T12:47:33Z</time>
      </trkpt>
      <trkpt lat="48.88389" lon="2.10292">
        <ele>81</ele>
        <time>2012-11-24T12:47:39Z</time>
      </trkpt>
      <trkpt lat="48.88394" lon="2.10288">
        <ele>81</ele>
        <time>2012-11-24T12:47:45Z</time>
      </trkpt>
      <trkpt lat="48.88398" lon="2.10283">
        <ele>81</ele>
        <time>2012-11-24T12:47:49Z</time>
      </trkpt>
      <trkpt lat="48.88403" lon="2.1028">
        <ele>80</ele>
        <time>2012-11-24T12:47:52Z</time>
      </trkpt>
      <trkpt lat="48.88407" lon="2.10275">
        <ele>80</ele>
        <time>2012-11-24T12:47:58Z</time>
      </trkpt>
      <trkpt lat="48.88411" lon="2.1027">
        <ele>80</ele>
        <time>2012-11-24T12:48:02Z</time>
      </trkpt>
      <trkpt lat="48.88414" lon="2.10263">
        <ele>80</ele>
        <time>2012-11-24T12:48:08Z</time>
      </trkpt>
      <trkpt lat="48.88419" lon="2.10261">
        <ele>76</ele>
        <time>2012-11-24T12:48:14Z</time>
      </trkpt>
      <trkpt lat="48.88422" lon="2.10253">
        <ele>77</ele>
        <time>2012-11-24T12:48:18Z</time>
      </trkpt>
      <trkpt lat="48.88427" lon="2.10247">
        <ele>77</ele>
        <time>2012-11-24T12:48:22Z</time>
      </trkpt>
      <trkpt lat="48.88431" lon="2.10242">
        <ele>76</ele>
        <time>2012-11-24T12:48:26Z</time>
      </trkpt>
      <trkpt lat="48.88436" lon="2.10237">
        <ele>75</ele>
        <time>2012-11-24T12:48:29Z</time>
      </trkpt>
      <trkpt lat="48.88437" lon="2.10229">
        <ele>75</ele>
        <time>2012-11-24T12:48:35Z</time>
      </trkpt>
      <trkpt lat="48.8844" lon="2.10223">
        <ele>75</ele>
        <time>2012-11-24T12:48:40Z</time>
      </trkpt>
      <trkpt lat="48.88443" lon="2.10217">
        <ele>75</ele>
        <time>2012-11-24T12:48:47Z</time>
      </trkpt>
      <trkpt lat="48.88448" lon="2.10211">
        <ele>74</ele>
        <time>2012-11-24T12:48:52Z</time>
      </trkpt>
      <trkpt lat="48.88451" lon="2.10206">
        <ele>74</ele>
        <time>2012-11-24T12:48:56Z</time>
      </trkpt>
      <trkpt lat="48.88454" lon="2.10193">
        <ele>74</ele>
        <time>2012-11-24T12:49:03Z</time>
      </trkpt>
      <trkpt lat="48.88456" lon="2.10186">
        <ele>74</ele>
        <time>2012-11-24T12:49:08Z</time>
      </trkpt>
      <trkpt lat="48.88457" lon="2.10178">
        <ele>74</ele>
        <time>2012-11-24T12:49:15Z</time>
      </trkpt>
      <trkpt lat="48.88459" lon="2.10172">
        <ele>74</ele>
        <time>2012-11-24T12:49:19Z</time>
      </trkpt>
      <trkpt lat="48.88457" lon="2.10164">
        <ele>73</ele>
        <time>2012-11-24T12:49:23Z</time>
      </trkpt>
      <trkpt lat="48.88457" lon="2.10156">
        <ele>73</ele>
        <time>2012-11-24T12:49:28Z</time>
      </trkpt>
      <trkpt lat="48.88457" lon="2.10149">
        <ele>73</ele>
        <time>2012-11-24T12:49:33Z</time>
      </trkpt>
      <trkpt lat="48.88461" lon="2.10142">
        <ele>72</ele>
        <time>2012-11-24T12:49:37Z</time>
      </trkpt>
      <trkpt lat="48.88463" lon="2.10135">
        <ele>72</ele>
        <time>2012-11-24T12:49:40Z</time>
      </trkpt>
      <trkpt lat="48.88464" lon="2.10128">
        <ele>72</ele>
        <time>2012-11-24T12:49:44Z</time>
      </trkpt>
      <trkpt lat="48.88463" lon="2.10119">
        <ele>72</ele>
        <time>2012-11-24T12:49:49Z</time>
      </trkpt>
      <trkpt lat="48.88464" lon="2.10112">
        <ele>72</ele>
        <time>2012-11-24T12:49:53Z</time>
      </trkpt>
      <trkpt lat="48.88464" lon="2.10104">
        <ele>71</ele>
        <time>2012-11-24T12:49:57Z</time>
      </trkpt>
      <trkpt lat="48.88462" lon="2.10098">
        <ele>71</ele>
        <time>2012-11-24T12:50:01Z</time>
      </trkpt>
      <trkpt lat="48.88463" lon="2.1009">
        <ele>71</ele>
        <time>2012-11-24T12:50:06Z</time>
      </trkpt>
      <trkpt lat="48.88466" lon="2.10084">
        <ele>71</ele>
        <time>2012-11-24T12:50:11Z</time>
      </trkpt>
      <trkpt lat="48.88465" lon="2.10076">
        <ele>69</ele>
        <time>2012-11-24T12:50:17Z</time>
      </trkpt>
      <trkpt lat="48.88462" lon="2.1007">
        <ele>69</ele>
        <time>2012-11-24T12:50:21Z</time>
      </trkpt>
      <trkpt lat="48.88458" lon="2.10065">
        <ele>69</ele>
        <time>2012-11-24T12:50:25Z</time>
      </trkpt>
      <trkpt lat="48.88454" lon="2.10062">
        <ele>69</ele>
        <time>2012-11-24T12:50:29Z</time>
      </trkpt>
      <trkpt lat="48.8845" lon="2.10056">
        <ele>70</ele>
        <time>2012-11-24T12:50:32Z</time>
      </trkpt>
      <trkpt lat="48.88447" lon="2.10051">
        <ele>70</ele>
        <time>2012-11-24T12:50:35Z</time>
      </trkpt>
      <trkpt lat="48.88443" lon="2.10046">
        <ele>70</ele>
        <time>2012-11-24T12:50:38Z</time>
      </trkpt>
      <trkpt lat="48.88441" lon="2.10037">
        <ele>70</ele>
        <time>2012-11-24T12:50:42Z</time>
      </trkpt>
      <trkpt lat="48.88443" lon="2.10029">
        <ele>69</ele>
        <time>2012-11-24T12:50:48Z</time>
      </trkpt>
      <trkpt lat="48.88447" lon="2.10023">
        <ele>69</ele>
        <time>2012-11-24T12:50:52Z</time>
      </trkpt>
      <trkpt lat="48.88452" lon="2.10022">
        <ele>69</ele>
        <time>2012-11-24T12:50:56Z</time>
      </trkpt>
      <trkpt lat="48.88457" lon="2.10024">
        <ele>69</ele>
        <time>2012-11-24T12:50:59Z</time>
      </trkpt>
      <trkpt lat="48.88463" lon="2.10029">
        <ele>68</ele>
        <time>2012-11-24T12:51:02Z</time>
      </trkpt>
      <trkpt lat="48.88467" lon="2.10035">
        <ele>68</ele>
        <time>2012-11-24T12:51:06Z</time>
      </trkpt>
      <trkpt lat="48.8847" lon="2.10039">
        <ele>68</ele>
        <time>2012-11-24T12:51:10Z</time>
      </trkpt>
      <trkpt lat="48.88475" lon="2.10045">
        <ele>68</ele>
        <time>2012-11-24T12:51:15Z</time>
      </trkpt>
      <trkpt lat="48.88477" lon="2.10052">
        <ele>68</ele>
        <time>2012-11-24T12:51:19Z</time>
      </trkpt>
      <trkpt lat="48.88483" lon="2.10053">
        <ele>68</ele>
        <time>2012-11-24T12:51:26Z</time>
      </trkpt>
      <trkpt lat="48.88488" lon="2.10055">
        <ele>67</ele>
        <time>2012-11-24T12:51:29Z</time>
      </trkpt>
      <trkpt lat="48.88492" lon="2.10061">
        <ele>67</ele>
        <time>2012-11-24T12:51:33Z</time>
      </trkpt>
      <trkpt lat="48.88496" lon="2.10067">
        <ele>67</ele>
        <time>2012-11-24T12:51:36Z</time>
      </trkpt>
      <trkpt lat="48.88505" lon="2.10072">
        <ele>62</ele>
        <time>2012-11-24T12:51:42Z</time>
      </trkpt>
      <trkpt lat="48.88509" lon="2.10078">
        <ele>63</ele>
        <time>2012-11-24T12:51:46Z</time>
      </trkpt>
      <trkpt lat="48.88513" lon="2.10081">
        <ele>62</ele>
        <time>2012-11-24T12:51:50Z</time>
      </trkpt>
      <trkpt lat="48.88518" lon="2.10083">
        <ele>61</ele>
        <time>2012-11-24T12:51:53Z</time>
      </trkpt>
      <trkpt lat="48.88523" lon="2.10087">
        <ele>62</ele>
        <time>2012-11-24T12:51:57Z</time>
      </trkpt>
      <trkpt lat="48.88527" lon="2.10091">
        <ele>61</ele>
        <time>2012-11-24T12:52:01Z</time>
      </trkpt>
      <trkpt lat="48.88535" lon="2.101">
        <ele>61</ele>
        <time>2012-11-24T12:52:09Z</time>
      </trkpt>
      <trkpt lat="48.88538" lon="2.10106">
        <ele>60</ele>
        <time>2012-11-24T12:52:13Z</time>
      </trkpt>
      <trkpt lat="48.88542" lon="2.10111">
        <ele>60</ele>
        <time>2012-11-24T12:52:17Z</time>
      </trkpt>
      <trkpt lat="48.88544" lon="2.10118">
        <ele>60</ele>
        <time>2012-11-24T12:52:22Z</time>
      </trkpt>
      <trkpt lat="48.88546" lon="2.10124">
        <ele>60</ele>
        <time>2012-11-24T12:52:39Z</time>
      </trkpt>
      <trkpt lat="48.88549" lon="2.10131">
        <ele>60</ele>
        <time>2012-11-24T12:52:46Z</time>
      </trkpt>
      <trkpt lat="48.88551" lon="2.10138">
        <ele>60</ele>
        <time>2012-11-24T12:52:59Z</time>
      </trkpt>
      <trkpt lat="48.88554" lon="2.10143">
        <ele>59</ele>
        <time>2012-11-24T12:53:04Z</time>
      </trkpt>
      <trkpt lat="48.88562" lon="2.10154">
        <ele>58</ele>
        <time>2012-11-24T12:53:12Z</time>
      </trkpt>
      <trkpt lat="48.88565" lon="2.10159">
        <ele>57</ele>
        <time>2012-11-24T12:53:16Z</time>
      </trkpt>
      <trkpt lat="48.88568" lon="2.10165">
        <ele>57</ele>
        <time>2012-11-24T12:53:20Z</time>
      </trkpt>
      <trkpt lat="48.88571" lon="2.10171">
        <ele>57</ele>
        <time>2012-11-24T12:53:25Z</time>
      </trkpt>
      <trkpt lat="48.88573" lon="2.1018">
        <ele>57</ele>
        <time>2012-11-24T12:53:30Z</time>
      </trkpt>
      <trkpt lat="48.88577" lon="2.10186">
        <ele>58</ele>
        <time>2012-11-24T12:53:34Z</time>
      </trkpt>
      <trkpt lat="48.8858" lon="2.10192">
        <ele>58</ele>
        <time>2012-11-24T12:53:38Z</time>
      </trkpt>
      <trkpt lat="48.88582" lon="2.10198">
        <ele>58</ele>
        <time>2012-11-24T12:53:42Z</time>
      </trkpt>
      <trkpt lat="48.88585" lon="2.10205">
        <ele>49</ele>
        <time>2012-11-24T12:53:46Z</time>
      </trkpt>
      <trkpt lat="48.88586" lon="2.10213">
        <ele>49</ele>
        <time>2012-11-24T12:53:51Z</time>
      </trkpt>
      <trkpt lat="48.88588" lon="2.1022">
        <ele>50</ele>
        <time>2012-11-24T12:53:56Z</time>
      </trkpt>
      <trkpt lat="48.88591" lon="2.10227">
        <ele>50</ele>
        <time>2012-11-24T12:54:00Z</time>
      </trkpt>
      <trkpt lat="48.88591" lon="2.10236">
        <ele>51</ele>
        <time>2012-11-24T12:54:04Z</time>
      </trkpt>
      <trkpt lat="48.8859" lon="2.10243">
        <ele>52</ele>
        <time>2012-11-24T12:54:08Z</time>
      </trkpt>
      <trkpt lat="48.88593" lon="2.10249">
        <ele>52</ele>
        <time>2012-11-24T12:54:12Z</time>
      </trkpt>
      <trkpt lat="48.88596" lon="2.10257">
        <ele>51</ele>
        <time>2012-11-24T12:54:17Z</time>
      </trkpt>
      <trkpt lat="48.88597" lon="2.10265">
        <ele>50</ele>
        <time>2012-11-24T12:54:21Z</time>
      </trkpt>
      <trkpt lat="48.88598" lon="2.10275">
        <ele>49</ele>
        <time>2012-11-24T12:54:26Z</time>
      </trkpt>
      <trkpt lat="48.88598" lon="2.10283">
        <ele>49</ele>
        <time>2012-11-24T12:54:31Z</time>
      </trkpt>
      <trkpt lat="48.886" lon="2.10291">
        <ele>49</ele>
        <time>2012-11-24T12:54:35Z</time>
      </trkpt>
      <trkpt lat="48.88603" lon="2.10296">
        <ele>48</ele>
        <time>2012-11-24T12:54:40Z</time>
      </trkpt>
      <trkpt lat="48.88605" lon="2.10304">
        <ele>48</ele>
        <time>2012-11-24T12:54:45Z</time>
      </trkpt>
      <trkpt lat="48.88607" lon="2.10317">
        <ele>48</ele>
        <time>2012-11-24T12:54:54Z</time>
      </trkpt>
      <trkpt lat="48.8861" lon="2.10322">
        <ele>48</ele>
        <time>2012-11-24T12:55:01Z</time>
      </trkpt>
      <trkpt lat="48.88615" lon="2.10327">
        <ele>48</ele>
        <time>2012-11-24T12:55:10Z</time>
      </trkpt>
      <trkpt lat="48.88619" lon="2.10329">
        <ele>47</ele>
        <time>2012-11-24T12:55:14Z</time>
      </trkpt>
      <trkpt lat="48.88624" lon="2.10331">
        <ele>46</ele>
        <time>2012-11-24T12:55:18Z</time>
      </trkpt>
      <trkpt lat="48.88629" lon="2.10329">
        <ele>46</ele>
        <time>2012-11-24T12:55:22Z</time>
      </trkpt>
      <trkpt lat="48.88634" lon="2.10327">
        <ele>45</ele>
        <time>2012-11-24T12:55:26Z</time>
      </trkpt>
      <trkpt lat="48.88639" lon="2.10324">
        <ele>44</ele>
        <time>2012-11-24T12:55:33Z</time>
      </trkpt>
      <trkpt lat="48.8864" lon="2.10317">
        <ele>44</ele>
        <time>2012-11-24T12:55:38Z</time>
      </trkpt>
      <trkpt lat="48.88644" lon="2.10312">
        <ele>44</ele>
        <time>2012-11-24T12:55:41Z</time>
      </trkpt>
      <trkpt lat="48.88647" lon="2.10305">
        <ele>44</ele>
        <time>2012-11-24T12:55:49Z</time>
      </trkpt>
      <trkpt lat="48.88646" lon="2.10293">
        <ele>45</ele>
        <time>2012-11-24T12:56:00Z</time>
      </trkpt>
      <trkpt lat="48.88653" lon="2.10283">
        <ele>44</ele>
        <time>2012-11-24T12:56:08Z</time>
      </trkpt>
      <trkpt lat="48.88656" lon="2.10274">
        <ele>44</ele>
        <time>2012-11-24T12:56:13Z</time>
      </trkpt>
      <trkpt lat="48.88659" lon="2.10268">
        <ele>43</ele>
        <time>2012-11-24T12:56:16Z</time>
      </trkpt>
      <trkpt lat="48.88661" lon="2.10262">
        <ele>43</ele>
        <time>2012-11-24T12:56:19Z</time>
      </trkpt>
      <trkpt lat="48.88662" lon="2.10255">
        <ele>41</ele>
        <time>2012-11-24T12:56:23Z</time>
      </trkpt>
      <trkpt lat="48.88663" lon="2.10247">
        <ele>41</ele>
        <time>2012-11-24T12:56:27Z</time>
      </trkpt>
      <trkpt lat="48.88664" lon="2.10241">
        <ele>42</ele>
        <time>2012-11-24T12:56:30Z</time>
      </trkpt>
      <trkpt lat="48.88666" lon="2.10234">
        <ele>43</ele>
        <time>2012-11-24T12:56:34Z</time>
      </trkpt>
      <trkpt lat="48.88666" lon="2.10227">
        <ele>43</ele>
        <time>2012-11-24T12:56:38Z</time>
      </trkpt>
      <trkpt lat="48.88667" lon="2.10212">
        <ele>43</ele>
        <time>2012-11-24T12:56:47Z</time>
      </trkpt>
      <trkpt lat="48.88667" lon="2.10205">
        <ele>36</ele>
        <time>2012-11-24T12:56:51Z</time>
      </trkpt>
      <trkpt lat="48.88668" lon="2.10198">
        <ele>36</ele>
        <time>2012-11-24T12:56:55Z</time>
      </trkpt>
      <trkpt lat="48.88671" lon="2.10191">
        <ele>36</ele>
        <time>2012-11-24T12:56:59Z</time>
      </trkpt>
      <trkpt lat="48.88671" lon="2.10184">
        <ele>36</ele>
        <time>2012-11-24T12:57:03Z</time>
      </trkpt>
      <trkpt lat="48.8867" lon="2.10176">
        <ele>36</ele>
        <time>2012-11-24T12:57:06Z</time>
      </trkpt>
      <trkpt lat="48.88669" lon="2.1017">
        <ele>37</ele>
        <time>2012-11-24T12:57:13Z</time>
      </trkpt>
      <trkpt lat="48.8867" lon="2.1016">
        <ele>36</ele>
        <time>2012-11-24T12:57:20Z</time>
      </trkpt>
      <trkpt lat="48.88671" lon="2.10153">
        <ele>36</ele>
        <time>2012-11-24T12:57:24Z</time>
      </trkpt>
      <trkpt lat="48.88673" lon="2.10145">
        <ele>35</ele>
        <time>2012-11-24T12:57:28Z</time>
      </trkpt>
      <trkpt lat="48.88674" lon="2.10138">
        <ele>35</ele>
        <time>2012-11-24T12:57:32Z</time>
      </trkpt>
      <trkpt lat="48.88675" lon="2.10131">
        <ele>35</ele>
        <time>2012-11-24T12:57:36Z</time>
      </trkpt>
      <trkpt lat="48.88677" lon="2.10124">
        <ele>35</ele>
        <time>2012-11-24T12:57:40Z</time>
      </trkpt>
      <trkpt lat="48.88676" lon="2.10116">
        <ele>35</ele>
        <time>2012-11-24T12:57:43Z</time>
      </trkpt>
      <trkpt lat="48.88674" lon="2.10109">
        <ele>35</ele>
        <time>2012-11-24T12:57:47Z</time>
      </trkpt>
      <trkpt lat="48.88674" lon="2.10102">
        <ele>35</ele>
        <time>2012-11-24T12:57:50Z</time>
      </trkpt>
      <trkpt lat="48.88674" lon="2.10094">
        <ele>36</ele>
        <time>2012-11-24T12:57:58Z</time>
      </trkpt>
      <trkpt lat="48.88673" lon="2.10086">
        <ele>36</ele>
        <time>2012-11-24T12:58:01Z</time>
      </trkpt>
      <trkpt lat="48.88675" lon="2.10078">
        <ele>36</ele>
        <time>2012-11-24T12:58:06Z</time>
      </trkpt>
      <trkpt lat="48.88677" lon="2.10069">
        <ele>36</ele>
        <time>2012-11-24T12:58:11Z</time>
      </trkpt>
      <trkpt lat="48.88678" lon="2.10062">
        <ele>36</ele>
        <time>2012-11-24T12:58:14Z</time>
      </trkpt>
      <trkpt lat="48.88678" lon="2.10054">
        <ele>36</ele>
        <time>2012-11-24T12:58:18Z</time>
      </trkpt>
      <trkpt lat="48.88682" lon="2.10048">
        <ele>36</ele>
        <time>2012-11-24T12:58:23Z</time>
      </trkpt>
      <trkpt lat="48.88683" lon="2.10038">
        <ele>36</ele>
        <time>2012-11-24T12:58:28Z</time>
      </trkpt>
      <trkpt lat="48.88683" lon="2.10031">
        <ele>36</ele>
        <time>2012-11-24T12:58:31Z</time>
      </trkpt>
      <trkpt lat="48.88684" lon="2.10024">
        <ele>36</ele>
        <time>2012-11-24T12:58:35Z</time>
      </trkpt>
      <trkpt lat="48.88685" lon="2.10017">
        <ele>37</ele>
        <time>2012-11-24T12:58:40Z</time>
      </trkpt>
      <trkpt lat="48.88684" lon="2.1001">
        <ele>37</ele>
        <time>2012-11-24T12:58:44Z</time>
      </trkpt>
      <trkpt lat="48.88686" lon="2.10002">
        <ele>37</ele>
        <time>2012-11-24T12:58:48Z</time>
      </trkpt>
      <trkpt lat="48.88688" lon="2.09988">
        <ele>38</ele>
        <time>2012-11-24T12:58:55Z</time>
      </trkpt>
      <trkpt lat="48.88689" lon="2.0998">
        <ele>37</ele>
        <time>2012-11-24T12:58:59Z</time>
      </trkpt>
      <trkpt lat="48.88688" lon="2.09972">
        <ele>37</ele>
        <time>2012-11-24T12:59:04Z</time>
      </trkpt>
      <trkpt lat="48.88686" lon="2.09965">
        <ele>37</ele>
        <time>2012-11-24T12:59:10Z</time>
      </trkpt>
      <trkpt lat="48.88684" lon="2.09958">
        <ele>38</ele>
        <time>2012-11-24T12:59:21Z</time>
      </trkpt>
      <trkpt lat="48.88701" lon="2.09963">
        <ele>37</ele>
        <time>2012-11-24T12:59:42Z</time>
      </trkpt>
      <trkpt lat="48.88708" lon="2.09966">
        <ele>37</ele>
        <time>2012-11-24T12:59:43Z</time>
      </trkpt>
      <trkpt lat="48.88704" lon="2.0996">
        <ele>37</ele>
        <time>2012-11-24T12:59:45Z</time>
      </trkpt>
      <trkpt lat="48.88701" lon="2.09953">
        <ele>37</ele>
        <time>2012-11-24T12:59:51Z</time>
      </trkpt>
      <trkpt lat="48.88698" lon="2.09946">
        <ele>37</ele>
        <time>2012-11-24T12:59:55Z</time>
      </trkpt>
      <trkpt lat="48.887" lon="2.09931">
        <ele>37</ele>
        <time>2012-11-24T13:00:03Z</time>
      </trkpt>
      <trkpt lat="48.88699" lon="2.09924">
        <ele>38</ele>
        <time>2012-11-24T13:00:09Z</time>
      </trkpt>
      <trkpt lat="48.88699" lon="2.09916">
        <ele>38</ele>
        <time>2012-11-24T13:00:13Z</time>
      </trkpt>
      <trkpt lat="48.88699" lon="2.09909">
        <ele>38</ele>
        <time>2012-11-24T13:00:24Z</time>
      </trkpt>
      <trkpt lat="48.88699" lon="2.09902">
        <ele>38</ele>
        <time>2012-11-24T13:00:27Z</time>
      </trkpt>
      <trkpt lat="48.88699" lon="2.09894">
        <ele>38</ele>
        <time>2012-11-24T13:00:31Z</time>
      </trkpt>
      <trkpt lat="48.88699" lon="2.09886">
        <ele>38</ele>
        <time>2012-11-24T13:00:34Z</time>
      </trkpt>
      <trkpt lat="48.887" lon="2.09876">
        <ele>38</ele>
        <time>2012-11-24T13:00:39Z</time>
      </trkpt>
      <trkpt lat="48.887" lon="2.09867">
        <ele>38</ele>
        <time>2012-11-24T13:00:44Z</time>
      </trkpt>
      <trkpt lat="48.88702" lon="2.09859">
        <ele>38</ele>
        <time>2012-11-24T13:00:47Z</time>
      </trkpt>
      <trkpt lat="48.88703" lon="2.09851">
        <ele>38</ele>
        <time>2012-11-24T13:00:52Z</time>
      </trkpt>
      <trkpt lat="48.88704" lon="2.09843">
        <ele>38</ele>
        <time>2012-11-24T13:00:57Z</time>
      </trkpt>
      <trkpt lat="48.88705" lon="2.09836">
        <ele>38</ele>
        <time>2012-11-24T13:01:00Z</time>
      </trkpt>
      <trkpt lat="48.88707" lon="2.09829">
        <ele>37</ele>
        <time>2012-11-24T13:01:04Z</time>
      </trkpt>
      <trkpt lat="48.88707" lon="2.09822">
        <ele>37</ele>
        <time>2012-11-24T13:01:08Z</time>
      </trkpt>
      <trkpt lat="48.8871" lon="2.09816">
        <ele>37</ele>
        <time>2012-11-24T13:01:11Z</time>
      </trkpt>
      <trkpt lat="48.8871" lon="2.09802">
        <ele>37</ele>
        <time>2012-11-24T13:01:19Z</time>
      </trkpt>
      <trkpt lat="48.88711" lon="2.09794">
        <ele>37</ele>
        <time>2012-11-24T13:01:24Z</time>
      </trkpt>
      <trkpt lat="48.88712" lon="2.09785">
        <ele>37</ele>
        <time>2012-11-24T13:01:27Z</time>
      </trkpt>
      <trkpt lat="48.88715" lon="2.0978">
        <ele>37</ele>
        <time>2012-11-24T13:01:32Z</time>
      </trkpt>
      <trkpt lat="48.88717" lon="2.09773">
        <ele>37</ele>
        <time>2012-11-24T13:01:36Z</time>
      </trkpt>
      <trkpt lat="48.88719" lon="2.09764">
        <ele>37</ele>
        <time>2012-11-24T13:01:40Z</time>
      </trkpt>
      <trkpt lat="48.88726" lon="2.09755">
        <ele>37</ele>
        <time>2012-11-24T13:01:47Z</time>
      </trkpt>
      <trkpt lat="48.8873" lon="2.0975">
        <ele>37</ele>
        <time>2012-11-24T13:01:54Z</time>
      </trkpt>
      <trkpt lat="48.88733" lon="2.09743">
        <ele>37</ele>
        <time>2012-11-24T13:01:57Z</time>
      </trkpt>
      <trkpt lat="48.88737" lon="2.09737">
        <ele>37</ele>
        <time>2012-11-24T13:02:02Z</time>
      </trkpt>
      <trkpt lat="48.88743" lon="2.09732">
        <ele>37</ele>
        <time>2012-11-24T13:02:07Z</time>
      </trkpt>
      <trkpt lat="48.88751" lon="2.09723">
        <ele>39</ele>
        <time>2012-11-24T13:02:14Z</time>
      </trkpt>
      <trkpt lat="48.88756" lon="2.09719">
        <ele>39</ele>
        <time>2012-11-24T13:02:19Z</time>
      </trkpt>
      <trkpt lat="48.88761" lon="2.09717">
        <ele>39</ele>
        <time>2012-11-24T13:02:23Z</time>
      </trkpt>
      <trkpt lat="48.88765" lon="2.09713">
        <ele>39</ele>
        <time>2012-11-24T13:02:27Z</time>
      </trkpt>
      <trkpt lat="48.8877" lon="2.09712">
        <ele>40</ele>
        <time>2012-11-24T13:02:31Z</time>
      </trkpt>
      <trkpt lat="48.88775" lon="2.09709">
        <ele>40</ele>
        <time>2012-11-24T13:02:35Z</time>
      </trkpt>
      <trkpt lat="48.8878" lon="2.09708">
        <ele>40</ele>
        <time>2012-11-24T13:02:39Z</time>
      </trkpt>
      <trkpt lat="48.88785" lon="2.09707">
        <ele>40</ele>
        <time>2012-11-24T13:02:43Z</time>
      </trkpt>
      <trkpt lat="48.8879" lon="2.09706">
        <ele>40</ele>
        <time>2012-11-24T13:02:47Z</time>
      </trkpt>
      <trkpt lat="48.88796" lon="2.09705">
        <ele>40</ele>
        <time>2012-11-24T13:02:51Z</time>
      </trkpt>
      <trkpt lat="48.88801" lon="2.09705">
        <ele>41</ele>
        <time>2012-11-24T13:02:55Z</time>
      </trkpt>
      <trkpt lat="48.8881" lon="2.09706">
        <ele>41</ele>
        <time>2012-11-24T13:03:06Z</time>
      </trkpt>
      <trkpt lat="48.88814" lon="2.0971">
        <ele>41</ele>
        <time>2012-11-24T13:03:12Z</time>
      </trkpt>
      <trkpt lat="48.88819" lon="2.09711">
        <ele>41</ele>
        <time>2012-11-24T13:03:16Z</time>
      </trkpt>
      <trkpt lat="48.88825" lon="2.09713">
        <ele>41</ele>
        <time>2012-11-24T13:03:19Z</time>
      </trkpt>
      <trkpt lat="48.8883" lon="2.09714">
        <ele>41</ele>
        <time>2012-11-24T13:03:23Z</time>
      </trkpt>
      <trkpt lat="48.88834" lon="2.09719">
        <ele>47</ele>
        <time>2012-11-24T13:03:28Z</time>
      </trkpt>
      <trkpt lat="48.88839" lon="2.09721">
        <ele>47</ele>
        <time>2012-11-24T13:03:32Z</time>
      </trkpt>
      <trkpt lat="48.88845" lon="2.09722">
        <ele>47</ele>
        <time>2012-11-24T13:03:36Z</time>
      </trkpt>
      <trkpt lat="48.88851" lon="2.09724">
        <ele>47</ele>
        <time>2012-11-24T13:03:39Z</time>
      </trkpt>
      <trkpt lat="48.88857" lon="2.09726">
        <ele>48</ele>
        <time>2012-11-24T13:03:43Z</time>
      </trkpt>
      <trkpt lat="48.88861" lon="2.0973">
        <ele>48</ele>
        <time>2012-11-24T13:03:47Z</time>
      </trkpt>
      <trkpt lat="48.88865" lon="2.09733">
        <ele>49</ele>
        <time>2012-11-24T13:03:50Z</time>
      </trkpt>
      <trkpt lat="48.8887" lon="2.09736">
        <ele>49</ele>
        <time>2012-11-24T13:03:53Z</time>
      </trkpt>
      <trkpt lat="48.88875" lon="2.09738">
        <ele>50</ele>
        <time>2012-11-24T13:03:55Z</time>
      </trkpt>
      <trkpt lat="48.88878" lon="2.09743">
        <ele>50</ele>
        <time>2012-11-24T13:03:58Z</time>
      </trkpt>
      <trkpt lat="48.88882" lon="2.0975">
        <ele>51</ele>
        <time>2012-11-24T13:04:02Z</time>
      </trkpt>
      <trkpt lat="48.88885" lon="2.09756">
        <ele>48</ele>
        <time>2012-11-24T13:04:07Z</time>
      </trkpt>
      <trkpt lat="48.88889" lon="2.09761">
        <ele>49</ele>
        <time>2012-11-24T13:04:10Z</time>
      </trkpt>
      <trkpt lat="48.88891" lon="2.09768">
        <ele>49</ele>
        <time>2012-11-24T13:04:14Z</time>
      </trkpt>
      <trkpt lat="48.88895" lon="2.09774">
        <ele>49</ele>
        <time>2012-11-24T13:04:19Z</time>
      </trkpt>
      <trkpt lat="48.88894" lon="2.09782">
        <ele>48</ele>
        <time>2012-11-24T13:04:25Z</time>
      </trkpt>
      <trkpt lat="48.88896" lon="2.09788">
        <ele>48</ele>
        <time>2012-11-24T13:04:29Z</time>
      </trkpt>
      <trkpt lat="48.88901" lon="2.09791">
        <ele>49</ele>
        <time>2012-11-24T13:04:34Z</time>
      </trkpt>
      <trkpt lat="48.88906" lon="2.09797">
        <ele>49</ele>
        <time>2012-11-24T13:04:38Z</time>
      </trkpt>
      <trkpt lat="48.88909" lon="2.09802">
        <ele>49</ele>
        <time>2012-11-24T13:04:41Z</time>
      </trkpt>
      <trkpt lat="48.88911" lon="2.09815">
        <ele>50</ele>
        <time>2012-11-24T13:04:47Z</time>
      </trkpt>
      <trkpt lat="48.88912" lon="2.09823">
        <ele>51</ele>
        <time>2012-11-24T13:04:50Z</time>
      </trkpt>
      <trkpt lat="48.88912" lon="2.0983">
        <ele>52</ele>
        <time>2012-11-24T13:04:54Z</time>
      </trkpt>
      <trkpt lat="48.88913" lon="2.09839">
        <ele>51</ele>
        <time>2012-11-24T13:04:59Z</time>
      </trkpt>
      <trkpt lat="48.88916" lon="2.09846">
        <ele>49</ele>
        <time>2012-11-24T13:05:03Z</time>
      </trkpt>
      <trkpt lat="48.88916" lon="2.09853">
        <ele>48</ele>
        <time>2012-11-24T13:05:06Z</time>
      </trkpt>
      <trkpt lat="48.88916" lon="2.0986">
        <ele>47</ele>
        <time>2012-11-24T13:05:11Z</time>
      </trkpt>
      <trkpt lat="48.88918" lon="2.09868">
        <ele>55</ele>
        <time>2012-11-24T13:05:15Z</time>
      </trkpt>
      <trkpt lat="48.88921" lon="2.09874">
        <ele>55</ele>
        <time>2012-11-24T13:05:20Z</time>
      </trkpt>
      <trkpt lat="48.88924" lon="2.0988">
        <ele>55</ele>
        <time>2012-11-24T13:05:25Z</time>
      </trkpt>
      <trkpt lat="48.88926" lon="2.09886">
        <ele>55</ele>
        <time>2012-11-24T13:05:29Z</time>
      </trkpt>
      <trkpt lat="48.88926" lon="2.09894">
        <ele>54</ele>
        <time>2012-11-24T13:05:33Z</time>
      </trkpt>
      <trkpt lat="48.88931" lon="2.09899">
        <ele>54</ele>
        <time>2012-11-24T13:05:37Z</time>
      </trkpt>
      <trkpt lat="48.88934" lon="2.09906">
        <ele>54</ele>
        <time>2012-11-24T13:05:42Z</time>
      </trkpt>
      <trkpt lat="48.88939" lon="2.09911">
        <ele>54</ele>
        <time>2012-11-24T13:05:47Z</time>
      </trkpt>
      <trkpt lat="48.88941" lon="2.09917">
        <ele>53</ele>
        <time>2012-11-24T13:05:50Z</time>
      </trkpt>
      <trkpt lat="48.88944" lon="2.09925">
        <ele>54</ele>
        <time>2012-11-24T13:05:54Z</time>
      </trkpt>
      <trkpt lat="48.88947" lon="2.09929">
        <ele>54</ele>
        <time>2012-11-24T13:05:57Z</time>
      </trkpt>
      <trkpt lat="48.88951" lon="2.09935">
        <ele>55</ele>
        <time>2012-11-24T13:06:00Z</time>
      </trkpt>
      <trkpt lat="48.88954" lon="2.09943">
        <ele>55</ele>
        <time>2012-11-24T13:06:05Z</time>
      </trkpt>
      <trkpt lat="48.88956" lon="2.09951">
        <ele>55</ele>
        <time>2012-11-24T13:06:09Z</time>
      </trkpt>
      <trkpt lat="48.88958" lon="2.09958">
        <ele>55</ele>
        <time>2012-11-24T13:06:12Z</time>
      </trkpt>
      <trkpt lat="48.88961" lon="2.09965">
        <ele>55</ele>
        <time>2012-11-24T13:06:17Z</time>
      </trkpt>
      <trkpt lat="48.88963" lon="2.09971">
        <ele>56</ele>
        <time>2012-11-24T13:06:22Z</time>
      </trkpt>
      <trkpt lat="48.88967" lon="2.09977">
        <ele>56</ele>
        <time>2012-11-24T13:06:28Z</time>
      </trkpt>
      <trkpt lat="48.88971" lon="2.09982">
        <ele>56</ele>
        <time>2012-11-24T13:06:32Z</time>
      </trkpt>
      <trkpt lat="48.88974" lon="2.09988">
        <ele>57</ele>
        <time>2012-11-24T13:06:37Z</time>
      </trkpt>
      <trkpt lat="48.88978" lon="2.09993">
        <ele>58</ele>
        <time>2012-11-24T13:06:42Z</time>
      </trkpt>
      <trkpt lat="48.88982" lon="2.09999">
        <ele>58</ele>
        <time>2012-11-24T13:06:46Z</time>
      </trkpt>
      <trkpt lat="48.88987" lon="2.10004">
        <ele>58</ele>
        <time>2012-11-24T13:06:52Z</time>
      </trkpt>
      <trkpt lat="48.8899" lon="2.10008">
        <ele>59</ele>
        <time>2012-11-24T13:06:58Z</time>
      </trkpt>
      <trkpt lat="48.88996" lon="2.10011">
        <ele>59</ele>
        <time>2012-11-24T13:07:02Z</time>
      </trkpt>
      <trkpt lat="48.89" lon="2.10015">
        <ele>63</ele>
        <time>2012-11-24T13:07:08Z</time>
      </trkpt>
      <trkpt lat="48.89004" lon="2.10019">
        <ele>64</ele>
        <time>2012-11-24T13:07:11Z</time>
      </trkpt>
      <trkpt lat="48.89009" lon="2.10024">
        <ele>64</ele>
        <time>2012-11-24T13:07:15Z</time>
      </trkpt>
      <trkpt lat="48.89018" lon="2.10027">
        <ele>64</ele>
        <time>2012-11-24T13:07:27Z</time>
      </trkpt>
      <trkpt lat="48.89022" lon="2.10031">
        <ele>64</ele>
        <time>2012-11-24T13:07:31Z</time>
      </trkpt>
      <trkpt lat="48.89027" lon="2.10031">
        <ele>65</ele>
        <time>2012-11-24T13:07:37Z</time>
      </trkpt>
      <trkpt lat="48.89034" lon="2.10032">
        <ele>65</ele>
        <time>2012-11-24T13:07:40Z</time>
      </trkpt>
      <trkpt lat="48.89039" lon="2.10031">
        <ele>65</ele>
        <time>2012-11-24T13:07:45Z</time>
      </trkpt>
      <trkpt lat="48.89043" lon="2.10032">
        <ele>65</ele>
        <time>2012-11-24T13:07:48Z</time>
      </trkpt>
      <trkpt lat="48.89049" lon="2.10035">
        <ele>66</ele>
        <time>2012-11-24T13:07:52Z</time>
      </trkpt>
      <trkpt lat="48.89054" lon="2.10037">
        <ele>66</ele>
        <time>2012-11-24T13:07:56Z</time>
      </trkpt>
      <trkpt lat="48.89063" lon="2.10039">
        <ele>66</ele>
        <time>2012-11-24T13:08:04Z</time>
      </trkpt>
      <trkpt lat="48.89067" lon="2.10041">
        <ele>66</ele>
        <time>2012-11-24T13:08:09Z</time>
      </trkpt>
      <trkpt lat="48.89072" lon="2.10041">
        <ele>66</ele>
        <time>2012-11-24T13:08:13Z</time>
      </trkpt>
      <trkpt lat="48.89077" lon="2.1004">
        <ele>66</ele>
        <time>2012-11-24T13:08:20Z</time>
      </trkpt>
      <trkpt lat="48.89082" lon="2.10037">
        <ele>67</ele>
        <time>2012-11-24T13:08:24Z</time>
      </trkpt>
      <trkpt lat="48.8909" lon="2.10032">
        <ele>70</ele>
        <time>2012-11-24T13:08:33Z</time>
      </trkpt>
      <trkpt lat="48.89095" lon="2.1003">
        <ele>70</ele>
        <time>2012-11-24T13:08:38Z</time>
      </trkpt>
      <trkpt lat="48.891" lon="2.1003">
        <ele>70</ele>
        <time>2012-11-24T13:08:42Z</time>
      </trkpt>
      <trkpt lat="48.89106" lon="2.10028">
        <ele>70</ele>
        <time>2012-11-24T13:08:46Z</time>
      </trkpt>
      <trkpt lat="48.89111" lon="2.10025">
        <ele>70</ele>
        <time>2012-11-24T13:08:50Z</time>
      </trkpt>
      <trkpt lat="48.89116" lon="2.10024">
        <ele>70</ele>
        <time>2012-11-24T13:08:54Z</time>
      </trkpt>
      <trkpt lat="48.89125" lon="2.10019">
        <ele>71</ele>
        <time>2012-11-24T13:09:01Z</time>
      </trkpt>
      <trkpt lat="48.8913" lon="2.10018">
        <ele>71</ele>
        <time>2012-11-24T13:09:04Z</time>
      </trkpt>
      <trkpt lat="48.89135" lon="2.10016">
        <ele>71</ele>
        <time>2012-11-24T13:09:09Z</time>
      </trkpt>
      <trkpt lat="48.89141" lon="2.10016">
        <ele>71</ele>
        <time>2012-11-24T13:09:15Z</time>
      </trkpt>
      <trkpt lat="48.89146" lon="2.10017">
        <ele>71</ele>
        <time>2012-11-24T13:09:18Z</time>
      </trkpt>
      <trkpt lat="48.89151" lon="2.10015">
        <ele>72</ele>
        <time>2012-11-24T13:09:23Z</time>
      </trkpt>
      <trkpt lat="48.89156" lon="2.10013">
        <ele>72</ele>
        <time>2012-11-24T13:09:27Z</time>
      </trkpt>
      <trkpt lat="48.8916" lon="2.10009">
        <ele>73</ele>
        <time>2012-11-24T13:09:30Z</time>
      </trkpt>
      <trkpt lat="48.89162" lon="2.10002">
        <ele>74</ele>
        <time>2012-11-24T13:09:37Z</time>
      </trkpt>
      <trkpt lat="48.89167" lon="2.09998">
        <ele>75</ele>
        <time>2012-11-24T13:09:42Z</time>
      </trkpt>
      <trkpt lat="48.89171" lon="2.09993">
        <ele>76</ele>
        <time>2012-11-24T13:09:46Z</time>
      </trkpt>
      <trkpt lat="48.89175" lon="2.09988">
        <ele>77</ele>
        <time>2012-11-24T13:09:51Z</time>
      </trkpt>
      <trkpt lat="48.8918" lon="2.09985">
        <ele>77</ele>
        <time>2012-11-24T13:09:57Z</time>
      </trkpt>
      <trkpt lat="48.89183" lon="2.0998">
        <ele>78</ele>
        <time>2012-11-24T13:10:01Z</time>
      </trkpt>
      <trkpt lat="48.89188" lon="2.09977">
        <ele>78</ele>
        <time>2012-11-24T13:10:07Z</time>
      </trkpt>
      <trkpt lat="48.89192" lon="2.09974">
        <ele>78</ele>
        <time>2012-11-24T13:10:14Z</time>
      </trkpt>
      <trkpt lat="48.89197" lon="2.09972">
        <ele>79</ele>
        <time>2012-11-24T13:10:18Z</time>
      </trkpt>
      <trkpt lat="48.89202" lon="2.09973">
        <ele>79</ele>
        <time>2012-11-24T13:10:24Z</time>
      </trkpt>
      <trkpt lat="48.89212" lon="2.09973">
        <ele>79</ele>
        <time>2012-11-24T13:10:31Z</time>
      </trkpt>
      <trkpt lat="48.89217" lon="2.09973">
        <ele>79</ele>
        <time>2012-11-24T13:10:35Z</time>
      </trkpt>
      <trkpt lat="48.89225" lon="2.09968">
        <ele>79</ele>
        <time>2012-11-24T13:10:44Z</time>
      </trkpt>
      <trkpt lat="48.8923" lon="2.09968">
        <ele>79</ele>
        <time>2012-11-24T13:10:48Z</time>
      </trkpt>
      <trkpt lat="48.8924" lon="2.09965">
        <ele>79</ele>
        <time>2012-11-24T13:10:54Z</time>
      </trkpt>
      <trkpt lat="48.89246" lon="2.0996">
        <ele>80</ele>
        <time>2012-11-24T13:10:58Z</time>
      </trkpt>
      <trkpt lat="48.8925" lon="2.09955">
        <ele>81</ele>
        <time>2012-11-24T13:11:03Z</time>
      </trkpt>
      <trkpt lat="48.89255" lon="2.09951">
        <ele>82</ele>
        <time>2012-11-24T13:11:06Z</time>
      </trkpt>
      <trkpt lat="48.8926" lon="2.09952">
        <ele>82</ele>
        <time>2012-11-24T13:11:09Z</time>
      </trkpt>
      <trkpt lat="48.89264" lon="2.09949">
        <ele>82</ele>
        <time>2012-11-24T13:11:13Z</time>
      </trkpt>
      <trkpt lat="48.89269" lon="2.09947">
        <ele>82</ele>
        <time>2012-11-24T13:11:18Z</time>
      </trkpt>
      <trkpt lat="48.89275" lon="2.09945">
        <ele>82</ele>
        <time>2012-11-24T13:11:22Z</time>
      </trkpt>
      <trkpt lat="48.8928" lon="2.09943">
        <ele>82</ele>
        <time>2012-11-24T13:11:28Z</time>
      </trkpt>
      <trkpt lat="48.89285" lon="2.09943">
        <ele>82</ele>
        <time>2012-11-24T13:11:33Z</time>
      </trkpt>
      <trkpt lat="48.89289" lon="2.09942">
        <ele>82</ele>
        <time>2012-11-24T13:11:37Z</time>
      </trkpt>
      <trkpt lat="48.89295" lon="2.09941">
        <ele>82</ele>
        <time>2012-11-24T13:11:41Z</time>
      </trkpt>
      <trkpt lat="48.893" lon="2.09938">
        <ele>82</ele>
        <time>2012-11-24T13:11:44Z</time>
      </trkpt>
      <trkpt lat="48.89305" lon="2.09937">
        <ele>82</ele>
        <time>2012-11-24T13:11:47Z</time>
      </trkpt>
      <trkpt lat="48.89309" lon="2.09934">
        <ele>83</ele>
        <time>2012-11-24T13:11:50Z</time>
      </trkpt>
      <trkpt lat="48.89316" lon="2.09934">
        <ele>83</ele>
        <time>2012-11-24T13:11:53Z</time>
      </trkpt>
      <trkpt lat="48.89321" lon="2.09931">
        <ele>83</ele>
        <time>2012-11-24T13:11:55Z</time>
      </trkpt>
      <trkpt lat="48.89326" lon="2.09927">
        <ele>83</ele>
        <time>2012-11-24T13:11:59Z</time>
      </trkpt>
      <trkpt lat="48.8933" lon="2.09926">
        <ele>83</ele>
        <time>2012-11-24T13:12:06Z</time>
      </trkpt>
      <trkpt lat="48.89339" lon="2.0992">
        <ele>84</ele>
        <time>2012-11-24T13:12:18Z</time>
      </trkpt>
      <trkpt lat="48.89345" lon="2.09919">
        <ele>84</ele>
        <time>2012-11-24T13:12:22Z</time>
      </trkpt>
      <trkpt lat="48.89354" lon="2.09916">
        <ele>85</ele>
        <time>2012-11-24T13:12:30Z</time>
      </trkpt>
      <trkpt lat="48.89358" lon="2.09913">
        <ele>85</ele>
        <time>2012-11-24T13:12:33Z</time>
      </trkpt>
      <trkpt lat="48.89364" lon="2.09911">
        <ele>85</ele>
        <time>2012-11-24T13:12:37Z</time>
      </trkpt>
      <trkpt lat="48.89368" lon="2.09909">
        <ele>86</ele>
        <time>2012-11-24T13:12:41Z</time>
      </trkpt>
      <trkpt lat="48.89373" lon="2.09906">
        <ele>86</ele>
        <time>2012-11-24T13:12:47Z</time>
      </trkpt>
      <trkpt lat="48.89377" lon="2.09901">
        <ele>86</ele>
        <time>2012-11-24T13:12:51Z</time>
      </trkpt>
      <trkpt lat="48.89381" lon="2.09898">
        <ele>86</ele>
        <time>2012-11-24T13:12:55Z</time>
      </trkpt>
      <trkpt lat="48.89386" lon="2.09898">
        <ele>86</ele>
        <time>2012-11-24T13:12:59Z</time>
      </trkpt>
      <trkpt lat="48.89391" lon="2.09895">
        <ele>86</ele>
        <time>2012-11-24T13:13:02Z</time>
      </trkpt>
      <trkpt lat="48.89397" lon="2.09892">
        <ele>86</ele>
        <time>2012-11-24T13:13:06Z</time>
      </trkpt>
      <trkpt lat="48.89401" lon="2.0989">
        <ele>86</ele>
        <time>2012-11-24T13:13:09Z</time>
      </trkpt>
      <trkpt lat="48.89406" lon="2.09886">
        <ele>86</ele>
        <time>2012-11-24T13:13:16Z</time>
      </trkpt>
      <trkpt lat="48.8941" lon="2.09883">
        <ele>86</ele>
        <time>2012-11-24T13:13:21Z</time>
      </trkpt>
      <trkpt lat="48.89415" lon="2.0988">
        <ele>86</ele>
        <time>2012-11-24T13:13:25Z</time>
      </trkpt>
      <trkpt lat="48.89421" lon="2.0988">
        <ele>87</ele>
        <time>2012-11-24T13:13:29Z</time>
      </trkpt>
      <trkpt lat="48.89426" lon="2.09878">
        <ele>87</ele>
        <time>2012-11-24T13:13:33Z</time>
      </trkpt>
      <trkpt lat="48.8943" lon="2.09876">
        <ele>87</ele>
        <time>2012-11-24T13:13:36Z</time>
      </trkpt>
      <trkpt lat="48.8944" lon="2.09877">
        <ele>87</ele>
        <time>2012-11-24T13:13:42Z</time>
      </trkpt>
      <trkpt lat="48.89443" lon="2.09881">
        <ele>87</ele>
        <time>2012-11-24T13:13:44Z</time>
      </trkpt>
      <trkpt lat="48.89448" lon="2.09888">
        <ele>87</ele>
        <time>2012-11-24T13:13:47Z</time>
      </trkpt>
      <trkpt lat="48.89451" lon="2.09894">
        <ele>87</ele>
        <time>2012-11-24T13:13:52Z</time>
      </trkpt>
      <trkpt lat="48.89456" lon="2.09898">
        <ele>87</ele>
        <time>2012-11-24T13:14:25Z</time>
      </trkpt>
      <trkpt lat="48.89462" lon="2.09897">
        <ele>88</ele>
        <time>2012-11-24T13:14:29Z</time>
      </trkpt>
      <trkpt lat="48.89467" lon="2.09897">
        <ele>88</ele>
        <time>2012-11-24T13:14:34Z</time>
      </trkpt>
      <trkpt lat="48.89472" lon="2.09897">
        <ele>88</ele>
        <time>2012-11-24T13:14:38Z</time>
      </trkpt>
      <trkpt lat="48.89476" lon="2.09895">
        <ele>88</ele>
        <time>2012-11-24T13:14:44Z</time>
      </trkpt>
      <trkpt lat="48.89479" lon="2.09889">
        <ele>88</ele>
        <time>2012-11-24T13:14:49Z</time>
      </trkpt>
      <trkpt lat="48.89482" lon="2.09883">
        <ele>88</ele>
        <time>2012-11-24T13:14:53Z</time>
      </trkpt>
      <trkpt lat="48.89486" lon="2.09875">
        <ele>88</ele>
        <time>2012-11-24T13:14:56Z</time>
      </trkpt>
      <trkpt lat="48.89487" lon="2.09869">
        <ele>88</ele>
        <time>2012-11-24T13:15:00Z</time>
      </trkpt>
      <trkpt lat="48.89491" lon="2.09863">
        <ele>88</ele>
        <time>2012-11-24T13:15:02Z</time>
      </trkpt>
      <trkpt lat="48.89496" lon="2.09859">
        <ele>89</ele>
        <time>2012-11-24T13:15:06Z</time>
      </trkpt>
      <trkpt lat="48.89502" lon="2.09856">
        <ele>89</ele>
        <time>2012-11-24T13:15:12Z</time>
      </trkpt>
      <trkpt lat="48.89508" lon="2.09853">
        <ele>90</ele>
        <time>2012-11-24T13:15:17Z</time>
      </trkpt>
      <trkpt lat="48.89513" lon="2.09851">
        <ele>90</ele>
        <time>2012-11-24T13:15:21Z</time>
      </trkpt>
      <trkpt lat="48.89518" lon="2.0985">
        <ele>90</ele>
        <time>2012-11-24T13:15:25Z</time>
      </trkpt>
      <trkpt lat="48.89523" lon="2.09851">
        <ele>89</ele>
        <time>2012-11-24T13:15:29Z</time>
      </trkpt>
      <trkpt lat="48.89529" lon="2.09851">
        <ele>89</ele>
        <time>2012-11-24T13:15:34Z</time>
      </trkpt>
      <trkpt lat="48.89538" lon="2.09854">
        <ele>89</ele>
        <time>2012-11-24T13:15:40Z</time>
      </trkpt>
      <trkpt lat="48.89542" lon="2.09856">
        <ele>89</ele>
        <time>2012-11-24T13:15:44Z</time>
      </trkpt>
      <trkpt lat="48.89548" lon="2.09858">
        <ele>89</ele>
        <time>2012-11-24T13:15:48Z</time>
      </trkpt>
      <trkpt lat="48.89553" lon="2.09857">
        <ele>89</ele>
        <time>2012-11-24T13:15:52Z</time>
      </trkpt>
      <trkpt lat="48.89562" lon="2.09852">
        <ele>90</ele>
        <time>2012-11-24T13:16:01Z</time>
      </trkpt>
      <trkpt lat="48.89567" lon="2.09852">
        <ele>90</ele>
        <time>2012-11-24T13:16:04Z</time>
      </trkpt>
      <trkpt lat="48.89577" lon="2.09855">
        <ele>90</ele>
        <time>2012-11-24T13:16:11Z</time>
      </trkpt>
      <trkpt lat="48.89582" lon="2.09853">
        <ele>90</ele>
        <time>2012-11-24T13:16:16Z</time>
      </trkpt>
      <trkpt lat="48.89588" lon="2.09853">
        <ele>90</ele>
        <time>2012-11-24T13:16:20Z</time>
      </trkpt>
      <trkpt lat="48.89592" lon="2.09853">
        <ele>90</ele>
        <time>2012-11-24T13:16:23Z</time>
      </trkpt>
      <trkpt lat="48.89598" lon="2.09855">
        <ele>90</ele>
        <time>2012-11-24T13:16:27Z</time>
      </trkpt>
      <trkpt lat="48.89603" lon="2.09855">
        <ele>90</ele>
        <time>2012-11-24T13:16:31Z</time>
      </trkpt>
      <trkpt lat="48.89607" lon="2.09856">
        <ele>90</ele>
        <time>2012-11-24T13:16:36Z</time>
      </trkpt>
      <trkpt lat="48.89613" lon="2.09855">
        <ele>90</ele>
        <time>2012-11-24T13:16:41Z</time>
      </trkpt>
      <trkpt lat="48.89618" lon="2.09854">
        <ele>90</ele>
        <time>2012-11-24T13:16:45Z</time>
      </trkpt>
      <trkpt lat="48.89624" lon="2.09855">
        <ele>90</ele>
        <time>2012-11-24T13:16:49Z</time>
      </trkpt>
      <trkpt lat="48.89629" lon="2.09855">
        <ele>91</ele>
        <time>2012-11-24T13:16:53Z</time>
      </trkpt>
      <trkpt lat="48.89635" lon="2.09854">
        <ele>91</ele>
        <time>2012-11-24T13:16:58Z</time>
      </trkpt>
      <trkpt lat="48.8964" lon="2.09856">
        <ele>91</ele>
        <time>2012-11-24T13:17:01Z</time>
      </trkpt>
      <trkpt lat="48.89646" lon="2.09855">
        <ele>91</ele>
        <time>2012-11-24T13:17:06Z</time>
      </trkpt>
      <trkpt lat="48.89656" lon="2.09854">
        <ele>91</ele>
        <time>2012-11-24T13:17:14Z</time>
      </trkpt>
      <trkpt lat="48.89661" lon="2.09854">
        <ele>91</ele>
        <time>2012-11-24T13:17:17Z</time>
      </trkpt>
      <trkpt lat="48.89666" lon="2.09856">
        <ele>91</ele>
        <time>2012-11-24T13:17:21Z</time>
      </trkpt>
      <trkpt lat="48.89671" lon="2.09855">
        <ele>91</ele>
        <time>2012-11-24T13:17:25Z</time>
      </trkpt>
      <trkpt lat="48.89677" lon="2.09854">
        <ele>91</ele>
        <time>2012-11-24T13:17:29Z</time>
      </trkpt>
      <trkpt lat="48.89682" lon="2.09853">
        <ele>91</ele>
        <time>2012-11-24T13:17:35Z</time>
      </trkpt>
      <trkpt lat="48.89692" lon="2.09851">
        <ele>91</ele>
        <time>2012-11-24T13:17:43Z</time>
      </trkpt>
      <trkpt lat="48.89697" lon="2.09852">
        <ele>91</ele>
        <time>2012-11-24T13:17:47Z</time>
      </trkpt>
      <trkpt lat="48.89702" lon="2.09854">
        <ele>91</ele>
        <time>2012-11-24T13:17:50Z</time>
      </trkpt>
      <trkpt lat="48.89706" lon="2.09852">
        <ele>91</ele>
        <time>2012-11-24T13:17:54Z</time>
      </trkpt>
      <trkpt lat="48.89712" lon="2.0985">
        <ele>91</ele>
        <time>2012-11-24T13:17:57Z</time>
      </trkpt>
      <trkpt lat="48.89716" lon="2.09846">
        <ele>91</ele>
        <time>2012-11-24T13:18:05Z</time>
      </trkpt>
      <trkpt lat="48.89721" lon="2.09846">
        <ele>91</ele>
        <time>2012-11-24T13:18:08Z</time>
      </trkpt>
      <trkpt lat="48.89725" lon="2.09845">
        <ele>91</ele>
        <time>2012-11-24T13:18:13Z</time>
      </trkpt>
      <trkpt lat="48.89731" lon="2.09842">
        <ele>91</ele>
        <time>2012-11-24T13:18:19Z</time>
      </trkpt>
      <trkpt lat="48.89736" lon="2.09838">
        <ele>91</ele>
        <time>2012-11-24T13:18:24Z</time>
      </trkpt>
      <trkpt lat="48.89743" lon="2.09836">
        <ele>91</ele>
        <time>2012-11-24T13:18:27Z</time>
      </trkpt>
      <trkpt lat="48.89747" lon="2.09835">
        <ele>91</ele>
        <time>2012-11-24T13:18:30Z</time>
      </trkpt>
      <trkpt lat="48.89752" lon="2.09835">
        <ele>91</ele>
        <time>2012-11-24T13:18:34Z</time>
      </trkpt>
      <trkpt lat="48.89756" lon="2.09836">
        <ele>91</ele>
        <time>2012-11-24T13:18:39Z</time>
      </trkpt>
      <trkpt lat="48.89766" lon="2.09837">
        <ele>91</ele>
        <time>2012-11-24T13:18:44Z</time>
      </trkpt>
      <trkpt lat="48.8977" lon="2.09844">
        <ele>91</ele>
        <time>2012-11-24T13:18:46Z</time>
      </trkpt>
      <trkpt lat="48.89776" lon="2.09848">
        <ele>91</ele>
        <time>2012-11-24T13:18:49Z</time>
      </trkpt>
      <trkpt lat="48.8978" lon="2.09853">
        <ele>91</ele>
        <time>2012-11-24T13:18:52Z</time>
      </trkpt>
      <trkpt lat="48.89785" lon="2.09855">
        <ele>91</ele>
        <time>2012-11-24T13:18:57Z</time>
      </trkpt>
      <trkpt lat="48.89789" lon="2.09849">
        <ele>91</ele>
        <time>2012-11-24T13:19:02Z</time>
      </trkpt>
      <trkpt lat="48.89793" lon="2.09845">
        <ele>91</ele>
        <time>2012-11-24T13:19:06Z</time>
      </trkpt>
      <trkpt lat="48.89797" lon="2.09843">
        <ele>91</ele>
        <time>2012-11-24T13:19:11Z</time>
      </trkpt>
      <trkpt lat="48.89802" lon="2.09844">
        <ele>91</ele>
        <time>2012-11-24T13:19:16Z</time>
      </trkpt>
      <trkpt lat="48.89807" lon="2.09844">
        <ele>91</ele>
        <time>2012-11-24T13:19:22Z</time>
      </trkpt>
      <trkpt lat="48.89812" lon="2.09843">
        <ele>90</ele>
        <time>2012-11-24T13:19:26Z</time>
      </trkpt>
      <trkpt lat="48.89817" lon="2.09843">
        <ele>90</ele>
        <time>2012-11-24T13:19:30Z</time>
      </trkpt>
      <trkpt lat="48.89822" lon="2.09845">
        <ele>90</ele>
        <time>2012-11-24T13:19:34Z</time>
      </trkpt>
      <trkpt lat="48.89828" lon="2.09844">
        <ele>90</ele>
        <time>2012-11-24T13:19:39Z</time>
      </trkpt>
      <trkpt lat="48.89838" lon="2.09844">
        <ele>90</ele>
        <time>2012-11-24T13:19:45Z</time>
      </trkpt>
      <trkpt lat="48.89844" lon="2.09843">
        <ele>90</ele>
        <time>2012-11-24T13:19:50Z</time>
      </trkpt>
      <trkpt lat="48.89849" lon="2.09842">
        <ele>89</ele>
        <time>2012-11-24T13:19:55Z</time>
      </trkpt>
      <trkpt lat="48.89853" lon="2.09839">
        <ele>89</ele>
        <time>2012-11-24T13:19:58Z</time>
      </trkpt>
      <trkpt lat="48.89858" lon="2.09841">
        <ele>89</ele>
        <time>2012-11-24T13:20:01Z</time>
      </trkpt>
      <trkpt lat="48.89862" lon="2.09846">
        <ele>89</ele>
        <time>2012-11-24T13:20:06Z</time>
      </trkpt>
      <trkpt lat="48.89867" lon="2.09852">
        <ele>89</ele>
        <time>2012-11-24T13:20:09Z</time>
      </trkpt>
      <trkpt lat="48.89869" lon="2.0986">
        <ele>89</ele>
        <time>2012-11-24T13:20:14Z</time>
      </trkpt>
      <trkpt lat="48.89872" lon="2.09866">
        <ele>89</ele>
        <time>2012-11-24T13:20:19Z</time>
      </trkpt>
      <trkpt lat="48.89876" lon="2.09871">
        <ele>89</ele>
        <time>2012-11-24T13:20:24Z</time>
      </trkpt>
      <trkpt lat="48.8988" lon="2.09876">
        <ele>89</ele>
        <time>2012-11-24T13:20:29Z</time>
      </trkpt>
      <trkpt lat="48.89888" lon="2.09885">
        <ele>89</ele>
        <time>2012-11-24T13:20:36Z</time>
      </trkpt>
      <trkpt lat="48.89891" lon="2.09891">
        <ele>89</ele>
        <time>2012-11-24T13:20:41Z</time>
      </trkpt>
      <trkpt lat="48.89892" lon="2.09899">
        <ele>89</ele>
        <time>2012-11-24T13:20:46Z</time>
      </trkpt>
      <trkpt lat="48.89893" lon="2.09907">
        <ele>89</ele>
        <time>2012-11-24T13:20:49Z</time>
      </trkpt>
      <trkpt lat="48.89893" lon="2.09915">
        <ele>89</ele>
        <time>2012-11-24T13:20:54Z</time>
      </trkpt>
      <trkpt lat="48.89895" lon="2.09923">
        <ele>89</ele>
        <time>2012-11-24T13:20:59Z</time>
      </trkpt>
      <trkpt lat="48.89898" lon="2.09929">
        <ele>89</ele>
        <time>2012-11-24T13:21:03Z</time>
      </trkpt>
      <trkpt lat="48.89899" lon="2.09936">
        <ele>89</ele>
        <time>2012-11-24T13:21:07Z</time>
      </trkpt>
      <trkpt lat="48.89902" lon="2.09942">
        <ele>89</ele>
        <time>2012-11-24T13:21:11Z</time>
      </trkpt>
      <trkpt lat="48.89905" lon="2.09949">
        <ele>89</ele>
        <time>2012-11-24T13:21:14Z</time>
      </trkpt>
      <trkpt lat="48.89908" lon="2.09956">
        <ele>89</ele>
        <time>2012-11-24T13:21:18Z</time>
      </trkpt>
      <trkpt lat="48.89909" lon="2.09963">
        <ele>89</ele>
        <time>2012-11-24T13:21:23Z</time>
      </trkpt>
      <trkpt lat="48.89911" lon="2.09972">
        <ele>89</ele>
        <time>2012-11-24T13:21:28Z</time>
      </trkpt>
      <trkpt lat="48.89913" lon="2.09979">
        <ele>89</ele>
        <time>2012-11-24T13:21:32Z</time>
      </trkpt>
      <trkpt lat="48.89914" lon="2.09986">
        <ele>89</ele>
        <time>2012-11-24T13:21:36Z</time>
      </trkpt>
      <trkpt lat="48.89918" lon="2.09998">
        <ele>89</ele>
        <time>2012-11-24T13:21:44Z</time>
      </trkpt>
      <trkpt lat="48.8992" lon="2.10006">
        <ele>88</ele>
        <time>2012-11-24T13:21:48Z</time>
      </trkpt>
      <trkpt lat="48.89922" lon="2.10013">
        <ele>87</ele>
        <time>2012-11-24T13:21:52Z</time>
      </trkpt>
      <trkpt lat="48.89927" lon="2.10016">
        <ele>87</ele>
        <time>2012-11-24T13:21:56Z</time>
      </trkpt>
      <trkpt lat="48.89931" lon="2.10022">
        <ele>86</ele>
        <time>2012-11-24T13:22:01Z</time>
      </trkpt>
      <trkpt lat="48.89936" lon="2.10026">
        <ele>86</ele>
        <time>2012-11-24T13:22:06Z</time>
      </trkpt>
      <trkpt lat="48.89941" lon="2.10029">
        <ele>86</ele>
        <time>2012-11-24T13:22:11Z</time>
      </trkpt>
      <trkpt lat="48.89946" lon="2.10032">
        <ele>85</ele>
        <time>2012-11-24T13:22:14Z</time>
      </trkpt>
      <trkpt lat="48.8995" lon="2.10036">
        <ele>85</ele>
        <time>2012-11-24T13:22:18Z</time>
      </trkpt>
      <trkpt lat="48.89954" lon="2.10038">
        <ele>85</ele>
        <time>2012-11-24T13:22:22Z</time>
      </trkpt>
      <trkpt lat="48.89959" lon="2.1004">
        <ele>85</ele>
        <time>2012-11-24T13:22:26Z</time>
      </trkpt>
      <trkpt lat="48.89964" lon="2.10043">
        <ele>85</ele>
        <time>2012-11-24T13:22:30Z</time>
      </trkpt>
      <trkpt lat="48.89968" lon="2.10047">
        <ele>85</ele>
        <time>2012-11-24T13:22:35Z</time>
      </trkpt>
      <trkpt lat="48.89973" lon="2.10048">
        <ele>85</ele>
        <time>2012-11-24T13:22:38Z</time>
      </trkpt>
      <trkpt lat="48.89978" lon="2.10048">
        <ele>85</ele>
        <time>2012-11-24T13:22:42Z</time>
      </trkpt>
      <trkpt lat="48.89982" lon="2.10042">
        <ele>85</ele>
        <time>2012-11-24T13:22:47Z</time>
      </trkpt>
      <trkpt lat="48.89985" lon="2.10038">
        <ele>85</ele>
        <time>2012-11-24T13:22:51Z</time>
      </trkpt>
      <trkpt lat="48.8999" lon="2.10039">
        <ele>85</ele>
        <time>2012-11-24T13:23:00Z</time>
      </trkpt>
      <trkpt lat="48.89994" lon="2.10041">
        <ele>85</ele>
        <time>2012-11-24T13:23:07Z</time>
      </trkpt>
      <trkpt lat="48.89999" lon="2.10043">
        <ele>85</ele>
        <time>2012-11-24T13:23:12Z</time>
      </trkpt>
      <trkpt lat="48.90004" lon="2.10043">
        <ele>84</ele>
        <time>2012-11-24T13:23:16Z</time>
      </trkpt>
      <trkpt lat="48.90009" lon="2.10043">
        <ele>84</ele>
        <time>2012-11-24T13:23:20Z</time>
      </trkpt>
      <trkpt lat="48.90015" lon="2.10043">
        <ele>84</ele>
        <time>2012-11-24T13:23:25Z</time>
      </trkpt>
      <trkpt lat="48.90019" lon="2.10044">
        <ele>84</ele>
        <time>2012-11-24T13:23:30Z</time>
      </trkpt>
      <trkpt lat="48.90025" lon="2.10042">
        <ele>84</ele>
        <time>2012-11-24T13:23:35Z</time>
      </trkpt>
      <trkpt lat="48.90031" lon="2.10045">
        <ele>84</ele>
        <time>2012-11-24T13:23:40Z</time>
      </trkpt>
      <trkpt lat="48.90035" lon="2.10048">
        <ele>84</ele>
        <time>2012-11-24T13:23:43Z</time>
      </trkpt>
      <trkpt lat="48.9004" lon="2.1005">
        <ele>84</ele>
        <time>2012-11-24T13:23:48Z</time>
      </trkpt>
      <trkpt lat="48.90045" lon="2.10052">
        <ele>84</ele>
        <time>2012-11-24T13:23:51Z</time>
      </trkpt>
      <trkpt lat="48.90049" lon="2.10051">
        <ele>84</ele>
        <time>2012-11-24T13:23:56Z</time>
      </trkpt>
      <trkpt lat="48.90054" lon="2.10051">
        <ele>84</ele>
        <time>2012-11-24T13:24:01Z</time>
      </trkpt>
      <trkpt lat="48.90064" lon="2.1005">
        <ele>83</ele>
        <time>2012-11-24T13:24:13Z</time>
      </trkpt>
      <trkpt lat="48.90068" lon="2.10045">
        <ele>83</ele>
        <time>2012-11-24T13:24:18Z</time>
      </trkpt>
      <trkpt lat="48.90069" lon="2.10037">
        <ele>83</ele>
        <time>2012-11-24T13:24:24Z</time>
      </trkpt>
      <trkpt lat="48.90071" lon="2.1003">
        <ele>83</ele>
        <time>2012-11-24T13:24:29Z</time>
      </trkpt>
      <trkpt lat="48.90075" lon="2.10024">
        <ele>83</ele>
        <time>2012-11-24T13:24:33Z</time>
      </trkpt>
      <trkpt lat="48.90078" lon="2.10018">
        <ele>83</ele>
        <time>2012-11-24T13:24:37Z</time>
      </trkpt>
      <trkpt lat="48.90088" lon="2.10011">
        <ele>83</ele>
        <time>2012-11-24T13:24:44Z</time>
      </trkpt>
      <trkpt lat="48.90091" lon="2.10005">
        <ele>83</ele>
        <time>2012-11-24T13:24:49Z</time>
      </trkpt>
      <trkpt lat="48.90097" lon="2.10002">
        <ele>83</ele>
        <time>2012-11-24T13:24:55Z</time>
      </trkpt>
      <trkpt lat="48.90101" lon="2.09997">
        <ele>83</ele>
        <time>2012-11-24T13:24:59Z</time>
      </trkpt>
      <trkpt lat="48.90106" lon="2.09995">
        <ele>84</ele>
        <time>2012-11-24T13:25:03Z</time>
      </trkpt>
      <trkpt lat="48.9011" lon="2.09991">
        <ele>84</ele>
        <time>2012-11-24T13:25:07Z</time>
      </trkpt>
      <trkpt lat="48.90114" lon="2.09987">
        <ele>84</ele>
        <time>2012-11-24T13:25:12Z</time>
      </trkpt>
      <trkpt lat="48.90117" lon="2.09981">
        <ele>84</ele>
        <time>2012-11-24T13:25:17Z</time>
      </trkpt>
      <trkpt lat="48.90118" lon="2.09974">
        <ele>84</ele>
        <time>2012-11-24T13:25:23Z</time>
      </trkpt>
      <trkpt lat="48.90116" lon="2.09967">
        <ele>84</ele>
        <time>2012-11-24T13:25:26Z</time>
      </trkpt>
      <trkpt lat="48.90118" lon="2.09958">
        <ele>84</ele>
        <time>2012-11-24T13:25:31Z</time>
      </trkpt>
      <trkpt lat="48.90117" lon="2.09951">
        <ele>84</ele>
        <time>2012-11-24T13:26:29Z</time>
      </trkpt>
      <trkpt lat="48.90121" lon="2.09952">
        <ele>84</ele>
        <time>2012-11-24T13:26:34Z</time>
      </trkpt>
      <trkpt lat="48.90122" lon="2.09946">
        <ele>84</ele>
        <time>2012-11-24T13:27:26Z</time>
      </trkpt>
      <trkpt lat="48.90126" lon="2.0995">
        <ele>84</ele>
        <time>2012-11-24T13:28:39Z</time>
      </trkpt>
      <trkpt lat="48.90122" lon="2.09956">
        <ele>84</ele>
        <time>2012-11-24T13:28:48Z</time>
      </trkpt>
      <trkpt lat="48.90118" lon="2.0996">
        <ele>84</ele>
        <time>2012-11-24T13:29:23Z</time>
      </trkpt>
      <trkpt lat="48.90116" lon="2.09972">
        <ele>84</ele>
        <time>2012-11-24T13:46:22Z</time>
      </trkpt>
      <trkpt lat="48.90117" lon="2.09979">
        <ele>84</ele>
        <time>2012-11-24T13:46:26Z</time>
      </trkpt>
      <trkpt lat="48.90116" lon="2.09978">
        <ele>84</ele>
        <time>2012-11-24T13:46:48Z</time>
      </trkpt>
      <trkpt lat="48.90115" lon="2.0997">
        <ele>84</ele>
        <time>2012-11-24T13:46:50Z</time>
      </trkpt>
      <trkpt lat="48.90112" lon="2.09954">
        <ele>84</ele>
        <time>2012-11-24T13:47:01Z</time>
      </trkpt>
      <trkpt lat="48.90113" lon="2.09945">
        <ele>84</ele>
        <time>2012-11-24T13:47:03Z</time>
      </trkpt>
      <trkpt lat="48.90114" lon="2.09938">
        <ele>84</ele>
        <time>2012-11-24T13:47:05Z</time>
      </trkpt>
      <trkpt lat="48.90115" lon="2.0993">
        <ele>84</ele>
        <time>2012-11-24T13:47:18Z</time>
      </trkpt>
      <trkpt lat="48.90113" lon="2.09921">
        <ele>84</ele>
        <time>2012-11-24T13:47:21Z</time>
      </trkpt>
      <trkpt lat="48.90112" lon="2.09913">
        <ele>84</ele>
        <time>2012-11-24T13:47:27Z</time>
      </trkpt>
      <trkpt lat="48.90113" lon="2.09906">
        <ele>84</ele>
        <time>2012-11-24T13:47:30Z</time>
      </trkpt>
      <trkpt lat="48.90114" lon="2.09897">
        <ele>84</ele>
        <time>2012-11-24T13:47:33Z</time>
      </trkpt>
      <trkpt lat="48.90115" lon="2.09891">
        <ele>84</ele>
        <time>2012-11-24T13:47:39Z</time>
      </trkpt>
      <trkpt lat="48.90114" lon="2.09884">
        <ele>84</ele>
        <time>2012-11-24T13:47:49Z</time>
      </trkpt>
      <trkpt lat="48.90113" lon="2.09891">
        <ele>84</ele>
        <time>2012-11-24T13:48:12Z</time>
      </trkpt>
      <trkpt lat="48.90113" lon="2.09899">
        <ele>84</ele>
        <time>2012-11-24T13:48:16Z</time>
      </trkpt>
      <trkpt lat="48.90113" lon="2.09909">
        <ele>84</ele>
        <time>2012-11-24T13:48:19Z</time>
      </trkpt>
      <trkpt lat="48.90114" lon="2.09919">
        <ele>84</ele>
        <time>2012-11-24T13:48:22Z</time>
      </trkpt>
      <trkpt lat="48.90115" lon="2.09926">
        <ele>84</ele>
        <time>2012-11-24T13:48:27Z</time>
      </trkpt>
      <trkpt lat="48.90115" lon="2.09934">
        <ele>84</ele>
        <time>2012-11-24T13:48:31Z</time>
      </trkpt>
      <trkpt lat="48.90114" lon="2.09944">
        <ele>84</ele>
        <time>2012-11-24T13:48:34Z</time>
      </trkpt>
      <trkpt lat="48.90115" lon="2.09951">
        <ele>84</ele>
        <time>2012-11-24T13:48:38Z</time>
      </trkpt>
      <trkpt lat="48.90118" lon="2.09959">
        <ele>84</ele>
        <time>2012-11-24T13:48:56Z</time>
      </trkpt>
      <trkpt lat="48.90115" lon="2.09964">
        <ele>84</ele>
        <time>2012-11-24T13:49:31Z</time>
      </trkpt>
      <trkpt lat="48.90115" lon="2.09963">
        <ele>84</ele>
        <time>2012-11-24T13:55:45Z</time>
      </trkpt>
      <trkpt lat="48.90117" lon="2.09977">
        <ele>84</ele>
        <time>2012-11-24T13:57:00Z</time>
      </trkpt>
      <trkpt lat="48.90115" lon="2.09984">
        <ele>84</ele>
        <time>2012-11-24T13:58:13Z</time>
      </trkpt>
      <trkpt lat="48.90116" lon="2.09991">
        <ele>84</ele>
        <time>2012-11-24T13:58:20Z</time>
      </trkpt>
      <trkpt lat="48.90119" lon="2.09997">
        <ele>84</ele>
        <time>2012-11-24T13:58:35Z</time>
      </trkpt>
      <trkpt lat="48.90123" lon="2.09999">
        <ele>84</ele>
        <time>2012-11-24T13:58:42Z</time>
      </trkpt>
      <trkpt lat="48.90128" lon="2.10001">
        <ele>85</ele>
        <time>2012-11-24T13:58:47Z</time>
      </trkpt>
      <trkpt lat="48.90133" lon="2.10003">
        <ele>85</ele>
        <time>2012-11-24T13:58:52Z</time>
      </trkpt>
      <trkpt lat="48.90137" lon="2.10006">
        <ele>85</ele>
        <time>2012-11-24T13:58:57Z</time>
      </trkpt>
      <trkpt lat="48.90141" lon="2.1001">
        <ele>86</ele>
        <time>2012-11-24T13:59:02Z</time>
      </trkpt>
      <trkpt lat="48.90144" lon="2.10016">
        <ele>86</ele>
        <time>2012-11-24T13:59:08Z</time>
      </trkpt>
      <trkpt lat="48.90147" lon="2.10021">
        <ele>86</ele>
        <time>2012-11-24T13:59:13Z</time>
      </trkpt>
      <trkpt lat="48.9015" lon="2.10029">
        <ele>86</ele>
        <time>2012-11-24T13:59:20Z</time>
      </trkpt>
      <trkpt lat="48.90153" lon="2.10034">
        <ele>86</ele>
        <time>2012-11-24T13:59:27Z</time>
      </trkpt>
      <trkpt lat="48.90157" lon="2.10039">
        <ele>86</ele>
        <time>2012-11-24T13:59:32Z</time>
      </trkpt>
      <trkpt lat="48.90159" lon="2.10046">
        <ele>85</ele>
        <time>2012-11-24T13:59:38Z</time>
      </trkpt>
      <trkpt lat="48.90158" lon="2.10053">
        <ele>85</ele>
        <time>2012-11-24T13:59:43Z</time>
      </trkpt>
      <trkpt lat="48.90159" lon="2.10061">
        <ele>85</ele>
        <time>2012-11-24T13:59:49Z</time>
      </trkpt>
      <trkpt lat="48.90162" lon="2.10069">
        <ele>86</ele>
        <time>2012-11-24T13:59:54Z</time>
      </trkpt>
      <trkpt lat="48.90164" lon="2.10075">
        <ele>86</ele>
        <time>2012-11-24T13:59:59Z</time>
      </trkpt>
      <trkpt lat="48.90168" lon="2.10081">
        <ele>86</ele>
        <time>2012-11-24T14:00:04Z</time>
      </trkpt>
      <trkpt lat="48.90171" lon="2.10086">
        <ele>85</ele>
        <time>2012-11-24T14:00:09Z</time>
      </trkpt>
      <trkpt lat="48.90176" lon="2.10091">
        <ele>84</ele>
        <time>2012-11-24T14:00:14Z</time>
      </trkpt>
      <trkpt lat="48.9018" lon="2.10093">
        <ele>84</ele>
        <time>2012-11-24T14:00:19Z</time>
      </trkpt>
      <trkpt lat="48.90185" lon="2.10094">
        <ele>84</ele>
        <time>2012-11-24T14:00:24Z</time>
      </trkpt>
      <trkpt lat="48.9019" lon="2.10097">
        <ele>83</ele>
        <time>2012-11-24T14:00:28Z</time>
      </trkpt>
      <trkpt lat="48.90195" lon="2.101">
        <ele>83</ele>
        <time>2012-11-24T14:00:32Z</time>
      </trkpt>
      <trkpt lat="48.902" lon="2.10102">
        <ele>83</ele>
        <time>2012-11-24T14:00:37Z</time>
      </trkpt>
      <trkpt lat="48.90205" lon="2.10106">
        <ele>83</ele>
        <time>2012-11-24T14:00:42Z</time>
      </trkpt>
      <trkpt lat="48.90209" lon="2.10107">
        <ele>83</ele>
        <time>2012-11-24T14:00:46Z</time>
      </trkpt>
      <trkpt lat="48.90218" lon="2.10113">
        <ele>82</ele>
        <time>2012-11-24T14:00:54Z</time>
      </trkpt>
      <trkpt lat="48.90223" lon="2.10116">
        <ele>82</ele>
        <time>2012-11-24T14:00:58Z</time>
      </trkpt>
      <trkpt lat="48.90227" lon="2.1012">
        <ele>82</ele>
        <time>2012-11-24T14:01:03Z</time>
      </trkpt>
      <trkpt lat="48.90232" lon="2.10122">
        <ele>82</ele>
        <time>2012-11-24T14:01:07Z</time>
      </trkpt>
      <trkpt lat="48.90237" lon="2.10124">
        <ele>82</ele>
        <time>2012-11-24T14:01:12Z</time>
      </trkpt>
      <trkpt lat="48.90243" lon="2.10127">
        <ele>82</ele>
        <time>2012-11-24T14:01:17Z</time>
      </trkpt>
      <trkpt lat="48.90247" lon="2.10127">
        <ele>82</ele>
        <time>2012-11-24T14:01:21Z</time>
      </trkpt>
      <trkpt lat="48.90252" lon="2.10131">
        <ele>81</ele>
        <time>2012-11-24T14:01:26Z</time>
      </trkpt>
      <trkpt lat="48.90257" lon="2.10132">
        <ele>81</ele>
        <time>2012-11-24T14:01:30Z</time>
      </trkpt>
      <trkpt lat="48.90261" lon="2.10134">
        <ele>81</ele>
        <time>2012-11-24T14:01:35Z</time>
      </trkpt>
      <trkpt lat="48.90266" lon="2.10136">
        <ele>81</ele>
        <time>2012-11-24T14:01:40Z</time>
      </trkpt>
      <trkpt lat="48.90271" lon="2.10138">
        <ele>81</ele>
        <time>2012-11-24T14:01:45Z</time>
      </trkpt>
      <trkpt lat="48.90276" lon="2.1014">
        <ele>81</ele>
        <time>2012-11-24T14:01:50Z</time>
      </trkpt>
      <trkpt lat="48.9028" lon="2.10143">
        <ele>81</ele>
        <time>2012-11-24T14:01:54Z</time>
      </trkpt>
      <trkpt lat="48.90285" lon="2.10145">
        <ele>81</ele>
        <time>2012-11-24T14:01:59Z</time>
      </trkpt>
      <trkpt lat="48.9029" lon="2.10149">
        <ele>81</ele>
        <time>2012-11-24T14:02:04Z</time>
      </trkpt>
      <trkpt lat="48.90295" lon="2.10151">
        <ele>81</ele>
        <time>2012-11-24T14:02:09Z</time>
      </trkpt>
      <trkpt lat="48.90299" lon="2.10154">
        <ele>81</ele>
        <time>2012-11-24T14:02:13Z</time>
      </trkpt>
      <trkpt lat="48.90304" lon="2.10156">
        <ele>80</ele>
        <time>2012-11-24T14:02:17Z</time>
      </trkpt>
      <trkpt lat="48.90309" lon="2.10157">
        <ele>80</ele>
        <time>2012-11-24T14:02:21Z</time>
      </trkpt>
      <trkpt lat="48.90314" lon="2.10159">
        <ele>80</ele>
        <time>2012-11-24T14:02:25Z</time>
      </trkpt>
      <trkpt lat="48.9032" lon="2.10161">
        <ele>80</ele>
        <time>2012-11-24T14:02:30Z</time>
      </trkpt>
      <trkpt lat="48.90324" lon="2.10163">
        <ele>80</ele>
        <time>2012-11-24T14:02:34Z</time>
      </trkpt>
      <trkpt lat="48.90329" lon="2.10166">
        <ele>79</ele>
        <time>2012-11-24T14:02:38Z</time>
      </trkpt>
      <trkpt lat="48.90334" lon="2.10169">
        <ele>79</ele>
        <time>2012-11-24T14:02:43Z</time>
      </trkpt>
      <trkpt lat="48.90339" lon="2.10171">
        <ele>78</ele>
        <time>2012-11-24T14:02:47Z</time>
      </trkpt>
      <trkpt lat="48.90344" lon="2.10173">
        <ele>77</ele>
        <time>2012-11-24T14:02:52Z</time>
      </trkpt>
      <trkpt lat="48.90349" lon="2.10175">
        <ele>76</ele>
        <time>2012-11-24T14:02:56Z</time>
      </trkpt>
      <trkpt lat="48.90354" lon="2.10177">
        <ele>76</ele>
        <time>2012-11-24T14:03:01Z</time>
      </trkpt>
      <trkpt lat="48.90359" lon="2.10179">
        <ele>76</ele>
        <time>2012-11-24T14:03:06Z</time>
      </trkpt>
      <trkpt lat="48.90363" lon="2.10182">
        <ele>75</ele>
        <time>2012-11-24T14:03:10Z</time>
      </trkpt>
      <trkpt lat="48.90368" lon="2.10184">
        <ele>75</ele>
        <time>2012-11-24T14:03:14Z</time>
      </trkpt>
      <trkpt lat="48.90373" lon="2.10187">
        <ele>75</ele>
        <time>2012-11-24T14:03:19Z</time>
      </trkpt>
      <trkpt lat="48.90378" lon="2.1019">
        <ele>75</ele>
        <time>2012-11-24T14:03:24Z</time>
      </trkpt>
      <trkpt lat="48.90384" lon="2.10193">
        <ele>74</ele>
        <time>2012-11-24T14:03:29Z</time>
      </trkpt>
      <trkpt lat="48.90388" lon="2.10195">
        <ele>74</ele>
        <time>2012-11-24T14:03:34Z</time>
      </trkpt>
      <trkpt lat="48.90393" lon="2.10198">
        <ele>74</ele>
        <time>2012-11-24T14:03:38Z</time>
      </trkpt>
      <trkpt lat="48.90398" lon="2.102">
        <ele>74</ele>
        <time>2012-11-24T14:03:42Z</time>
      </trkpt>
      <trkpt lat="48.90407" lon="2.10204">
        <ele>74</ele>
        <time>2012-11-24T14:03:51Z</time>
      </trkpt>
      <trkpt lat="48.90412" lon="2.10207">
        <ele>74</ele>
        <time>2012-11-24T14:03:56Z</time>
      </trkpt>
      <trkpt lat="48.90417" lon="2.10209">
        <ele>75</ele>
        <time>2012-11-24T14:04:01Z</time>
      </trkpt>
      <trkpt lat="48.90422" lon="2.10212">
        <ele>74</ele>
        <time>2012-11-24T14:04:07Z</time>
      </trkpt>
      <trkpt lat="48.90431" lon="2.10215">
        <ele>74</ele>
        <time>2012-11-24T14:04:14Z</time>
      </trkpt>
      <trkpt lat="48.90435" lon="2.10219">
        <ele>74</ele>
        <time>2012-11-24T14:04:18Z</time>
      </trkpt>
      <trkpt lat="48.9044" lon="2.10222">
        <ele>74</ele>
        <time>2012-11-24T14:04:23Z</time>
      </trkpt>
      <trkpt lat="48.9045" lon="2.10225">
        <ele>74</ele>
        <time>2012-11-24T14:04:32Z</time>
      </trkpt>
      <trkpt lat="48.90455" lon="2.10227">
        <ele>74</ele>
        <time>2012-11-24T14:04:37Z</time>
      </trkpt>
      <trkpt lat="48.9046" lon="2.1023">
        <ele>74</ele>
        <time>2012-11-24T14:04:42Z</time>
      </trkpt>
      <trkpt lat="48.90464" lon="2.10233">
        <ele>75</ele>
        <time>2012-11-24T14:04:45Z</time>
      </trkpt>
      <trkpt lat="48.90469" lon="2.10235">
        <ele>75</ele>
        <time>2012-11-24T14:04:48Z</time>
      </trkpt>
      <trkpt lat="48.90474" lon="2.10237">
        <ele>75</ele>
        <time>2012-11-24T14:04:53Z</time>
      </trkpt>
      <trkpt lat="48.90479" lon="2.10239">
        <ele>75</ele>
        <time>2012-11-24T14:04:57Z</time>
      </trkpt>
      <trkpt lat="48.90484" lon="2.10243">
        <ele>75</ele>
        <time>2012-11-24T14:05:02Z</time>
      </trkpt>
      <trkpt lat="48.90489" lon="2.10245">
        <ele>74</ele>
        <time>2012-11-24T14:05:08Z</time>
      </trkpt>
      <trkpt lat="48.90494" lon="2.10247">
        <ele>74</ele>
        <time>2012-11-24T14:05:13Z</time>
      </trkpt>
      <trkpt lat="48.90499" lon="2.1025">
        <ele>74</ele>
        <time>2012-11-24T14:05:18Z</time>
      </trkpt>
      <trkpt lat="48.90509" lon="2.10252">
        <ele>73</ele>
        <time>2012-11-24T14:05:26Z</time>
      </trkpt>
      <trkpt lat="48.90514" lon="2.10257">
        <ele>73</ele>
        <time>2012-11-24T14:05:31Z</time>
      </trkpt>
      <trkpt lat="48.90518" lon="2.10258">
        <ele>73</ele>
        <time>2012-11-24T14:05:35Z</time>
      </trkpt>
      <trkpt lat="48.90523" lon="2.10261">
        <ele>73</ele>
        <time>2012-11-24T14:05:39Z</time>
      </trkpt>
      <trkpt lat="48.90528" lon="2.10264">
        <ele>72</ele>
        <time>2012-11-24T14:05:46Z</time>
      </trkpt>
      <trkpt lat="48.90533" lon="2.10267">
        <ele>72</ele>
        <time>2012-11-24T14:05:50Z</time>
      </trkpt>
      <trkpt lat="48.90538" lon="2.10269">
        <ele>72</ele>
        <time>2012-11-24T14:05:55Z</time>
      </trkpt>
      <trkpt lat="48.90542" lon="2.10272">
        <ele>72</ele>
        <time>2012-11-24T14:05:59Z</time>
      </trkpt>
      <trkpt lat="48.90547" lon="2.10273">
        <ele>72</ele>
        <time>2012-11-24T14:06:03Z</time>
      </trkpt>
      <trkpt lat="48.90551" lon="2.10276">
        <ele>72</ele>
        <time>2012-11-24T14:06:06Z</time>
      </trkpt>
      <trkpt lat="48.90556" lon="2.10278">
        <ele>72</ele>
        <time>2012-11-24T14:06:10Z</time>
      </trkpt>
      <trkpt lat="48.90561" lon="2.1028">
        <ele>72</ele>
        <time>2012-11-24T14:06:15Z</time>
      </trkpt>
      <trkpt lat="48.90565" lon="2.10283">
        <ele>72</ele>
        <time>2012-11-24T14:06:19Z</time>
      </trkpt>
      <trkpt lat="48.90572" lon="2.10285">
        <ele>72</ele>
        <time>2012-11-24T14:06:24Z</time>
      </trkpt>
      <trkpt lat="48.90577" lon="2.10288">
        <ele>72</ele>
        <time>2012-11-24T14:06:29Z</time>
      </trkpt>
      <trkpt lat="48.90582" lon="2.1029">
        <ele>72</ele>
        <time>2012-11-24T14:06:34Z</time>
      </trkpt>
      <trkpt lat="48.90586" lon="2.10292">
        <ele>73</ele>
        <time>2012-11-24T14:06:38Z</time>
      </trkpt>
      <trkpt lat="48.90596" lon="2.10296">
        <ele>73</ele>
        <time>2012-11-24T14:06:46Z</time>
      </trkpt>
      <trkpt lat="48.90601" lon="2.10298">
        <ele>73</ele>
        <time>2012-11-24T14:06:51Z</time>
      </trkpt>
      <trkpt lat="48.90605" lon="2.103">
        <ele>73</ele>
        <time>2012-11-24T14:06:55Z</time>
      </trkpt>
      <trkpt lat="48.9061" lon="2.10302">
        <ele>73</ele>
        <time>2012-11-24T14:06:59Z</time>
      </trkpt>
      <trkpt lat="48.90615" lon="2.10304">
        <ele>73</ele>
        <time>2012-11-24T14:07:04Z</time>
      </trkpt>
      <trkpt lat="48.9062" lon="2.10307">
        <ele>73</ele>
        <time>2012-11-24T14:07:08Z</time>
      </trkpt>
      <trkpt lat="48.90624" lon="2.10311">
        <ele>73</ele>
        <time>2012-11-24T14:07:12Z</time>
      </trkpt>
      <trkpt lat="48.90628" lon="2.10315">
        <ele>73</ele>
        <time>2012-11-24T14:07:16Z</time>
      </trkpt>
      <trkpt lat="48.90633" lon="2.10316">
        <ele>73</ele>
        <time>2012-11-24T14:07:20Z</time>
      </trkpt>
      <trkpt lat="48.90637" lon="2.10319">
        <ele>73</ele>
        <time>2012-11-24T14:07:24Z</time>
      </trkpt>
      <trkpt lat="48.90643" lon="2.10322">
        <ele>73</ele>
        <time>2012-11-24T14:07:29Z</time>
      </trkpt>
      <trkpt lat="48.90648" lon="2.10325">
        <ele>73</ele>
        <time>2012-11-24T14:07:34Z</time>
      </trkpt>
      <trkpt lat="48.90653" lon="2.10327">
        <ele>73</ele>
        <time>2012-11-24T14:07:39Z</time>
      </trkpt>
      <trkpt lat="48.90657" lon="2.10329">
        <ele>73</ele>
        <time>2012-11-24T14:07:44Z</time>
      </trkpt>
      <trkpt lat="48.90662" lon="2.10332">
        <ele>73</ele>
        <time>2012-11-24T14:07:49Z</time>
      </trkpt>
      <trkpt lat="48.90671" lon="2.10335">
        <ele>73</ele>
        <time>2012-11-24T14:07:56Z</time>
      </trkpt>
      <trkpt lat="48.90676" lon="2.10337">
        <ele>72</ele>
        <time>2012-11-24T14:08:01Z</time>
      </trkpt>
      <trkpt lat="48.90681" lon="2.10339">
        <ele>72</ele>
        <time>2012-11-24T14:08:05Z</time>
      </trkpt>
      <trkpt lat="48.90686" lon="2.1034">
        <ele>72</ele>
        <time>2012-11-24T14:08:09Z</time>
      </trkpt>
      <trkpt lat="48.90691" lon="2.10343">
        <ele>72</ele>
        <time>2012-11-24T14:08:13Z</time>
      </trkpt>
      <trkpt lat="48.90696" lon="2.10346">
        <ele>72</ele>
        <time>2012-11-24T14:08:17Z</time>
      </trkpt>
      <trkpt lat="48.907" lon="2.1035">
        <ele>72</ele>
        <time>2012-11-24T14:08:22Z</time>
      </trkpt>
      <trkpt lat="48.90705" lon="2.10351">
        <ele>72</ele>
        <time>2012-11-24T14:08:26Z</time>
      </trkpt>
      <trkpt lat="48.9071" lon="2.10353">
        <ele>72</ele>
        <time>2012-11-24T14:08:31Z</time>
      </trkpt>
      <trkpt lat="48.90715" lon="2.10357">
        <ele>72</ele>
        <time>2012-11-24T14:08:36Z</time>
      </trkpt>
      <trkpt lat="48.9072" lon="2.10359">
        <ele>72</ele>
        <time>2012-11-24T14:08:40Z</time>
      </trkpt>
      <trkpt lat="48.90729" lon="2.10363">
        <ele>72</ele>
        <time>2012-11-24T14:08:48Z</time>
      </trkpt>
      <trkpt lat="48.90734" lon="2.10366">
        <ele>72</ele>
        <time>2012-11-24T14:08:53Z</time>
      </trkpt>
      <trkpt lat="48.90739" lon="2.10368">
        <ele>72</ele>
        <time>2012-11-24T14:08:57Z</time>
      </trkpt>
      <trkpt lat="48.90748" lon="2.10373">
        <ele>72</ele>
        <time>2012-11-24T14:09:04Z</time>
      </trkpt>
      <trkpt lat="48.90753" lon="2.10375">
        <ele>74</ele>
        <time>2012-11-24T14:09:09Z</time>
      </trkpt>
      <trkpt lat="48.90758" lon="2.10377">
        <ele>74</ele>
        <time>2012-11-24T14:09:13Z</time>
      </trkpt>
      <trkpt lat="48.90762" lon="2.10378">
        <ele>74</ele>
        <time>2012-11-24T14:09:17Z</time>
      </trkpt>
      <trkpt lat="48.90767" lon="2.10382">
        <ele>74</ele>
        <time>2012-11-24T14:09:21Z</time>
      </trkpt>
      <trkpt lat="48.90772" lon="2.10385">
        <ele>74</ele>
        <time>2012-11-24T14:09:26Z</time>
      </trkpt>
      <trkpt lat="48.90777" lon="2.10387">
        <ele>74</ele>
        <time>2012-11-24T14:09:32Z</time>
      </trkpt>
      <trkpt lat="48.90781" lon="2.1039">
        <ele>74</ele>
        <time>2012-11-24T14:09:37Z</time>
      </trkpt>
      <trkpt lat="48.90787" lon="2.10392">
        <ele>74</ele>
        <time>2012-11-24T14:09:41Z</time>
      </trkpt>
      <trkpt lat="48.90791" lon="2.10395">
        <ele>74</ele>
        <time>2012-11-24T14:09:46Z</time>
      </trkpt>
      <trkpt lat="48.90796" lon="2.10398">
        <ele>74</ele>
        <time>2012-11-24T14:09:51Z</time>
      </trkpt>
      <trkpt lat="48.90806" lon="2.10402">
        <ele>74</ele>
        <time>2012-11-24T14:09:58Z</time>
      </trkpt>
      <trkpt lat="48.9081" lon="2.10402">
        <ele>74</ele>
        <time>2012-11-24T14:10:02Z</time>
      </trkpt>
      <trkpt lat="48.90815" lon="2.10404">
        <ele>74</ele>
        <time>2012-11-24T14:10:06Z</time>
      </trkpt>
      <trkpt lat="48.9082" lon="2.10407">
        <ele>74</ele>
        <time>2012-11-24T14:10:10Z</time>
      </trkpt>
      <trkpt lat="48.90825" lon="2.10409">
        <ele>74</ele>
        <time>2012-11-24T14:10:16Z</time>
      </trkpt>
      <trkpt lat="48.90829" lon="2.10413">
        <ele>74</ele>
        <time>2012-11-24T14:10:20Z</time>
      </trkpt>
      <trkpt lat="48.90835" lon="2.10416">
        <ele>74</ele>
        <time>2012-11-24T14:10:24Z</time>
      </trkpt>
      <trkpt lat="48.9084" lon="2.10418">
        <ele>73</ele>
        <time>2012-11-24T14:10:29Z</time>
      </trkpt>
      <trkpt lat="48.90844" lon="2.1042">
        <ele>73</ele>
        <time>2012-11-24T14:10:34Z</time>
      </trkpt>
      <trkpt lat="48.90849" lon="2.10422">
        <ele>73</ele>
        <time>2012-11-24T14:10:38Z</time>
      </trkpt>
      <trkpt lat="48.90854" lon="2.10425">
        <ele>73</ele>
        <time>2012-11-24T14:10:42Z</time>
      </trkpt>
      <trkpt lat="48.90859" lon="2.10428">
        <ele>72</ele>
        <time>2012-11-24T14:10:46Z</time>
      </trkpt>
      <trkpt lat="48.90863" lon="2.1043">
        <ele>72</ele>
        <time>2012-11-24T14:10:50Z</time>
      </trkpt>
      <trkpt lat="48.90869" lon="2.10432">
        <ele>73</ele>
        <time>2012-11-24T14:10:55Z</time>
      </trkpt>
      <trkpt lat="48.90874" lon="2.10434">
        <ele>73</ele>
        <time>2012-11-24T14:11:00Z</time>
      </trkpt>
      <trkpt lat="48.90879" lon="2.10437">
        <ele>73</ele>
        <time>2012-11-24T14:11:05Z</time>
      </trkpt>
      <trkpt lat="48.90884" lon="2.1044">
        <ele>73</ele>
        <time>2012-11-24T14:11:10Z</time>
      </trkpt>
      <trkpt lat="48.90889" lon="2.10442">
        <ele>73</ele>
        <time>2012-11-24T14:11:14Z</time>
      </trkpt>
      <trkpt lat="48.90893" lon="2.10444">
        <ele>73</ele>
        <time>2012-11-24T14:11:18Z</time>
      </trkpt>
      <trkpt lat="48.90898" lon="2.10445">
        <ele>74</ele>
        <time>2012-11-24T14:11:22Z</time>
      </trkpt>
      <trkpt lat="48.90908" lon="2.1045">
        <ele>73</ele>
        <time>2012-11-24T14:11:29Z</time>
      </trkpt>
      <trkpt lat="48.90911" lon="2.10454">
        <ele>73</ele>
        <time>2012-11-24T14:11:34Z</time>
      </trkpt>
      <trkpt lat="48.90917" lon="2.10455">
        <ele>77</ele>
        <time>2012-11-24T14:11:39Z</time>
      </trkpt>
      <trkpt lat="48.90922" lon="2.10459">
        <ele>76</ele>
        <time>2012-11-24T14:11:44Z</time>
      </trkpt>
      <trkpt lat="48.90926" lon="2.10461">
        <ele>76</ele>
        <time>2012-11-24T14:11:49Z</time>
      </trkpt>
      <trkpt lat="48.90932" lon="2.10465">
        <ele>76</ele>
        <time>2012-11-24T14:11:54Z</time>
      </trkpt>
      <trkpt lat="48.90937" lon="2.10467">
        <ele>76</ele>
        <time>2012-11-24T14:11:58Z</time>
      </trkpt>
      <trkpt lat="48.90942" lon="2.10468">
        <ele>76</ele>
        <time>2012-11-24T14:12:03Z</time>
      </trkpt>
      <trkpt lat="48.90947" lon="2.1047">
        <ele>76</ele>
        <time>2012-11-24T14:12:08Z</time>
      </trkpt>
      <trkpt lat="48.90952" lon="2.10472">
        <ele>76</ele>
        <time>2012-11-24T14:12:13Z</time>
      </trkpt>
      <trkpt lat="48.90956" lon="2.10474">
        <ele>76</ele>
        <time>2012-11-24T14:12:17Z</time>
      </trkpt>
      <trkpt lat="48.9096" lon="2.10476">
        <ele>76</ele>
        <time>2012-11-24T14:12:21Z</time>
      </trkpt>
      <trkpt lat="48.90965" lon="2.1048">
        <ele>76</ele>
        <time>2012-11-24T14:12:26Z</time>
      </trkpt>
      <trkpt lat="48.9097" lon="2.10482">
        <ele>76</ele>
        <time>2012-11-24T14:12:30Z</time>
      </trkpt>
      <trkpt lat="48.90975" lon="2.10484">
        <ele>76</ele>
        <time>2012-11-24T14:12:34Z</time>
      </trkpt>
      <trkpt lat="48.9098" lon="2.10486">
        <ele>76</ele>
        <time>2012-11-24T14:12:39Z</time>
      </trkpt>
      <trkpt lat="48.90989" lon="2.10491">
        <ele>75</ele>
        <time>2012-11-24T14:12:48Z</time>
      </trkpt>
      <trkpt lat="48.90994" lon="2.10493">
        <ele>75</ele>
        <time>2012-11-24T14:12:54Z</time>
      </trkpt>
      <trkpt lat="48.90998" lon="2.10496">
        <ele>74</ele>
        <time>2012-11-24T14:12:58Z</time>
      </trkpt>
      <trkpt lat="48.91004" lon="2.10498">
        <ele>75</ele>
        <time>2012-11-24T14:13:03Z</time>
      </trkpt>
      <trkpt lat="48.9101" lon="2.10501">
        <ele>72</ele>
        <time>2012-11-24T14:13:08Z</time>
      </trkpt>
      <trkpt lat="48.91016" lon="2.10504">
        <ele>71</ele>
        <time>2012-11-24T14:13:13Z</time>
      </trkpt>
      <trkpt lat="48.9102" lon="2.10504">
        <ele>71</ele>
        <time>2012-11-24T14:13:17Z</time>
      </trkpt>
      <trkpt lat="48.91029" lon="2.10509">
        <ele>70</ele>
        <time>2012-11-24T14:13:24Z</time>
      </trkpt>
      <trkpt lat="48.91034" lon="2.10512">
        <ele>70</ele>
        <time>2012-11-24T14:13:29Z</time>
      </trkpt>
      <trkpt lat="48.91039" lon="2.10515">
        <ele>70</ele>
        <time>2012-11-24T14:13:34Z</time>
      </trkpt>
      <trkpt lat="48.91043" lon="2.10518">
        <ele>70</ele>
        <time>2012-11-24T14:13:39Z</time>
      </trkpt>
      <trkpt lat="48.91049" lon="2.1052">
        <ele>70</ele>
        <time>2012-11-24T14:13:45Z</time>
      </trkpt>
      <trkpt lat="48.91054" lon="2.10522">
        <ele>70</ele>
        <time>2012-11-24T14:13:49Z</time>
      </trkpt>
      <trkpt lat="48.91059" lon="2.10523">
        <ele>70</ele>
        <time>2012-11-24T14:13:53Z</time>
      </trkpt>
      <trkpt lat="48.91068" lon="2.10528">
        <ele>70</ele>
        <time>2012-11-24T14:14:01Z</time>
      </trkpt>
      <trkpt lat="48.91073" lon="2.10531">
        <ele>70</ele>
        <time>2012-11-24T14:14:06Z</time>
      </trkpt>
      <trkpt lat="48.91077" lon="2.10534">
        <ele>70</ele>
        <time>2012-11-24T14:14:10Z</time>
      </trkpt>
      <trkpt lat="48.91082" lon="2.10538">
        <ele>69</ele>
        <time>2012-11-24T14:14:16Z</time>
      </trkpt>
      <trkpt lat="48.91087" lon="2.10541">
        <ele>71</ele>
        <time>2012-11-24T14:14:21Z</time>
      </trkpt>
      <trkpt lat="48.91092" lon="2.10543">
        <ele>71</ele>
        <time>2012-11-24T14:14:25Z</time>
      </trkpt>
      <trkpt lat="48.91096" lon="2.10545">
        <ele>71</ele>
        <time>2012-11-24T14:14:29Z</time>
      </trkpt>
      <trkpt lat="48.91101" lon="2.10546">
        <ele>71</ele>
        <time>2012-11-24T14:14:34Z</time>
      </trkpt>
      <trkpt lat="48.91106" lon="2.10549">
        <ele>71</ele>
        <time>2012-11-24T14:14:39Z</time>
      </trkpt>
      <trkpt lat="48.91111" lon="2.10551">
        <ele>71</ele>
        <time>2012-11-24T14:14:43Z</time>
      </trkpt>
      <trkpt lat="48.91115" lon="2.10554">
        <ele>71</ele>
        <time>2012-11-24T14:14:48Z</time>
      </trkpt>
      <trkpt lat="48.9112" lon="2.10557">
        <ele>71</ele>
        <time>2012-11-24T14:14:52Z</time>
      </trkpt>
      <trkpt lat="48.91125" lon="2.10558">
        <ele>71</ele>
        <time>2012-11-24T14:14:56Z</time>
      </trkpt>
      <trkpt lat="48.9113" lon="2.1056">
        <ele>71</ele>
        <time>2012-11-24T14:15:01Z</time>
      </trkpt>
      <trkpt lat="48.91135" lon="2.10564">
        <ele>71</ele>
        <time>2012-11-24T14:15:06Z</time>
      </trkpt>
      <trkpt lat="48.9114" lon="2.10566">
        <ele>70</ele>
        <time>2012-11-24T14:15:11Z</time>
      </trkpt>
      <trkpt lat="48.91145" lon="2.10569">
        <ele>70</ele>
        <time>2012-11-24T14:15:15Z</time>
      </trkpt>
      <trkpt lat="48.9115" lon="2.10568">
        <ele>70</ele>
        <time>2012-11-24T14:15:19Z</time>
      </trkpt>
      <trkpt lat="48.91156" lon="2.10571">
        <ele>70</ele>
        <time>2012-11-24T14:15:24Z</time>
      </trkpt>
      <trkpt lat="48.91161" lon="2.10574">
        <ele>69</ele>
        <time>2012-11-24T14:15:29Z</time>
      </trkpt>
      <trkpt lat="48.91166" lon="2.10578">
        <ele>69</ele>
        <time>2012-11-24T14:15:34Z</time>
      </trkpt>
      <trkpt lat="48.91171" lon="2.10579">
        <ele>69</ele>
        <time>2012-11-24T14:15:38Z</time>
      </trkpt>
      <trkpt lat="48.91175" lon="2.10581">
        <ele>70</ele>
        <time>2012-11-24T14:15:42Z</time>
      </trkpt>
      <trkpt lat="48.9118" lon="2.10583">
        <ele>70</ele>
        <time>2012-11-24T14:15:47Z</time>
      </trkpt>
      <trkpt lat="48.91185" lon="2.10586">
        <ele>66</ele>
        <time>2012-11-24T14:15:53Z</time>
      </trkpt>
      <trkpt lat="48.9119" lon="2.10589">
        <ele>66</ele>
        <time>2012-11-24T14:15:57Z</time>
      </trkpt>
      <trkpt lat="48.91194" lon="2.10592">
        <ele>65</ele>
        <time>2012-11-24T14:16:01Z</time>
      </trkpt>
      <trkpt lat="48.91199" lon="2.10595">
        <ele>65</ele>
        <time>2012-11-24T14:16:06Z</time>
      </trkpt>
      <trkpt lat="48.91204" lon="2.10598">
        <ele>65</ele>
        <time>2012-11-24T14:16:11Z</time>
      </trkpt>
      <trkpt lat="48.91209" lon="2.10601">
        <ele>65</ele>
        <time>2012-11-24T14:16:16Z</time>
      </trkpt>
      <trkpt lat="48.91214" lon="2.10603">
        <ele>65</ele>
        <time>2012-11-24T14:16:20Z</time>
      </trkpt>
      <trkpt lat="48.9122" lon="2.10604">
        <ele>65</ele>
        <time>2012-11-24T14:16:24Z</time>
      </trkpt>
      <trkpt lat="48.91224" lon="2.10607">
        <ele>65</ele>
        <time>2012-11-24T14:16:28Z</time>
      </trkpt>
      <trkpt lat="48.91228" lon="2.10611">
        <ele>65</ele>
        <time>2012-11-24T14:16:32Z</time>
      </trkpt>
      <trkpt lat="48.91234" lon="2.10613">
        <ele>65</ele>
        <time>2012-11-24T14:16:37Z</time>
      </trkpt>
      <trkpt lat="48.91243" lon="2.10616">
        <ele>65</ele>
        <time>2012-11-24T14:16:46Z</time>
      </trkpt>
      <trkpt lat="48.91247" lon="2.10619">
        <ele>65</ele>
        <time>2012-11-24T14:16:49Z</time>
      </trkpt>
      <trkpt lat="48.91253" lon="2.10622">
        <ele>69</ele>
        <time>2012-11-24T14:16:54Z</time>
      </trkpt>
      <trkpt lat="48.91257" lon="2.10624">
        <ele>69</ele>
        <time>2012-11-24T14:16:59Z</time>
      </trkpt>
      <trkpt lat="48.91263" lon="2.10626">
        <ele>69</ele>
        <time>2012-11-24T14:17:04Z</time>
      </trkpt>
      <trkpt lat="48.91267" lon="2.10629">
        <ele>68</ele>
        <time>2012-11-24T14:17:09Z</time>
      </trkpt>
      <trkpt lat="48.91272" lon="2.10631">
        <ele>69</ele>
        <time>2012-11-24T14:17:13Z</time>
      </trkpt>
      <trkpt lat="48.91277" lon="2.10631">
        <ele>69</ele>
        <time>2012-11-24T14:17:17Z</time>
      </trkpt>
      <trkpt lat="48.91282" lon="2.10633">
        <ele>69</ele>
        <time>2012-11-24T14:17:22Z</time>
      </trkpt>
      <trkpt lat="48.91286" lon="2.10632">
        <ele>69</ele>
        <time>2012-11-24T14:17:25Z</time>
      </trkpt>
      <trkpt lat="48.91291" lon="2.10633">
        <ele>69</ele>
        <time>2012-11-24T14:17:29Z</time>
      </trkpt>
      <trkpt lat="48.91296" lon="2.10634">
        <ele>70</ele>
        <time>2012-11-24T14:17:34Z</time>
      </trkpt>
      <trkpt lat="48.91301" lon="2.10636">
        <ele>70</ele>
        <time>2012-11-24T14:17:38Z</time>
      </trkpt>
      <trkpt lat="48.91307" lon="2.10637">
        <ele>70</ele>
        <time>2012-11-24T14:17:42Z</time>
      </trkpt>
      <trkpt lat="48.91312" lon="2.10641">
        <ele>70</ele>
        <time>2012-11-24T14:17:47Z</time>
      </trkpt>
      <trkpt lat="48.91316" lon="2.10644">
        <ele>70</ele>
        <time>2012-11-24T14:17:52Z</time>
      </trkpt>
      <trkpt lat="48.91325" lon="2.1065">
        <ele>70</ele>
        <time>2012-11-24T14:18:01Z</time>
      </trkpt>
      <trkpt lat="48.9133" lon="2.10652">
        <ele>70</ele>
        <time>2012-11-24T14:18:05Z</time>
      </trkpt>
      <trkpt lat="48.91339" lon="2.10657">
        <ele>72</ele>
        <time>2012-11-24T14:18:13Z</time>
      </trkpt>
      <trkpt lat="48.91344" lon="2.1066">
        <ele>72</ele>
        <time>2012-11-24T14:18:18Z</time>
      </trkpt>
      <trkpt lat="48.91349" lon="2.10662">
        <ele>72</ele>
        <time>2012-11-24T14:18:23Z</time>
      </trkpt>
      <trkpt lat="48.91354" lon="2.10665">
        <ele>72</ele>
        <time>2012-11-24T14:18:27Z</time>
      </trkpt>
      <trkpt lat="48.91359" lon="2.10667">
        <ele>72</ele>
        <time>2012-11-24T14:18:31Z</time>
      </trkpt>
      <trkpt lat="48.91364" lon="2.10668">
        <ele>67</ele>
        <time>2012-11-24T14:18:35Z</time>
      </trkpt>
      <trkpt lat="48.91368" lon="2.1067">
        <ele>67</ele>
        <time>2012-11-24T14:18:40Z</time>
      </trkpt>
      <trkpt lat="48.91373" lon="2.10676">
        <ele>67</ele>
        <time>2012-11-24T14:18:54Z</time>
      </trkpt>
      <trkpt lat="48.91378" lon="2.10679">
        <ele>67</ele>
        <time>2012-11-24T14:18:57Z</time>
      </trkpt>
      <trkpt lat="48.91382" lon="2.10681">
        <ele>67</ele>
        <time>2012-11-24T14:19:00Z</time>
      </trkpt>
      <trkpt lat="48.91387" lon="2.10686">
        <ele>67</ele>
        <time>2012-11-24T14:19:03Z</time>
      </trkpt>
      <trkpt lat="48.91391" lon="2.10689">
        <ele>67</ele>
        <time>2012-11-24T14:19:08Z</time>
      </trkpt>
      <trkpt lat="48.91396" lon="2.10691">
        <ele>67</ele>
        <time>2012-11-24T14:19:12Z</time>
      </trkpt>
      <trkpt lat="48.91401" lon="2.10695">
        <ele>67</ele>
        <time>2012-11-24T14:19:16Z</time>
      </trkpt>
      <trkpt lat="48.91407" lon="2.10697">
        <ele>67</ele>
        <time>2012-11-24T14:19:21Z</time>
      </trkpt>
      <trkpt lat="48.91412" lon="2.10698">
        <ele>67</ele>
        <time>2012-11-24T14:19:24Z</time>
      </trkpt>
      <trkpt lat="48.91417" lon="2.10701">
        <ele>69</ele>
        <time>2012-11-24T14:19:28Z</time>
      </trkpt>
      <trkpt lat="48.91422" lon="2.10703">
        <ele>69</ele>
        <time>2012-11-24T14:19:33Z</time>
      </trkpt>
      <trkpt lat="48.91427" lon="2.10706">
        <ele>69</ele>
        <time>2012-11-24T14:19:38Z</time>
      </trkpt>
      <trkpt lat="48.91436" lon="2.10711">
        <ele>69</ele>
        <time>2012-11-24T14:19:45Z</time>
      </trkpt>
      <trkpt lat="48.91441" lon="2.10714">
        <ele>69</ele>
        <time>2012-11-24T14:19:50Z</time>
      </trkpt>
      <trkpt lat="48.91446" lon="2.10716">
        <ele>69</ele>
        <time>2012-11-24T14:19:54Z</time>
      </trkpt>
      <trkpt lat="48.91455" lon="2.10721">
        <ele>69</ele>
        <time>2012-11-24T14:20:04Z</time>
      </trkpt>
      <trkpt lat="48.91459" lon="2.10725">
        <ele>68</ele>
        <time>2012-11-24T14:20:08Z</time>
      </trkpt>
      <trkpt lat="48.91464" lon="2.10726">
        <ele>69</ele>
        <time>2012-11-24T14:20:12Z</time>
      </trkpt>
      <trkpt lat="48.91469" lon="2.10728">
        <ele>69</ele>
        <time>2012-11-24T14:20:17Z</time>
      </trkpt>
      <trkpt lat="48.91474" lon="2.1073">
        <ele>68</ele>
        <time>2012-11-24T14:20:21Z</time>
      </trkpt>
      <trkpt lat="48.9148" lon="2.10733">
        <ele>68</ele>
        <time>2012-11-24T14:20:25Z</time>
      </trkpt>
      <trkpt lat="48.91484" lon="2.10736">
        <ele>68</ele>
        <time>2012-11-24T14:20:29Z</time>
      </trkpt>
      <trkpt lat="48.91489" lon="2.10737">
        <ele>68</ele>
        <time>2012-11-24T14:20:34Z</time>
      </trkpt>
      <trkpt lat="48.91494" lon="2.10741">
        <ele>67</ele>
        <time>2012-11-24T14:20:39Z</time>
      </trkpt>
      <trkpt lat="48.91499" lon="2.10742">
        <ele>67</ele>
        <time>2012-11-24T14:20:43Z</time>
      </trkpt>
      <trkpt lat="48.91504" lon="2.10745">
        <ele>68</ele>
        <time>2012-11-24T14:20:47Z</time>
      </trkpt>
      <trkpt lat="48.91508" lon="2.10747">
        <ele>68</ele>
        <time>2012-11-24T14:20:52Z</time>
      </trkpt>
      <trkpt lat="48.91513" lon="2.10749">
        <ele>69</ele>
        <time>2012-11-24T14:20:57Z</time>
      </trkpt>
      <trkpt lat="48.91518" lon="2.10752">
        <ele>66</ele>
        <time>2012-11-24T14:21:02Z</time>
      </trkpt>
      <trkpt lat="48.91527" lon="2.10754">
        <ele>66</ele>
        <time>2012-11-24T14:21:10Z</time>
      </trkpt>
      <trkpt lat="48.91532" lon="2.10757">
        <ele>66</ele>
        <time>2012-11-24T14:21:15Z</time>
      </trkpt>
      <trkpt lat="48.91536" lon="2.1076">
        <ele>66</ele>
        <time>2012-11-24T14:21:19Z</time>
      </trkpt>
      <trkpt lat="48.91545" lon="2.10763">
        <ele>67</ele>
        <time>2012-11-24T14:21:27Z</time>
      </trkpt>
      <trkpt lat="48.9155" lon="2.10766">
        <ele>67</ele>
        <time>2012-11-24T14:21:32Z</time>
      </trkpt>
      <trkpt lat="48.91554" lon="2.10768">
        <ele>67</ele>
        <time>2012-11-24T14:21:36Z</time>
      </trkpt>
      <trkpt lat="48.91558" lon="2.10771">
        <ele>67</ele>
        <time>2012-11-24T14:21:40Z</time>
      </trkpt>
      <trkpt lat="48.91564" lon="2.10773">
        <ele>67</ele>
        <time>2012-11-24T14:21:45Z</time>
      </trkpt>
      <trkpt lat="48.91569" lon="2.10774">
        <ele>67</ele>
        <time>2012-11-24T14:21:50Z</time>
      </trkpt>
      <trkpt lat="48.91574" lon="2.10777">
        <ele>67</ele>
        <time>2012-11-24T14:21:55Z</time>
      </trkpt>
      <trkpt lat="48.9158" lon="2.1078">
        <ele>67</ele>
        <time>2012-11-24T14:22:00Z</time>
      </trkpt>
      <trkpt lat="48.91586" lon="2.10783">
        <ele>71</ele>
        <time>2012-11-24T14:22:05Z</time>
      </trkpt>
      <trkpt lat="48.91591" lon="2.10786">
        <ele>71</ele>
        <time>2012-11-24T14:22:10Z</time>
      </trkpt>
      <trkpt lat="48.91596" lon="2.10789">
        <ele>71</ele>
        <time>2012-11-24T14:22:15Z</time>
      </trkpt>
      <trkpt lat="48.91601" lon="2.10789">
        <ele>71</ele>
        <time>2012-11-24T14:22:18Z</time>
      </trkpt>
      <trkpt lat="48.91607" lon="2.10793">
        <ele>71</ele>
        <time>2012-11-24T14:22:22Z</time>
      </trkpt>
      <trkpt lat="48.91612" lon="2.10795">
        <ele>71</ele>
        <time>2012-11-24T14:22:27Z</time>
      </trkpt>
      <trkpt lat="48.91617" lon="2.10799">
        <ele>71</ele>
        <time>2012-11-24T14:22:32Z</time>
      </trkpt>
      <trkpt lat="48.91622" lon="2.10803">
        <ele>71</ele>
        <time>2012-11-24T14:22:37Z</time>
      </trkpt>
      <trkpt lat="48.91627" lon="2.10805">
        <ele>71</ele>
        <time>2012-11-24T14:22:42Z</time>
      </trkpt>
      <trkpt lat="48.91633" lon="2.10808">
        <ele>71</ele>
        <time>2012-11-24T14:22:47Z</time>
      </trkpt>
      <trkpt lat="48.91639" lon="2.10811">
        <ele>71</ele>
        <time>2012-11-24T14:22:52Z</time>
      </trkpt>
      <trkpt lat="48.91644" lon="2.10813">
        <ele>71</ele>
        <time>2012-11-24T14:22:56Z</time>
      </trkpt>
      <trkpt lat="48.91648" lon="2.10816">
        <ele>71</ele>
        <time>2012-11-24T14:23:01Z</time>
      </trkpt>
      <trkpt lat="48.91654" lon="2.1082">
        <ele>71</ele>
        <time>2012-11-24T14:23:07Z</time>
      </trkpt>
      <trkpt lat="48.91659" lon="2.10822">
        <ele>71</ele>
        <time>2012-11-24T14:23:11Z</time>
      </trkpt>
      <trkpt lat="48.91664" lon="2.10823">
        <ele>71</ele>
        <time>2012-11-24T14:23:15Z</time>
      </trkpt>
      <trkpt lat="48.91668" lon="2.10826">
        <ele>72</ele>
        <time>2012-11-24T14:23:20Z</time>
      </trkpt>
      <trkpt lat="48.91673" lon="2.10828">
        <ele>72</ele>
        <time>2012-11-24T14:23:24Z</time>
      </trkpt>
      <trkpt lat="48.91678" lon="2.10832">
        <ele>72</ele>
        <time>2012-11-24T14:23:30Z</time>
      </trkpt>
      <trkpt lat="48.91683" lon="2.10834">
        <ele>70</ele>
        <time>2012-11-24T14:23:34Z</time>
      </trkpt>
      <trkpt lat="48.91688" lon="2.10837">
        <ele>70</ele>
        <time>2012-11-24T14:23:39Z</time>
      </trkpt>
      <trkpt lat="48.91696" lon="2.10842">
        <ele>70</ele>
        <time>2012-11-24T14:23:47Z</time>
      </trkpt>
      <trkpt lat="48.91702" lon="2.10843">
        <ele>70</ele>
        <time>2012-11-24T14:23:51Z</time>
      </trkpt>
      <trkpt lat="48.91706" lon="2.10846">
        <ele>70</ele>
        <time>2012-11-24T14:23:55Z</time>
      </trkpt>
      <trkpt lat="48.91711" lon="2.10848">
        <ele>70</ele>
        <time>2012-11-24T14:24:00Z</time>
      </trkpt>
      <trkpt lat="48.91717" lon="2.10851">
        <ele>70</ele>
        <time>2012-11-24T14:24:04Z</time>
      </trkpt>
      <trkpt lat="48.91722" lon="2.10853">
        <ele>70</ele>
        <time>2012-11-24T14:24:08Z</time>
      </trkpt>
      <trkpt lat="48.91727" lon="2.10854">
        <ele>70</ele>
        <time>2012-11-24T14:24:13Z</time>
      </trkpt>
      <trkpt lat="48.91732" lon="2.10857">
        <ele>70</ele>
        <time>2012-11-24T14:24:18Z</time>
      </trkpt>
      <trkpt lat="48.91737" lon="2.10859">
        <ele>70</ele>
        <time>2012-11-24T14:24:22Z</time>
      </trkpt>
      <trkpt lat="48.91745" lon="2.10864">
        <ele>70</ele>
        <time>2012-11-24T14:24:30Z</time>
      </trkpt>
      <trkpt lat="48.9175" lon="2.10869">
        <ele>70</ele>
        <time>2012-11-24T14:24:35Z</time>
      </trkpt>
      <trkpt lat="48.91755" lon="2.10871">
        <ele>71</ele>
        <time>2012-11-24T14:24:39Z</time>
      </trkpt>
      <trkpt lat="48.91759" lon="2.10872">
        <ele>71</ele>
        <time>2012-11-24T14:24:43Z</time>
      </trkpt>
      <trkpt lat="48.91764" lon="2.10874">
        <ele>71</ele>
        <time>2012-11-24T14:24:48Z</time>
      </trkpt>
      <trkpt lat="48.91769" lon="2.10876">
        <ele>71</ele>
        <time>2012-11-24T14:24:52Z</time>
      </trkpt>
      <trkpt lat="48.91774" lon="2.10878">
        <ele>71</ele>
        <time>2012-11-24T14:24:57Z</time>
      </trkpt>
      <trkpt lat="48.91779" lon="2.10881">
        <ele>71</ele>
        <time>2012-11-24T14:25:02Z</time>
      </trkpt>
      <trkpt lat="48.91784" lon="2.10882">
        <ele>71</ele>
        <time>2012-11-24T14:25:06Z</time>
      </trkpt>
      <trkpt lat="48.91793" lon="2.10888">
        <ele>71</ele>
        <time>2012-11-24T14:25:14Z</time>
      </trkpt>
      <trkpt lat="48.91797" lon="2.1089">
        <ele>71</ele>
        <time>2012-11-24T14:25:18Z</time>
      </trkpt>
      <trkpt lat="48.91802" lon="2.10892">
        <ele>71</ele>
        <time>2012-11-24T14:25:22Z</time>
      </trkpt>
      <trkpt lat="48.91811" lon="2.10895">
        <ele>71</ele>
        <time>2012-11-24T14:25:33Z</time>
      </trkpt>
      <trkpt lat="48.91816" lon="2.10897">
        <ele>71</ele>
        <time>2012-11-24T14:25:38Z</time>
      </trkpt>
      <trkpt lat="48.9182" lon="2.10895">
        <ele>71</ele>
        <time>2012-11-24T14:25:43Z</time>
      </trkpt>
      <trkpt lat="48.91824" lon="2.10891">
        <ele>71</ele>
        <time>2012-11-24T14:25:48Z</time>
      </trkpt>
      <trkpt lat="48.91829" lon="2.10887">
        <ele>71</ele>
        <time>2012-11-24T14:25:53Z</time>
      </trkpt>
      <trkpt lat="48.91833" lon="2.10883">
        <ele>71</ele>
        <time>2012-11-24T14:25:58Z</time>
      </trkpt>
      <trkpt lat="48.91838" lon="2.10878">
        <ele>70</ele>
        <time>2012-11-24T14:26:03Z</time>
      </trkpt>
      <trkpt lat="48.91841" lon="2.10873">
        <ele>70</ele>
        <time>2012-11-24T14:26:09Z</time>
      </trkpt>
      <trkpt lat="48.91843" lon="2.10865">
        <ele>70</ele>
        <time>2012-11-24T14:26:13Z</time>
      </trkpt>
      <trkpt lat="48.91844" lon="2.10858">
        <ele>70</ele>
        <time>2012-11-24T14:26:17Z</time>
      </trkpt>
      <trkpt lat="48.91846" lon="2.10851">
        <ele>70</ele>
        <time>2012-11-24T14:26:20Z</time>
      </trkpt>
      <trkpt lat="48.91848" lon="2.10838">
        <ele>71</ele>
        <time>2012-11-24T14:26:30Z</time>
      </trkpt>
      <trkpt lat="48.91846" lon="2.10831">
        <ele>71</ele>
        <time>2012-11-24T14:26:36Z</time>
      </trkpt>
      <trkpt lat="48.91845" lon="2.10823">
        <ele>71</ele>
        <time>2012-11-24T14:26:40Z</time>
      </trkpt>
      <trkpt lat="48.91844" lon="2.10816">
        <ele>71</ele>
        <time>2012-11-24T14:26:48Z</time>
      </trkpt>
      <trkpt lat="48.91841" lon="2.1081">
        <ele>71</ele>
        <time>2012-11-24T14:26:51Z</time>
      </trkpt>
      <trkpt lat="48.9184" lon="2.10801">
        <ele>70</ele>
        <time>2012-11-24T14:26:56Z</time>
      </trkpt>
      <trkpt lat="48.91838" lon="2.10794">
        <ele>70</ele>
        <time>2012-11-24T14:27:00Z</time>
      </trkpt>
      <trkpt lat="48.91835" lon="2.10788">
        <ele>71</ele>
        <time>2012-11-24T14:27:05Z</time>
      </trkpt>
      <trkpt lat="48.91837" lon="2.10781">
        <ele>71</ele>
        <time>2012-11-24T14:27:10Z</time>
      </trkpt>
      <trkpt lat="48.91837" lon="2.10773">
        <ele>71</ele>
        <time>2012-11-24T14:27:19Z</time>
      </trkpt>
      <trkpt lat="48.91834" lon="2.10779">
        <ele>71</ele>
        <time>2012-11-24T14:28:16Z</time>
      </trkpt>
      <trkpt lat="48.91835" lon="2.10771">
        <ele>72</ele>
        <time>2012-11-24T14:28:30Z</time>
      </trkpt>
      <trkpt lat="48.91836" lon="2.10764">
        <ele>72</ele>
        <time>2012-11-24T14:28:36Z</time>
      </trkpt>
      <trkpt lat="48.91838" lon="2.10757">
        <ele>73</ele>
        <time>2012-11-24T14:28:40Z</time>
      </trkpt>
      <trkpt lat="48.91839" lon="2.1075">
        <ele>74</ele>
        <time>2012-11-24T14:28:48Z</time>
      </trkpt>
      <trkpt lat="48.91838" lon="2.10736">
        <ele>72</ele>
        <time>2012-11-24T14:28:56Z</time>
      </trkpt>
      <trkpt lat="48.91839" lon="2.10728">
        <ele>71</ele>
        <time>2012-11-24T14:29:01Z</time>
      </trkpt>
      <trkpt lat="48.91841" lon="2.1072">
        <ele>71</ele>
        <time>2012-11-24T14:29:07Z</time>
      </trkpt>
      <trkpt lat="48.91843" lon="2.10713">
        <ele>70</ele>
        <time>2012-11-24T14:29:12Z</time>
      </trkpt>
      <trkpt lat="48.91844" lon="2.10706">
        <ele>70</ele>
        <time>2012-11-24T14:29:15Z</time>
      </trkpt>
      <trkpt lat="48.91845" lon="2.10699">
        <ele>70</ele>
        <time>2012-11-24T14:29:18Z</time>
      </trkpt>
      <trkpt lat="48.91846" lon="2.10692">
        <ele>70</ele>
        <time>2012-11-24T14:29:24Z</time>
      </trkpt>
      <trkpt lat="48.91848" lon="2.10685">
        <ele>70</ele>
        <time>2012-11-24T14:29:28Z</time>
      </trkpt>
      <trkpt lat="48.9185" lon="2.10678">
        <ele>71</ele>
        <time>2012-11-24T14:29:31Z</time>
      </trkpt>
      <trkpt lat="48.91852" lon="2.10671">
        <ele>71</ele>
        <time>2012-11-24T14:29:35Z</time>
      </trkpt>
      <trkpt lat="48.91853" lon="2.10663">
        <ele>69</ele>
        <time>2012-11-24T14:29:40Z</time>
      </trkpt>
      <trkpt lat="48.91853" lon="2.10655">
        <ele>68</ele>
        <time>2012-11-24T14:29:44Z</time>
      </trkpt>
      <trkpt lat="48.91856" lon="2.10642">
        <ele>67</ele>
        <time>2012-11-24T14:29:53Z</time>
      </trkpt>
      <trkpt lat="48.91859" lon="2.10634">
        <ele>66</ele>
        <time>2012-11-24T14:29:59Z</time>
      </trkpt>
      <trkpt lat="48.91859" lon="2.10627">
        <ele>66</ele>
        <time>2012-11-24T14:30:03Z</time>
      </trkpt>
      <trkpt lat="48.9186" lon="2.10619">
        <ele>66</ele>
        <time>2012-11-24T14:30:06Z</time>
      </trkpt>
      <trkpt lat="48.9186" lon="2.10605">
        <ele>65</ele>
        <time>2012-11-24T14:30:14Z</time>
      </trkpt>
      <trkpt lat="48.9186" lon="2.10597">
        <ele>65</ele>
        <time>2012-11-24T14:30:18Z</time>
      </trkpt>
      <trkpt lat="48.9186" lon="2.1059">
        <ele>65</ele>
        <time>2012-11-24T14:30:22Z</time>
      </trkpt>
      <trkpt lat="48.91859" lon="2.10582">
        <ele>63</ele>
        <time>2012-11-24T14:30:26Z</time>
      </trkpt>
      <trkpt lat="48.9186" lon="2.10574">
        <ele>63</ele>
        <time>2012-11-24T14:30:30Z</time>
      </trkpt>
      <trkpt lat="48.91862" lon="2.10567">
        <ele>63</ele>
        <time>2012-11-24T14:30:34Z</time>
      </trkpt>
      <trkpt lat="48.91865" lon="2.10554">
        <ele>63</ele>
        <time>2012-11-24T14:30:43Z</time>
      </trkpt>
      <trkpt lat="48.91866" lon="2.10546">
        <ele>63</ele>
        <time>2012-11-24T14:30:49Z</time>
      </trkpt>
      <trkpt lat="48.91867" lon="2.10539">
        <ele>62</ele>
        <time>2012-11-24T14:30:53Z</time>
      </trkpt>
      <trkpt lat="48.91869" lon="2.10532">
        <ele>62</ele>
        <time>2012-11-24T14:30:59Z</time>
      </trkpt>
      <trkpt lat="48.91871" lon="2.10518">
        <ele>62</ele>
        <time>2012-11-24T14:31:08Z</time>
      </trkpt>
      <trkpt lat="48.91872" lon="2.10511">
        <ele>62</ele>
        <time>2012-11-24T14:31:11Z</time>
      </trkpt>
      <trkpt lat="48.91871" lon="2.10503">
        <ele>62</ele>
        <time>2012-11-24T14:31:15Z</time>
      </trkpt>
      <trkpt lat="48.91872" lon="2.10495">
        <ele>62</ele>
        <time>2012-11-24T14:31:20Z</time>
      </trkpt>
      <trkpt lat="48.91872" lon="2.10488">
        <ele>62</ele>
        <time>2012-11-24T14:31:23Z</time>
      </trkpt>
      <trkpt lat="48.9187" lon="2.10481">
        <ele>62</ele>
        <time>2012-11-24T14:31:28Z</time>
      </trkpt>
      <trkpt lat="48.91873" lon="2.10474">
        <ele>62</ele>
        <time>2012-11-24T14:31:31Z</time>
      </trkpt>
      <trkpt lat="48.91875" lon="2.10468">
        <ele>62</ele>
        <time>2012-11-24T14:31:34Z</time>
      </trkpt>
      <trkpt lat="48.91875" lon="2.1046">
        <ele>62</ele>
        <time>2012-11-24T14:31:38Z</time>
      </trkpt>
      <trkpt lat="48.91876" lon="2.10453">
        <ele>62</ele>
        <time>2012-11-24T14:31:42Z</time>
      </trkpt>
      <trkpt lat="48.91878" lon="2.10445">
        <ele>62</ele>
        <time>2012-11-24T14:31:47Z</time>
      </trkpt>
      <trkpt lat="48.9188" lon="2.10438">
        <ele>62</ele>
        <time>2012-11-24T14:31:52Z</time>
      </trkpt>
      <trkpt lat="48.9188" lon="2.1043">
        <ele>62</ele>
        <time>2012-11-24T14:31:58Z</time>
      </trkpt>
      <trkpt lat="48.91882" lon="2.10423">
        <ele>61</ele>
        <time>2012-11-24T14:32:04Z</time>
      </trkpt>
      <trkpt lat="48.91881" lon="2.10415">
        <ele>61</ele>
        <time>2012-11-24T14:32:10Z</time>
      </trkpt>
      <trkpt lat="48.91886" lon="2.1041">
        <ele>61</ele>
        <time>2012-11-24T14:32:30Z</time>
      </trkpt>
      <trkpt lat="48.91888" lon="2.10403">
        <ele>61</ele>
        <time>2012-11-24T14:32:35Z</time>
      </trkpt>
      <trkpt lat="48.91888" lon="2.10395">
        <ele>61</ele>
        <time>2012-11-24T14:32:40Z</time>
      </trkpt>
      <trkpt lat="48.91889" lon="2.10387">
        <ele>61</ele>
        <time>2012-11-24T14:32:44Z</time>
      </trkpt>
      <trkpt lat="48.91889" lon="2.10379">
        <ele>61</ele>
        <time>2012-11-24T14:32:49Z</time>
      </trkpt>
      <trkpt lat="48.9189" lon="2.10371">
        <ele>62</ele>
        <time>2012-11-24T14:32:53Z</time>
      </trkpt>
      <trkpt lat="48.9189" lon="2.10362">
        <ele>62</ele>
        <time>2012-11-24T14:32:56Z</time>
      </trkpt>
      <trkpt lat="48.91891" lon="2.10346">
        <ele>62</ele>
        <time>2012-11-24T14:33:05Z</time>
      </trkpt>
      <trkpt lat="48.91892" lon="2.10338">
        <ele>62</ele>
        <time>2012-11-24T14:33:09Z</time>
      </trkpt>
      <trkpt lat="48.91891" lon="2.10331">
        <ele>62</ele>
        <time>2012-11-24T14:33:15Z</time>
      </trkpt>
      <trkpt lat="48.91893" lon="2.10316">
        <ele>62</ele>
        <time>2012-11-24T14:33:30Z</time>
      </trkpt>
      <trkpt lat="48.91894" lon="2.10302">
        <ele>62</ele>
        <time>2012-11-24T14:33:37Z</time>
      </trkpt>
      <trkpt lat="48.91895" lon="2.10295">
        <ele>62</ele>
        <time>2012-11-24T14:33:41Z</time>
      </trkpt>
      <trkpt lat="48.91896" lon="2.10286">
        <ele>62</ele>
        <time>2012-11-24T14:33:46Z</time>
      </trkpt>
      <trkpt lat="48.91897" lon="2.10278">
        <ele>63</ele>
        <time>2012-11-24T14:33:51Z</time>
      </trkpt>
      <trkpt lat="48.91898" lon="2.1027">
        <ele>63</ele>
        <time>2012-11-24T14:33:56Z</time>
      </trkpt>
      <trkpt lat="48.91899" lon="2.10263">
        <ele>63</ele>
        <time>2012-11-24T14:34:01Z</time>
      </trkpt>
      <trkpt lat="48.91899" lon="2.10255">
        <ele>63</ele>
        <time>2012-11-24T14:34:06Z</time>
      </trkpt>
      <trkpt lat="48.91899" lon="2.10248">
        <ele>64</ele>
        <time>2012-11-24T14:34:10Z</time>
      </trkpt>
      <trkpt lat="48.91901" lon="2.10241">
        <ele>64</ele>
        <time>2012-11-24T14:34:14Z</time>
      </trkpt>
      <trkpt lat="48.91903" lon="2.10232">
        <ele>64</ele>
        <time>2012-11-24T14:34:20Z</time>
      </trkpt>
      <trkpt lat="48.91905" lon="2.10226">
        <ele>64</ele>
        <time>2012-11-24T14:34:24Z</time>
      </trkpt>
      <trkpt lat="48.91907" lon="2.10219">
        <ele>64</ele>
        <time>2012-11-24T14:34:30Z</time>
      </trkpt>
      <trkpt lat="48.9191" lon="2.10212">
        <ele>64</ele>
        <time>2012-11-24T14:34:36Z</time>
      </trkpt>
      <trkpt lat="48.91906" lon="2.10207">
        <ele>64</ele>
        <time>2012-11-24T14:40:29Z</time>
      </trkpt>
      <trkpt lat="48.91903" lon="2.10201">
        <ele>64</ele>
        <time>2012-11-24T14:40:33Z</time>
      </trkpt>
      <trkpt lat="48.91898" lon="2.10188">
        <ele>64</ele>
        <time>2012-11-24T14:40:42Z</time>
      </trkpt>
      <trkpt lat="48.91898" lon="2.10179">
        <ele>65</ele>
        <time>2012-11-24T14:40:46Z</time>
      </trkpt>
      <trkpt lat="48.91896" lon="2.1017">
        <ele>65</ele>
        <time>2012-11-24T14:40:50Z</time>
      </trkpt>
      <trkpt lat="48.91895" lon="2.10162">
        <ele>66</ele>
        <time>2012-11-24T14:40:54Z</time>
      </trkpt>
      <trkpt lat="48.91899" lon="2.10157">
        <ele>66</ele>
        <time>2012-11-24T14:41:00Z</time>
      </trkpt>
      <trkpt lat="48.91905" lon="2.10157">
        <ele>66</ele>
        <time>2012-11-24T14:41:04Z</time>
      </trkpt>
      <trkpt lat="48.91909" lon="2.1016">
        <ele>66</ele>
        <time>2012-11-24T14:41:08Z</time>
      </trkpt>
      <trkpt lat="48.91914" lon="2.10157">
        <ele>66</ele>
        <time>2012-11-24T14:41:14Z</time>
      </trkpt>
      <trkpt lat="48.91919" lon="2.10156">
        <ele>68</ele>
        <time>2012-11-24T14:41:30Z</time>
      </trkpt>
      <trkpt lat="48.91924" lon="2.10154">
        <ele>69</ele>
        <time>2012-11-24T14:41:35Z</time>
      </trkpt>
      <trkpt lat="48.91928" lon="2.10152">
        <ele>69</ele>
        <time>2012-11-24T14:41:41Z</time>
      </trkpt>
      <trkpt lat="48.91932" lon="2.10147">
        <ele>69</ele>
        <time>2012-11-24T14:41:45Z</time>
      </trkpt>
      <trkpt lat="48.91935" lon="2.10141">
        <ele>70</ele>
        <time>2012-11-24T14:41:53Z</time>
      </trkpt>
      <trkpt lat="48.91936" lon="2.10133">
        <ele>70</ele>
        <time>2012-11-24T14:41:58Z</time>
      </trkpt>
      <trkpt lat="48.9194" lon="2.10126">
        <ele>70</ele>
        <time>2012-11-24T14:42:02Z</time>
      </trkpt>
      <trkpt lat="48.91943" lon="2.10121">
        <ele>70</ele>
        <time>2012-11-24T14:42:08Z</time>
      </trkpt>
      <trkpt lat="48.91946" lon="2.10114">
        <ele>70</ele>
        <time>2012-11-24T14:42:13Z</time>
      </trkpt>
      <trkpt lat="48.91952" lon="2.10101">
        <ele>70</ele>
        <time>2012-11-24T14:42:21Z</time>
      </trkpt>
      <trkpt lat="48.91955" lon="2.10097">
        <ele>71</ele>
        <time>2012-11-24T14:42:24Z</time>
      </trkpt>
      <trkpt lat="48.9196" lon="2.10093">
        <ele>71</ele>
        <time>2012-11-24T14:42:28Z</time>
      </trkpt>
      <trkpt lat="48.91964" lon="2.10089">
        <ele>71</ele>
        <time>2012-11-24T14:42:32Z</time>
      </trkpt>
      <trkpt lat="48.91968" lon="2.10084">
        <ele>72</ele>
        <time>2012-11-24T14:42:38Z</time>
      </trkpt>
      <trkpt lat="48.91976" lon="2.10077">
        <ele>73</ele>
        <time>2012-11-24T14:42:46Z</time>
      </trkpt>
      <trkpt lat="48.91981" lon="2.10075">
        <ele>73</ele>
        <time>2012-11-24T14:42:50Z</time>
      </trkpt>
      <trkpt lat="48.91984" lon="2.10069">
        <ele>73</ele>
        <time>2012-11-24T14:42:56Z</time>
      </trkpt>
      <trkpt lat="48.91985" lon="2.10061">
        <ele>73</ele>
        <time>2012-11-24T14:43:02Z</time>
      </trkpt>
      <trkpt lat="48.9199" lon="2.10048">
        <ele>73</ele>
        <time>2012-11-24T14:43:11Z</time>
      </trkpt>
      <trkpt lat="48.91996" lon="2.10038">
        <ele>73</ele>
        <time>2012-11-24T14:43:19Z</time>
      </trkpt>
      <trkpt lat="48.92001" lon="2.10034">
        <ele>75</ele>
        <time>2012-11-24T14:43:23Z</time>
      </trkpt>
      <trkpt lat="48.9201" lon="2.10033">
        <ele>75</ele>
        <time>2012-11-24T14:43:30Z</time>
      </trkpt>
      <trkpt lat="48.92014" lon="2.10031">
        <ele>75</ele>
        <time>2012-11-24T14:43:34Z</time>
      </trkpt>
      <trkpt lat="48.92019" lon="2.10032">
        <ele>75</ele>
        <time>2012-11-24T14:43:38Z</time>
      </trkpt>
      <trkpt lat="48.92024" lon="2.10033">
        <ele>75</ele>
        <time>2012-11-24T14:43:42Z</time>
      </trkpt>
      <trkpt lat="48.92029" lon="2.10033">
        <ele>75</ele>
        <time>2012-11-24T14:43:47Z</time>
      </trkpt>
      <trkpt lat="48.92034" lon="2.10035">
        <ele>75</ele>
        <time>2012-11-24T14:43:51Z</time>
      </trkpt>
      <trkpt lat="48.92043" lon="2.10035">
        <ele>75</ele>
        <time>2012-11-24T14:44:00Z</time>
      </trkpt>
      <trkpt lat="48.92049" lon="2.10034">
        <ele>75</ele>
        <time>2012-11-24T14:44:04Z</time>
      </trkpt>
      <trkpt lat="48.92055" lon="2.10033">
        <ele>75</ele>
        <time>2012-11-24T14:44:09Z</time>
      </trkpt>
      <trkpt lat="48.9206" lon="2.10033">
        <ele>75</ele>
        <time>2012-11-24T14:44:13Z</time>
      </trkpt>
      <trkpt lat="48.92065" lon="2.10032">
        <ele>75</ele>
        <time>2012-11-24T14:44:19Z</time>
      </trkpt>
      <trkpt lat="48.9207" lon="2.10033">
        <ele>75</ele>
        <time>2012-11-24T14:44:23Z</time>
      </trkpt>
      <trkpt lat="48.92075" lon="2.10034">
        <ele>75</ele>
        <time>2012-11-24T14:44:27Z</time>
      </trkpt>
      <trkpt lat="48.92083" lon="2.10035">
        <ele>75</ele>
        <time>2012-11-24T14:44:34Z</time>
      </trkpt>
      <trkpt lat="48.92094" lon="2.10035">
        <ele>75</ele>
        <time>2012-11-24T14:44:42Z</time>
      </trkpt>
      <trkpt lat="48.92099" lon="2.10034">
        <ele>75</ele>
        <time>2012-11-24T14:44:46Z</time>
      </trkpt>
      <trkpt lat="48.92103" lon="2.10034">
        <ele>75</ele>
        <time>2012-11-24T14:44:49Z</time>
      </trkpt>
      <trkpt lat="48.92109" lon="2.10034">
        <ele>75</ele>
        <time>2012-11-24T14:44:53Z</time>
      </trkpt>
      <trkpt lat="48.92114" lon="2.10034">
        <ele>75</ele>
        <time>2012-11-24T14:44:57Z</time>
      </trkpt>
      <trkpt lat="48.92119" lon="2.10032">
        <ele>76</ele>
        <time>2012-11-24T14:45:01Z</time>
      </trkpt>
      <trkpt lat="48.92129" lon="2.1003">
        <ele>76</ele>
        <time>2012-11-24T14:45:09Z</time>
      </trkpt>
      <trkpt lat="48.92133" lon="2.10032">
        <ele>76</ele>
        <time>2012-11-24T14:45:12Z</time>
      </trkpt>
      <trkpt lat="48.92139" lon="2.10029">
        <ele>76</ele>
        <time>2012-11-24T14:45:17Z</time>
      </trkpt>
      <trkpt lat="48.92144" lon="2.10029">
        <ele>76</ele>
        <time>2012-11-24T14:45:22Z</time>
      </trkpt>
      <trkpt lat="48.92149" lon="2.10027">
        <ele>76</ele>
        <time>2012-11-24T14:45:26Z</time>
      </trkpt>
      <trkpt lat="48.92158" lon="2.10029">
        <ele>76</ele>
        <time>2012-11-24T14:45:33Z</time>
      </trkpt>
      <trkpt lat="48.92163" lon="2.1003">
        <ele>76</ele>
        <time>2012-11-24T14:45:37Z</time>
      </trkpt>
      <trkpt lat="48.92173" lon="2.10029">
        <ele>77</ele>
        <time>2012-11-24T14:45:45Z</time>
      </trkpt>
      <trkpt lat="48.92178" lon="2.10027">
        <ele>77</ele>
        <time>2012-11-24T14:45:48Z</time>
      </trkpt>
      <trkpt lat="48.92183" lon="2.10026">
        <ele>77</ele>
        <time>2012-11-24T14:45:51Z</time>
      </trkpt>
      <trkpt lat="48.92189" lon="2.10026">
        <ele>77</ele>
        <time>2012-11-24T14:45:55Z</time>
      </trkpt>
      <trkpt lat="48.92193" lon="2.10026">
        <ele>77</ele>
        <time>2012-11-24T14:45:59Z</time>
      </trkpt>
      <trkpt lat="48.92198" lon="2.10025">
        <ele>77</ele>
        <time>2012-11-24T14:46:02Z</time>
      </trkpt>
      <trkpt lat="48.92204" lon="2.10026">
        <ele>77</ele>
        <time>2012-11-24T14:46:07Z</time>
      </trkpt>
      <trkpt lat="48.92208" lon="2.10024">
        <ele>77</ele>
        <time>2012-11-24T14:46:11Z</time>
      </trkpt>
      <trkpt lat="48.92213" lon="2.10023">
        <ele>77</ele>
        <time>2012-11-24T14:46:17Z</time>
      </trkpt>
      <trkpt lat="48.92219" lon="2.10022">
        <ele>77</ele>
        <time>2012-11-24T14:46:20Z</time>
      </trkpt>
      <trkpt lat="48.92224" lon="2.1002">
        <ele>77</ele>
        <time>2012-11-24T14:46:23Z</time>
      </trkpt>
      <trkpt lat="48.92229" lon="2.10024">
        <ele>77</ele>
        <time>2012-11-24T14:46:26Z</time>
      </trkpt>
      <trkpt lat="48.92234" lon="2.10026">
        <ele>77</ele>
        <time>2012-11-24T14:46:31Z</time>
      </trkpt>
      <trkpt lat="48.92239" lon="2.10026">
        <ele>77</ele>
        <time>2012-11-24T14:46:35Z</time>
      </trkpt>
      <trkpt lat="48.92244" lon="2.10025">
        <ele>77</ele>
        <time>2012-11-24T14:46:40Z</time>
      </trkpt>
      <trkpt lat="48.92253" lon="2.10024">
        <ele>77</ele>
        <time>2012-11-24T14:46:47Z</time>
      </trkpt>
      <trkpt lat="48.92259" lon="2.10027">
        <ele>77</ele>
        <time>2012-11-24T14:46:52Z</time>
      </trkpt>
      <trkpt lat="48.92265" lon="2.10027">
        <ele>77</ele>
        <time>2012-11-24T14:46:56Z</time>
      </trkpt>
      <trkpt lat="48.9227" lon="2.10026">
        <ele>78</ele>
        <time>2012-11-24T14:47:00Z</time>
      </trkpt>
      <trkpt lat="48.92276" lon="2.10025">
        <ele>78</ele>
        <time>2012-11-24T14:47:03Z</time>
      </trkpt>
      <trkpt lat="48.92281" lon="2.10024">
        <ele>78</ele>
        <time>2012-11-24T14:47:07Z</time>
      </trkpt>
      <trkpt lat="48.92287" lon="2.10024">
        <ele>78</ele>
        <time>2012-11-24T14:47:11Z</time>
      </trkpt>
      <trkpt lat="48.92291" lon="2.10021">
        <ele>78</ele>
        <time>2012-11-24T14:47:16Z</time>
      </trkpt>
      <trkpt lat="48.92297" lon="2.10019">
        <ele>78</ele>
        <time>2012-11-24T14:47:21Z</time>
      </trkpt>
      <trkpt lat="48.92302" lon="2.10018">
        <ele>78</ele>
        <time>2012-11-24T14:47:26Z</time>
      </trkpt>
      <trkpt lat="48.92307" lon="2.10017">
        <ele>78</ele>
        <time>2012-11-24T14:47:31Z</time>
      </trkpt>
      <trkpt lat="48.92312" lon="2.10019">
        <ele>78</ele>
        <time>2012-11-24T14:47:35Z</time>
      </trkpt>
      <trkpt lat="48.92318" lon="2.1002">
        <ele>79</ele>
        <time>2012-11-24T14:47:39Z</time>
      </trkpt>
      <trkpt lat="48.92324" lon="2.1002">
        <ele>79</ele>
        <time>2012-11-24T14:47:44Z</time>
      </trkpt>
      <trkpt lat="48.92329" lon="2.10021">
        <ele>79</ele>
        <time>2012-11-24T14:47:48Z</time>
      </trkpt>
      <trkpt lat="48.92334" lon="2.10025">
        <ele>80</ele>
        <time>2012-11-24T14:47:52Z</time>
      </trkpt>
      <trkpt lat="48.92339" lon="2.10025">
        <ele>80</ele>
        <time>2012-11-24T14:47:56Z</time>
      </trkpt>
      <trkpt lat="48.92346" lon="2.10024">
        <ele>80</ele>
        <time>2012-11-24T14:48:01Z</time>
      </trkpt>
      <trkpt lat="48.92351" lon="2.10023">
        <ele>80</ele>
        <time>2012-11-24T14:48:03Z</time>
      </trkpt>
      <trkpt lat="48.92356" lon="2.10022">
        <ele>81</ele>
        <time>2012-11-24T14:48:07Z</time>
      </trkpt>
      <trkpt lat="48.92361" lon="2.10022">
        <ele>81</ele>
        <time>2012-11-24T14:48:11Z</time>
      </trkpt>
      <trkpt lat="48.92366" lon="2.10023">
        <ele>81</ele>
        <time>2012-11-24T14:48:15Z</time>
      </trkpt>
      <trkpt lat="48.92371" lon="2.10023">
        <ele>81</ele>
        <time>2012-11-24T14:48:19Z</time>
      </trkpt>
      <trkpt lat="48.92376" lon="2.10022">
        <ele>81</ele>
        <time>2012-11-24T14:48:22Z</time>
      </trkpt>
      <trkpt lat="48.92385" lon="2.1002">
        <ele>81</ele>
        <time>2012-11-24T14:48:30Z</time>
      </trkpt>
      <trkpt lat="48.9239" lon="2.1002">
        <ele>82</ele>
        <time>2012-11-24T14:48:33Z</time>
      </trkpt>
      <trkpt lat="48.92396" lon="2.10021">
        <ele>82</ele>
        <time>2012-11-24T14:48:37Z</time>
      </trkpt>
      <trkpt lat="48.92405" lon="2.10021">
        <ele>82</ele>
        <time>2012-11-24T14:48:47Z</time>
      </trkpt>
      <trkpt lat="48.9241" lon="2.1002">
        <ele>82</ele>
        <time>2012-11-24T14:48:50Z</time>
      </trkpt>
      <trkpt lat="48.92414" lon="2.1002">
        <ele>82</ele>
        <time>2012-11-24T14:48:54Z</time>
      </trkpt>
      <trkpt lat="48.92419" lon="2.1002">
        <ele>84</ele>
        <time>2012-11-24T14:48:58Z</time>
      </trkpt>
      <trkpt lat="48.92424" lon="2.1002">
        <ele>84</ele>
        <time>2012-11-24T14:49:02Z</time>
      </trkpt>
      <trkpt lat="48.92429" lon="2.10018">
        <ele>84</ele>
        <time>2012-11-24T14:49:06Z</time>
      </trkpt>
      <trkpt lat="48.92434" lon="2.1002">
        <ele>84</ele>
        <time>2012-11-24T14:49:10Z</time>
      </trkpt>
      <trkpt lat="48.92439" lon="2.10019">
        <ele>84</ele>
        <time>2012-11-24T14:49:14Z</time>
      </trkpt>
      <trkpt lat="48.92444" lon="2.10017">
        <ele>84</ele>
        <time>2012-11-24T14:49:18Z</time>
      </trkpt>
      <trkpt lat="48.92449" lon="2.10015">
        <ele>84</ele>
        <time>2012-11-24T14:49:24Z</time>
      </trkpt>
      <trkpt lat="48.92459" lon="2.10016">
        <ele>84</ele>
        <time>2012-11-24T14:49:35Z</time>
      </trkpt>
      <trkpt lat="48.92464" lon="2.10018">
        <ele>84</ele>
        <time>2012-11-24T14:49:39Z</time>
      </trkpt>
      <trkpt lat="48.92469" lon="2.10017">
        <ele>84</ele>
        <time>2012-11-24T14:49:43Z</time>
      </trkpt>
      <trkpt lat="48.92474" lon="2.10016">
        <ele>84</ele>
        <time>2012-11-24T14:49:47Z</time>
      </trkpt>
      <trkpt lat="48.92479" lon="2.10017">
        <ele>84</ele>
        <time>2012-11-24T14:49:50Z</time>
      </trkpt>
      <trkpt lat="48.92484" lon="2.10015">
        <ele>84</ele>
        <time>2012-11-24T14:49:53Z</time>
      </trkpt>
      <trkpt lat="48.9249" lon="2.10015">
        <ele>84</ele>
        <time>2012-11-24T14:49:57Z</time>
      </trkpt>
      <trkpt lat="48.92495" lon="2.10016">
        <ele>84</ele>
        <time>2012-11-24T14:50:01Z</time>
      </trkpt>
      <trkpt lat="48.925" lon="2.10016">
        <ele>84</ele>
        <time>2012-11-24T14:50:03Z</time>
      </trkpt>
      <trkpt lat="48.92505" lon="2.10016">
        <ele>85</ele>
        <time>2012-11-24T14:50:07Z</time>
      </trkpt>
      <trkpt lat="48.9251" lon="2.10015">
        <ele>84</ele>
        <time>2012-11-24T14:50:12Z</time>
      </trkpt>
      <trkpt lat="48.92516" lon="2.10015">
        <ele>84</ele>
        <time>2012-11-24T14:50:17Z</time>
      </trkpt>
      <trkpt lat="48.92521" lon="2.10015">
        <ele>84</ele>
        <time>2012-11-24T14:50:21Z</time>
      </trkpt>
      <trkpt lat="48.92527" lon="2.10016">
        <ele>84</ele>
        <time>2012-11-24T14:50:26Z</time>
      </trkpt>
      <trkpt lat="48.92536" lon="2.10014">
        <ele>84</ele>
        <time>2012-11-24T14:50:34Z</time>
      </trkpt>
      <trkpt lat="48.92542" lon="2.10012">
        <ele>84</ele>
        <time>2012-11-24T14:50:38Z</time>
      </trkpt>
      <trkpt lat="48.92547" lon="2.10013">
        <ele>84</ele>
        <time>2012-11-24T14:50:41Z</time>
      </trkpt>
      <trkpt lat="48.92553" lon="2.10013">
        <ele>84</ele>
        <time>2012-11-24T14:50:45Z</time>
      </trkpt>
      <trkpt lat="48.92563" lon="2.10013">
        <ele>84</ele>
        <time>2012-11-24T14:50:51Z</time>
      </trkpt>
      <trkpt lat="48.92569" lon="2.10013">
        <ele>84</ele>
        <time>2012-11-24T14:50:57Z</time>
      </trkpt>
      <trkpt lat="48.92574" lon="2.10014">
        <ele>84</ele>
        <time>2012-11-24T14:51:02Z</time>
      </trkpt>
      <trkpt lat="48.92579" lon="2.10013">
        <ele>84</ele>
        <time>2012-11-24T14:51:07Z</time>
      </trkpt>
      <trkpt lat="48.92585" lon="2.10014">
        <ele>83</ele>
        <time>2012-11-24T14:51:11Z</time>
      </trkpt>
      <trkpt lat="48.92589" lon="2.10017">
        <ele>83</ele>
        <time>2012-11-24T14:51:19Z</time>
      </trkpt>
      <trkpt lat="48.92595" lon="2.10016">
        <ele>83</ele>
        <time>2012-11-24T14:51:24Z</time>
      </trkpt>
      <trkpt lat="48.92599" lon="2.10017">
        <ele>83</ele>
        <time>2012-11-24T14:51:28Z</time>
      </trkpt>
      <trkpt lat="48.92605" lon="2.10017">
        <ele>82</ele>
        <time>2012-11-24T14:51:33Z</time>
      </trkpt>
      <trkpt lat="48.92611" lon="2.10016">
        <ele>82</ele>
        <time>2012-11-24T14:51:38Z</time>
      </trkpt>
      <trkpt lat="48.92616" lon="2.10017">
        <ele>82</ele>
        <time>2012-11-24T14:51:42Z</time>
      </trkpt>
      <trkpt lat="48.92621" lon="2.10017">
        <ele>82</ele>
        <time>2012-11-24T14:51:45Z</time>
      </trkpt>
      <trkpt lat="48.92626" lon="2.10018">
        <ele>82</ele>
        <time>2012-11-24T14:51:50Z</time>
      </trkpt>
      <trkpt lat="48.92631" lon="2.1002">
        <ele>82</ele>
        <time>2012-11-24T14:51:54Z</time>
      </trkpt>
      <trkpt lat="48.92636" lon="2.10019">
        <ele>81</ele>
        <time>2012-11-24T14:51:57Z</time>
      </trkpt>
      <trkpt lat="48.92641" lon="2.10018">
        <ele>81</ele>
        <time>2012-11-24T14:52:00Z</time>
      </trkpt>
      <trkpt lat="48.92646" lon="2.10018">
        <ele>81</ele>
        <time>2012-11-24T14:52:02Z</time>
      </trkpt>
      <trkpt lat="48.92651" lon="2.10017">
        <ele>81</ele>
        <time>2012-11-24T14:52:06Z</time>
      </trkpt>
      <trkpt lat="48.92656" lon="2.10018">
        <ele>81</ele>
        <time>2012-11-24T14:52:10Z</time>
      </trkpt>
      <trkpt lat="48.92662" lon="2.10018">
        <ele>81</ele>
        <time>2012-11-24T14:52:13Z</time>
      </trkpt>
      <trkpt lat="48.92666" lon="2.10017">
        <ele>81</ele>
        <time>2012-11-24T14:52:16Z</time>
      </trkpt>
      <trkpt lat="48.92675" lon="2.10013">
        <ele>78</ele>
        <time>2012-11-24T14:52:26Z</time>
      </trkpt>
      <trkpt lat="48.9268" lon="2.10015">
        <ele>78</ele>
        <time>2012-11-24T14:52:31Z</time>
      </trkpt>
      <trkpt lat="48.92685" lon="2.10013">
        <ele>78</ele>
        <time>2012-11-24T14:52:36Z</time>
      </trkpt>
      <trkpt lat="48.92691" lon="2.10015">
        <ele>78</ele>
        <time>2012-11-24T14:52:41Z</time>
      </trkpt>
      <trkpt lat="48.92696" lon="2.10015">
        <ele>77</ele>
        <time>2012-11-24T14:52:43Z</time>
      </trkpt>
      <trkpt lat="48.92701" lon="2.10014">
        <ele>77</ele>
        <time>2012-11-24T14:52:47Z</time>
      </trkpt>
      <trkpt lat="48.92706" lon="2.10014">
        <ele>77</ele>
        <time>2012-11-24T14:52:51Z</time>
      </trkpt>
      <trkpt lat="48.92707" lon="2.10016">
        <ele>77</ele>
        <time>2012-11-24T14:53:24Z</time>
      </trkpt>
      <trkpt lat="48.9271" lon="2.1001">
        <ele>76</ele>
        <time>2012-11-24T14:54:36Z</time>
      </trkpt>
      <trkpt lat="48.92714" lon="2.10005">
        <ele>76</ele>
        <time>2012-11-24T14:54:40Z</time>
      </trkpt>
      <trkpt lat="48.92719" lon="2.10001">
        <ele>76</ele>
        <time>2012-11-24T14:54:43Z</time>
      </trkpt>
      <trkpt lat="48.92724" lon="2.09996">
        <ele>76</ele>
        <time>2012-11-24T14:54:47Z</time>
      </trkpt>
      <trkpt lat="48.92728" lon="2.0999">
        <ele>76</ele>
        <time>2012-11-24T14:54:52Z</time>
      </trkpt>
      <trkpt lat="48.92733" lon="2.09988">
        <ele>75</ele>
        <time>2012-11-24T14:54:56Z</time>
      </trkpt>
      <trkpt lat="48.92736" lon="2.09983">
        <ele>75</ele>
        <time>2012-11-24T14:55:03Z</time>
      </trkpt>
      <trkpt lat="48.92739" lon="2.09977">
        <ele>75</ele>
        <time>2012-11-24T14:55:06Z</time>
      </trkpt>
      <trkpt lat="48.92747" lon="2.09969">
        <ele>75</ele>
        <time>2012-11-24T14:55:14Z</time>
      </trkpt>
      <trkpt lat="48.92751" lon="2.09964">
        <ele>72</ele>
        <time>2012-11-24T14:55:18Z</time>
      </trkpt>
      <trkpt lat="48.92756" lon="2.09959">
        <ele>72</ele>
        <time>2012-11-24T14:55:23Z</time>
      </trkpt>
      <trkpt lat="48.92759" lon="2.09954">
        <ele>72</ele>
        <time>2012-11-24T14:55:27Z</time>
      </trkpt>
      <trkpt lat="48.92764" lon="2.09951">
        <ele>72</ele>
        <time>2012-11-24T14:55:31Z</time>
      </trkpt>
      <trkpt lat="48.92768" lon="2.09949">
        <ele>72</ele>
        <time>2012-11-24T14:55:35Z</time>
      </trkpt>
      <trkpt lat="48.92776" lon="2.09942">
        <ele>72</ele>
        <time>2012-11-24T14:55:41Z</time>
      </trkpt>
      <trkpt lat="48.92781" lon="2.09938">
        <ele>72</ele>
        <time>2012-11-24T14:55:45Z</time>
      </trkpt>
      <trkpt lat="48.92785" lon="2.09934">
        <ele>72</ele>
        <time>2012-11-24T14:55:48Z</time>
      </trkpt>
      <trkpt lat="48.92789" lon="2.09931">
        <ele>72</ele>
        <time>2012-11-24T14:55:53Z</time>
      </trkpt>
      <trkpt lat="48.92794" lon="2.09927">
        <ele>72</ele>
        <time>2012-11-24T14:55:56Z</time>
      </trkpt>
      <trkpt lat="48.92799" lon="2.09922">
        <ele>72</ele>
        <time>2012-11-24T14:56:00Z</time>
      </trkpt>
      <trkpt lat="48.92802" lon="2.09917">
        <ele>72</ele>
        <time>2012-11-24T14:56:05Z</time>
      </trkpt>
      <trkpt lat="48.92807" lon="2.09912">
        <ele>72</ele>
        <time>2012-11-24T14:56:08Z</time>
      </trkpt>
      <trkpt lat="48.92811" lon="2.09907">
        <ele>72</ele>
        <time>2012-11-24T14:56:13Z</time>
      </trkpt>
      <trkpt lat="48.92816" lon="2.09904">
        <ele>72</ele>
        <time>2012-11-24T14:56:16Z</time>
      </trkpt>
      <trkpt lat="48.92821" lon="2.099">
        <ele>72</ele>
        <time>2012-11-24T14:56:21Z</time>
      </trkpt>
      <trkpt lat="48.92825" lon="2.09895">
        <ele>72</ele>
        <time>2012-11-24T14:56:26Z</time>
      </trkpt>
      <trkpt lat="48.92834" lon="2.09887">
        <ele>72</ele>
        <time>2012-11-24T14:56:33Z</time>
      </trkpt>
      <trkpt lat="48.92838" lon="2.09882">
        <ele>72</ele>
        <time>2012-11-24T14:56:36Z</time>
      </trkpt>
      <trkpt lat="48.92842" lon="2.09878">
        <ele>72</ele>
        <time>2012-11-24T14:56:40Z</time>
      </trkpt>
      <trkpt lat="48.92847" lon="2.09875">
        <ele>72</ele>
        <time>2012-11-24T14:56:45Z</time>
      </trkpt>
      <trkpt lat="48.92855" lon="2.09866">
        <ele>73</ele>
        <time>2012-11-24T14:56:53Z</time>
      </trkpt>
      <trkpt lat="48.9286" lon="2.09859">
        <ele>73</ele>
        <time>2012-11-24T14:56:58Z</time>
      </trkpt>
      <trkpt lat="48.92864" lon="2.09856">
        <ele>73</ele>
        <time>2012-11-24T14:57:01Z</time>
      </trkpt>
      <trkpt lat="48.92869" lon="2.09852">
        <ele>73</ele>
        <time>2012-11-24T14:57:05Z</time>
      </trkpt>
      <trkpt lat="48.92874" lon="2.09846">
        <ele>73</ele>
        <time>2012-11-24T14:57:10Z</time>
      </trkpt>
      <trkpt lat="48.92878" lon="2.09843">
        <ele>73</ele>
        <time>2012-11-24T14:57:14Z</time>
      </trkpt>
      <trkpt lat="48.92883" lon="2.09845">
        <ele>73</ele>
        <time>2012-11-24T14:58:15Z</time>
      </trkpt>
      <trkpt lat="48.92887" lon="2.09845">
        <ele>73</ele>
        <time>2012-11-24T14:58:20Z</time>
      </trkpt>
      <trkpt lat="48.92896" lon="2.09851">
        <ele>73</ele>
        <time>2012-11-24T14:58:29Z</time>
      </trkpt>
      <trkpt lat="48.92902" lon="2.09853">
        <ele>73</ele>
        <time>2012-11-24T14:58:33Z</time>
      </trkpt>
      <trkpt lat="48.92907" lon="2.09854">
        <ele>73</ele>
        <time>2012-11-24T14:58:38Z</time>
      </trkpt>
      <trkpt lat="48.92912" lon="2.09855">
        <ele>73</ele>
        <time>2012-11-24T14:58:42Z</time>
      </trkpt>
      <trkpt lat="48.92917" lon="2.09857">
        <ele>75</ele>
        <time>2012-11-24T14:58:46Z</time>
      </trkpt>
      <trkpt lat="48.92921" lon="2.0986">
        <ele>75</ele>
        <time>2012-11-24T14:58:50Z</time>
      </trkpt>
      <trkpt lat="48.92926" lon="2.09863">
        <ele>75</ele>
        <time>2012-11-24T14:58:55Z</time>
      </trkpt>
      <trkpt lat="48.92931" lon="2.09865">
        <ele>75</ele>
        <time>2012-11-24T14:58:59Z</time>
      </trkpt>
      <trkpt lat="48.92936" lon="2.09866">
        <ele>75</ele>
        <time>2012-11-24T14:59:02Z</time>
      </trkpt>
      <trkpt lat="48.92941" lon="2.09866">
        <ele>75</ele>
        <time>2012-11-24T14:59:07Z</time>
      </trkpt>
      <trkpt lat="48.92946" lon="2.09869">
        <ele>75</ele>
        <time>2012-11-24T14:59:12Z</time>
      </trkpt>
      <trkpt lat="48.92952" lon="2.0987">
        <ele>76</ele>
        <time>2012-11-24T14:59:16Z</time>
      </trkpt>
      <trkpt lat="48.92956" lon="2.09874">
        <ele>76</ele>
        <time>2012-11-24T14:59:19Z</time>
      </trkpt>
      <trkpt lat="48.92965" lon="2.09876">
        <ele>76</ele>
        <time>2012-11-24T14:59:26Z</time>
      </trkpt>
      <trkpt lat="48.92971" lon="2.09876">
        <ele>76</ele>
        <time>2012-11-24T14:59:29Z</time>
      </trkpt>
      <trkpt lat="48.92975" lon="2.09879">
        <ele>76</ele>
        <time>2012-11-24T14:59:33Z</time>
      </trkpt>
      <trkpt lat="48.9298" lon="2.09882">
        <ele>76</ele>
        <time>2012-11-24T14:59:37Z</time>
      </trkpt>
      <trkpt lat="48.92985" lon="2.09885">
        <ele>76</ele>
        <time>2012-11-24T14:59:41Z</time>
      </trkpt>
      <trkpt lat="48.9299" lon="2.09888">
        <ele>76</ele>
        <time>2012-11-24T14:59:44Z</time>
      </trkpt>
      <trkpt lat="48.92999" lon="2.09894">
        <ele>77</ele>
        <time>2012-11-24T14:59:53Z</time>
      </trkpt>
      <trkpt lat="48.93004" lon="2.09897">
        <ele>78</ele>
        <time>2012-11-24T14:59:56Z</time>
      </trkpt>
      <trkpt lat="48.93009" lon="2.09898">
        <ele>78</ele>
        <time>2012-11-24T15:00:01Z</time>
      </trkpt>
      <trkpt lat="48.93014" lon="2.09901">
        <ele>78</ele>
        <time>2012-11-24T15:00:05Z</time>
      </trkpt>
      <trkpt lat="48.93019" lon="2.09905">
        <ele>78</ele>
        <time>2012-11-24T15:00:08Z</time>
      </trkpt>
      <trkpt lat="48.93024" lon="2.09907">
        <ele>78</ele>
        <time>2012-11-24T15:00:13Z</time>
      </trkpt>
      <trkpt lat="48.93029" lon="2.09912">
        <ele>78</ele>
        <time>2012-11-24T15:00:18Z</time>
      </trkpt>
      <trkpt lat="48.93034" lon="2.09913">
        <ele>78</ele>
        <time>2012-11-24T15:00:21Z</time>
      </trkpt>
      <trkpt lat="48.9304" lon="2.09914">
        <ele>78</ele>
        <time>2012-11-24T15:00:26Z</time>
      </trkpt>
      <trkpt lat="48.93045" lon="2.09917">
        <ele>79</ele>
        <time>2012-11-24T15:00:30Z</time>
      </trkpt>
      <trkpt lat="48.93051" lon="2.0992">
        <ele>79</ele>
        <time>2012-11-24T15:00:33Z</time>
      </trkpt>
      <trkpt lat="48.93055" lon="2.09923">
        <ele>79</ele>
        <time>2012-11-24T15:00:37Z</time>
      </trkpt>
      <trkpt lat="48.93065" lon="2.09924">
        <ele>79</ele>
        <time>2012-11-24T15:00:44Z</time>
      </trkpt>
      <trkpt lat="48.93069" lon="2.09927">
        <ele>79</ele>
        <time>2012-11-24T15:00:48Z</time>
      </trkpt>
      <trkpt lat="48.93074" lon="2.09931">
        <ele>79</ele>
        <time>2012-11-24T15:00:52Z</time>
      </trkpt>
      <trkpt lat="48.93078" lon="2.09932">
        <ele>79</ele>
        <time>2012-11-24T15:00:56Z</time>
      </trkpt>
      <trkpt lat="48.93083" lon="2.09935">
        <ele>79</ele>
        <time>2012-11-24T15:01:01Z</time>
      </trkpt>
      <trkpt lat="48.93088" lon="2.09937">
        <ele>79</ele>
        <time>2012-11-24T15:01:05Z</time>
      </trkpt>
      <trkpt lat="48.93093" lon="2.0994">
        <ele>79</ele>
        <time>2012-11-24T15:01:08Z</time>
      </trkpt>
      <trkpt lat="48.93097" lon="2.09941">
        <ele>80</ele>
        <time>2012-11-24T15:01:11Z</time>
      </trkpt>
      <trkpt lat="48.93102" lon="2.09944">
        <ele>80</ele>
        <time>2012-11-24T15:01:15Z</time>
      </trkpt>
      <trkpt lat="48.93106" lon="2.09946">
        <ele>80</ele>
        <time>2012-11-24T15:01:21Z</time>
      </trkpt>
      <trkpt lat="48.9311" lon="2.0995">
        <ele>80</ele>
        <time>2012-11-24T15:01:25Z</time>
      </trkpt>
      <trkpt lat="48.93119" lon="2.09956">
        <ele>80</ele>
        <time>2012-11-24T15:01:35Z</time>
      </trkpt>
      <trkpt lat="48.93123" lon="2.09959">
        <ele>80</ele>
        <time>2012-11-24T15:01:38Z</time>
      </trkpt>
      <trkpt lat="48.93129" lon="2.09961">
        <ele>80</ele>
        <time>2012-11-24T15:01:42Z</time>
      </trkpt>
      <trkpt lat="48.93138" lon="2.09967">
        <ele>80</ele>
        <time>2012-11-24T15:01:49Z</time>
      </trkpt>
      <trkpt lat="48.93143" lon="2.09969">
        <ele>80</ele>
        <time>2012-11-24T15:01:53Z</time>
      </trkpt>
      <trkpt lat="48.93148" lon="2.09971">
        <ele>80</ele>
        <time>2012-11-24T15:01:56Z</time>
      </trkpt>
      <trkpt lat="48.93153" lon="2.09973">
        <ele>80</ele>
        <time>2012-11-24T15:02:00Z</time>
      </trkpt>
      <trkpt lat="48.93163" lon="2.09976">
        <ele>80</ele>
        <time>2012-11-24T15:02:10Z</time>
      </trkpt>
      <trkpt lat="48.93167" lon="2.09979">
        <ele>80</ele>
        <time>2012-11-24T15:02:14Z</time>
      </trkpt>
      <trkpt lat="48.93172" lon="2.09982">
        <ele>80</ele>
        <time>2012-11-24T15:02:18Z</time>
      </trkpt>
      <trkpt lat="48.93178" lon="2.09985">
        <ele>80</ele>
        <time>2012-11-24T15:02:23Z</time>
      </trkpt>
      <trkpt lat="48.93183" lon="2.09985">
        <ele>80</ele>
        <time>2012-11-24T15:02:27Z</time>
      </trkpt>
      <trkpt lat="48.93188" lon="2.09989">
        <ele>80</ele>
        <time>2012-11-24T15:02:31Z</time>
      </trkpt>
      <trkpt lat="48.93193" lon="2.0999">
        <ele>80</ele>
        <time>2012-11-24T15:02:35Z</time>
      </trkpt>
      <trkpt lat="48.93199" lon="2.09991">
        <ele>80</ele>
        <time>2012-11-24T15:02:41Z</time>
      </trkpt>
      <trkpt lat="48.93203" lon="2.09996">
        <ele>80</ele>
        <time>2012-11-24T15:02:45Z</time>
      </trkpt>
      <trkpt lat="48.93208" lon="2.10001">
        <ele>80</ele>
        <time>2012-11-24T15:02:49Z</time>
      </trkpt>
      <trkpt lat="48.93214" lon="2.10006">
        <ele>80</ele>
        <time>2012-11-24T15:02:55Z</time>
      </trkpt>
      <trkpt lat="48.93217" lon="2.10011">
        <ele>79</ele>
        <time>2012-11-24T15:02:58Z</time>
      </trkpt>
      <trkpt lat="48.93223" lon="2.10014">
        <ele>79</ele>
        <time>2012-11-24T15:03:02Z</time>
      </trkpt>
      <trkpt lat="48.93229" lon="2.10015">
        <ele>80</ele>
        <time>2012-11-24T15:03:07Z</time>
      </trkpt>
      <trkpt lat="48.93234" lon="2.10016">
        <ele>80</ele>
        <time>2012-11-24T15:03:10Z</time>
      </trkpt>
      <trkpt lat="48.93238" lon="2.10018">
        <ele>80</ele>
        <time>2012-11-24T15:03:14Z</time>
      </trkpt>
      <trkpt lat="48.93248" lon="2.10023">
        <ele>79</ele>
        <time>2012-11-24T15:03:21Z</time>
      </trkpt>
      <trkpt lat="48.93253" lon="2.10025">
        <ele>79</ele>
        <time>2012-11-24T15:03:25Z</time>
      </trkpt>
      <trkpt lat="48.93259" lon="2.10027">
        <ele>79</ele>
        <time>2012-11-24T15:03:30Z</time>
      </trkpt>
      <trkpt lat="48.93263" lon="2.10029">
        <ele>78</ele>
        <time>2012-11-24T15:03:32Z</time>
      </trkpt>
      <trkpt lat="48.93268" lon="2.10033">
        <ele>78</ele>
        <time>2012-11-24T15:03:36Z</time>
      </trkpt>
      <trkpt lat="48.93277" lon="2.10038">
        <ele>78</ele>
        <time>2012-11-24T15:03:43Z</time>
      </trkpt>
      <trkpt lat="48.93281" lon="2.1004">
        <ele>78</ele>
        <time>2012-11-24T15:03:47Z</time>
      </trkpt>
      <trkpt lat="48.93286" lon="2.1004">
        <ele>78</ele>
        <time>2012-11-24T15:03:50Z</time>
      </trkpt>
      <trkpt lat="48.93291" lon="2.10041">
        <ele>78</ele>
        <time>2012-11-24T15:03:55Z</time>
      </trkpt>
      <trkpt lat="48.93296" lon="2.10045">
        <ele>78</ele>
        <time>2012-11-24T15:03:58Z</time>
      </trkpt>
      <trkpt lat="48.93298" lon="2.10051">
        <ele>77</ele>
        <time>2012-11-24T15:04:07Z</time>
      </trkpt>
      <trkpt lat="48.93304" lon="2.10054">
        <ele>77</ele>
        <time>2012-11-24T15:04:11Z</time>
      </trkpt>
      <trkpt lat="48.9331" lon="2.10055">
        <ele>77</ele>
        <time>2012-11-24T15:04:14Z</time>
      </trkpt>
      <trkpt lat="48.93315" lon="2.10059">
        <ele>77</ele>
        <time>2012-11-24T15:04:18Z</time>
      </trkpt>
      <trkpt lat="48.93319" lon="2.10058">
        <ele>77</ele>
        <time>2012-11-24T15:04:23Z</time>
      </trkpt>
      <trkpt lat="48.93324" lon="2.10059">
        <ele>77</ele>
        <time>2012-11-24T15:04:26Z</time>
      </trkpt>
      <trkpt lat="48.93329" lon="2.10061">
        <ele>77</ele>
        <time>2012-11-24T15:04:31Z</time>
      </trkpt>
      <trkpt lat="48.93339" lon="2.10063">
        <ele>76</ele>
        <time>2012-11-24T15:04:39Z</time>
      </trkpt>
      <trkpt lat="48.93344" lon="2.10065">
        <ele>76</ele>
        <time>2012-11-24T15:04:43Z</time>
      </trkpt>
      <trkpt lat="48.9335" lon="2.10064">
        <ele>77</ele>
        <time>2012-11-24T15:04:45Z</time>
      </trkpt>
      <trkpt lat="48.93355" lon="2.10067">
        <ele>77</ele>
        <time>2012-11-24T15:04:50Z</time>
      </trkpt>
      <trkpt lat="48.93361" lon="2.10068">
        <ele>77</ele>
        <time>2012-11-24T15:04:55Z</time>
      </trkpt>
      <trkpt lat="48.93365" lon="2.10068">
        <ele>77</ele>
        <time>2012-11-24T15:04:58Z</time>
      </trkpt>
      <trkpt lat="48.93371" lon="2.1007">
        <ele>77</ele>
        <time>2012-11-24T15:05:02Z</time>
      </trkpt>
      <trkpt lat="48.93376" lon="2.10071">
        <ele>77</ele>
        <time>2012-11-24T15:05:06Z</time>
      </trkpt>
      <trkpt lat="48.93381" lon="2.10073">
        <ele>77</ele>
        <time>2012-11-24T15:05:12Z</time>
      </trkpt>
      <trkpt lat="48.93386" lon="2.10072">
        <ele>77</ele>
        <time>2012-11-24T15:05:15Z</time>
      </trkpt>
      <trkpt lat="48.93393" lon="2.10075">
        <ele>77</ele>
        <time>2012-11-24T15:05:19Z</time>
      </trkpt>
      <trkpt lat="48.93398" lon="2.10077">
        <ele>77</ele>
        <time>2012-11-24T15:05:24Z</time>
      </trkpt>
      <trkpt lat="48.93403" lon="2.10079">
        <ele>77</ele>
        <time>2012-11-24T15:05:30Z</time>
      </trkpt>
      <trkpt lat="48.93408" lon="2.10078">
        <ele>77</ele>
        <time>2012-11-24T15:05:33Z</time>
      </trkpt>
      <trkpt lat="48.93413" lon="2.10081">
        <ele>77</ele>
        <time>2012-11-24T15:05:38Z</time>
      </trkpt>
      <trkpt lat="48.93419" lon="2.10081">
        <ele>77</ele>
        <time>2012-11-24T15:05:44Z</time>
      </trkpt>
      <trkpt lat="48.93423" lon="2.10081">
        <ele>77</ele>
        <time>2012-11-24T15:05:48Z</time>
      </trkpt>
      <trkpt lat="48.93428" lon="2.10084">
        <ele>77</ele>
        <time>2012-11-24T15:05:51Z</time>
      </trkpt>
      <trkpt lat="48.93433" lon="2.10086">
        <ele>77</ele>
        <time>2012-11-24T15:05:55Z</time>
      </trkpt>
      <trkpt lat="48.93438" lon="2.10086">
        <ele>77</ele>
        <time>2012-11-24T15:05:58Z</time>
      </trkpt>
      <trkpt lat="48.93442" lon="2.10088">
        <ele>77</ele>
        <time>2012-11-24T15:06:01Z</time>
      </trkpt>
      <trkpt lat="48.93452" lon="2.10087">
        <ele>77</ele>
        <time>2012-11-24T15:06:10Z</time>
      </trkpt>
      <trkpt lat="48.93462" lon="2.10088">
        <ele>77</ele>
        <time>2012-11-24T15:06:18Z</time>
      </trkpt>
      <trkpt lat="48.93472" lon="2.1009">
        <ele>77</ele>
        <time>2012-11-24T15:06:25Z</time>
      </trkpt>
      <trkpt lat="48.93476" lon="2.10092">
        <ele>77</ele>
        <time>2012-11-24T15:06:27Z</time>
      </trkpt>
      <trkpt lat="48.93481" lon="2.10091">
        <ele>77</ele>
        <time>2012-11-24T15:06:34Z</time>
      </trkpt>
      <trkpt lat="48.93487" lon="2.10091">
        <ele>77</ele>
        <time>2012-11-24T15:06:38Z</time>
      </trkpt>
      <trkpt lat="48.93492" lon="2.10096">
        <ele>78</ele>
        <time>2012-11-24T15:06:43Z</time>
      </trkpt>
      <trkpt lat="48.93497" lon="2.10099">
        <ele>77</ele>
        <time>2012-11-24T15:06:47Z</time>
      </trkpt>
      <trkpt lat="48.93503" lon="2.10101">
        <ele>77</ele>
        <time>2012-11-24T15:06:50Z</time>
      </trkpt>
      <trkpt lat="48.93508" lon="2.101">
        <ele>77</ele>
        <time>2012-11-24T15:06:55Z</time>
      </trkpt>
      <trkpt lat="48.93512" lon="2.101">
        <ele>77</ele>
        <time>2012-11-24T15:06:59Z</time>
      </trkpt>
      <trkpt lat="48.93522" lon="2.10099">
        <ele>77</ele>
        <time>2012-11-24T15:07:08Z</time>
      </trkpt>
      <trkpt lat="48.93527" lon="2.101">
        <ele>77</ele>
        <time>2012-11-24T15:07:11Z</time>
      </trkpt>
      <trkpt lat="48.93532" lon="2.10101">
        <ele>77</ele>
        <time>2012-11-24T15:07:15Z</time>
      </trkpt>
      <trkpt lat="48.93536" lon="2.10103">
        <ele>77</ele>
        <time>2012-11-24T15:07:18Z</time>
      </trkpt>
      <trkpt lat="48.93541" lon="2.10105">
        <ele>77</ele>
        <time>2012-11-24T15:07:22Z</time>
      </trkpt>
      <trkpt lat="48.93546" lon="2.10105">
        <ele>76</ele>
        <time>2012-11-24T15:07:26Z</time>
      </trkpt>
      <trkpt lat="48.9355" lon="2.10106">
        <ele>76</ele>
        <time>2012-11-24T15:07:29Z</time>
      </trkpt>
      <trkpt lat="48.93556" lon="2.10107">
        <ele>76</ele>
        <time>2012-11-24T15:07:34Z</time>
      </trkpt>
      <trkpt lat="48.93561" lon="2.10109">
        <ele>76</ele>
        <time>2012-11-24T15:07:39Z</time>
      </trkpt>
      <trkpt lat="48.93566" lon="2.10111">
        <ele>76</ele>
        <time>2012-11-24T15:07:43Z</time>
      </trkpt>
      <trkpt lat="48.93571" lon="2.10112">
        <ele>76</ele>
        <time>2012-11-24T15:07:47Z</time>
      </trkpt>
      <trkpt lat="48.93576" lon="2.10115">
        <ele>76</ele>
        <time>2012-11-24T15:07:50Z</time>
      </trkpt>
      <trkpt lat="48.93581" lon="2.10116">
        <ele>76</ele>
        <time>2012-11-24T15:07:55Z</time>
      </trkpt>
      <trkpt lat="48.93587" lon="2.10118">
        <ele>75</ele>
        <time>2012-11-24T15:08:00Z</time>
      </trkpt>
      <trkpt lat="48.93592" lon="2.1012">
        <ele>75</ele>
        <time>2012-11-24T15:08:05Z</time>
      </trkpt>
      <trkpt lat="48.93597" lon="2.10122">
        <ele>75</ele>
        <time>2012-11-24T15:08:10Z</time>
      </trkpt>
      <trkpt lat="48.93602" lon="2.10122">
        <ele>75</ele>
        <time>2012-11-24T15:08:13Z</time>
      </trkpt>
      <trkpt lat="48.93607" lon="2.10122">
        <ele>74</ele>
        <time>2012-11-24T15:08:18Z</time>
      </trkpt>
      <trkpt lat="48.93613" lon="2.10124">
        <ele>74</ele>
        <time>2012-11-24T15:08:21Z</time>
      </trkpt>
      <trkpt lat="48.93618" lon="2.10125">
        <ele>74</ele>
        <time>2012-11-24T15:08:25Z</time>
      </trkpt>
      <trkpt lat="48.93624" lon="2.10127">
        <ele>74</ele>
        <time>2012-11-24T15:08:28Z</time>
      </trkpt>
      <trkpt lat="48.93629" lon="2.10127">
        <ele>74</ele>
        <time>2012-11-24T15:08:32Z</time>
      </trkpt>
      <trkpt lat="48.93639" lon="2.10128">
        <ele>74</ele>
        <time>2012-11-24T15:08:41Z</time>
      </trkpt>
      <trkpt lat="48.93641" lon="2.10136">
        <ele>74</ele>
        <time>2012-11-24T15:09:36Z</time>
      </trkpt>
      <trkpt lat="48.94469" lon="2.10442">
        <ele>70</ele>
        <time>2012-11-24T15:23:28Z</time>
      </trkpt>
      <trkpt lat="48.94469" lon="2.10443">
        <ele>70</ele>
        <time>2012-11-24T15:23:36Z</time>
      </trkpt>
      <trkpt lat="48.94469" lon="2.10443">
        <ele>70</ele>
        <time>2012-11-24T15:23:37Z</time>
      </trkpt>
      <trkpt lat="48.94472" lon="2.10449">
        <ele>70</ele>
        <time>2012-11-24T15:24:14Z</time>
      </trkpt>
      <trkpt lat="48.94476" lon="2.10453">
        <ele>70</ele>
        <time>2012-11-24T15:24:20Z</time>
      </trkpt>
      <trkpt lat="48.9448" lon="2.10458">
        <ele>70</ele>
        <time>2012-11-24T15:24:27Z</time>
      </trkpt>
      <trkpt lat="48.94485" lon="2.10462">
        <ele>70</ele>
        <time>2012-11-24T15:24:31Z</time>
      </trkpt>
      <trkpt lat="48.94488" lon="2.10468">
        <ele>70</ele>
        <time>2012-11-24T15:24:35Z</time>
      </trkpt>
      <trkpt lat="48.94492" lon="2.10474">
        <ele>70</ele>
        <time>2012-11-24T15:24:39Z</time>
      </trkpt>
      <trkpt lat="48.94496" lon="2.10479">
        <ele>70</ele>
        <time>2012-11-24T15:24:42Z</time>
      </trkpt>
      <trkpt lat="48.94499" lon="2.10487">
        <ele>70</ele>
        <time>2012-11-24T15:24:46Z</time>
      </trkpt>
      <trkpt lat="48.94502" lon="2.10492">
        <ele>69</ele>
        <time>2012-11-24T15:24:49Z</time>
      </trkpt>
      <trkpt lat="48.94505" lon="2.10498">
        <ele>69</ele>
        <time>2012-11-24T15:24:52Z</time>
      </trkpt>
      <trkpt lat="48.94512" lon="2.10508">
        <ele>69</ele>
        <time>2012-11-24T15:25:00Z</time>
      </trkpt>
      <trkpt lat="48.94516" lon="2.10513">
        <ele>68</ele>
        <time>2012-11-24T15:25:04Z</time>
      </trkpt>
      <trkpt lat="48.9452" lon="2.10516">
        <ele>68</ele>
        <time>2012-11-24T15:25:08Z</time>
      </trkpt>
      <trkpt lat="48.94522" lon="2.10523">
        <ele>68</ele>
        <time>2012-11-24T15:25:11Z</time>
      </trkpt>
      <trkpt lat="48.94525" lon="2.10528">
        <ele>68</ele>
        <time>2012-11-24T15:25:14Z</time>
      </trkpt>
      <trkpt lat="48.94528" lon="2.10534">
        <ele>68</ele>
        <time>2012-11-24T15:25:17Z</time>
      </trkpt>
      <trkpt lat="48.94531" lon="2.1054">
        <ele>68</ele>
        <time>2012-11-24T15:25:21Z</time>
      </trkpt>
      <trkpt lat="48.94535" lon="2.10546">
        <ele>68</ele>
        <time>2012-11-24T15:25:25Z</time>
      </trkpt>
      <trkpt lat="48.94539" lon="2.1055">
        <ele>68</ele>
        <time>2012-11-24T15:25:29Z</time>
      </trkpt>
      <trkpt lat="48.94541" lon="2.10557">
        <ele>68</ele>
        <time>2012-11-24T15:25:32Z</time>
      </trkpt>
      <trkpt lat="48.94542" lon="2.10564">
        <ele>68</ele>
        <time>2012-11-24T15:25:37Z</time>
      </trkpt>
      <trkpt lat="48.94545" lon="2.10568">
        <ele>68</ele>
        <time>2012-11-24T15:25:41Z</time>
      </trkpt>
      <trkpt lat="48.94548" lon="2.10574">
        <ele>68</ele>
        <time>2012-11-24T15:25:45Z</time>
      </trkpt>
      <trkpt lat="48.94548" lon="2.10581">
        <ele>68</ele>
        <time>2012-11-24T15:25:49Z</time>
      </trkpt>
      <trkpt lat="48.94551" lon="2.10587">
        <ele>67</ele>
        <time>2012-11-24T15:25:52Z</time>
      </trkpt>
      <trkpt lat="48.94555" lon="2.10592">
        <ele>67</ele>
        <time>2012-11-24T15:25:57Z</time>
      </trkpt>
      <trkpt lat="48.94559" lon="2.10596">
        <ele>67</ele>
        <time>2012-11-24T15:26:02Z</time>
      </trkpt>
      <trkpt lat="48.94564" lon="2.10601">
        <ele>67</ele>
        <time>2012-11-24T15:26:06Z</time>
      </trkpt>
      <trkpt lat="48.94567" lon="2.10606">
        <ele>67</ele>
        <time>2012-11-24T15:26:09Z</time>
      </trkpt>
      <trkpt lat="48.94571" lon="2.10612">
        <ele>67</ele>
        <time>2012-11-24T15:26:12Z</time>
      </trkpt>
      <trkpt lat="48.94575" lon="2.10618">
        <ele>67</ele>
        <time>2012-11-24T15:26:15Z</time>
      </trkpt>
      <trkpt lat="48.94577" lon="2.10626">
        <ele>66</ele>
        <time>2012-11-24T15:26:18Z</time>
      </trkpt>
      <trkpt lat="48.9458" lon="2.10632">
        <ele>66</ele>
        <time>2012-11-24T15:26:21Z</time>
      </trkpt>
      <trkpt lat="48.94582" lon="2.1064">
        <ele>66</ele>
        <time>2012-11-24T15:26:23Z</time>
      </trkpt>
      <trkpt lat="48.94585" lon="2.10647">
        <ele>63</ele>
        <time>2012-11-24T15:26:28Z</time>
      </trkpt>
      <trkpt lat="48.94588" lon="2.10654">
        <ele>63</ele>
        <time>2012-11-24T15:26:33Z</time>
      </trkpt>
      <trkpt lat="48.9459" lon="2.1066">
        <ele>63</ele>
        <time>2012-11-24T15:26:37Z</time>
      </trkpt>
      <trkpt lat="48.94592" lon="2.10667">
        <ele>63</ele>
        <time>2012-11-24T15:26:40Z</time>
      </trkpt>
      <trkpt lat="48.94599" lon="2.10676">
        <ele>62</ele>
        <time>2012-11-24T15:26:50Z</time>
      </trkpt>
      <trkpt lat="48.94603" lon="2.10684">
        <ele>62</ele>
        <time>2012-11-24T15:26:53Z</time>
      </trkpt>
      <trkpt lat="48.94606" lon="2.1069">
        <ele>62</ele>
        <time>2012-11-24T15:26:58Z</time>
      </trkpt>
      <trkpt lat="48.9461" lon="2.10696">
        <ele>61</ele>
        <time>2012-11-24T15:27:02Z</time>
      </trkpt>
      <trkpt lat="48.94613" lon="2.10701">
        <ele>61</ele>
        <time>2012-11-24T15:27:05Z</time>
      </trkpt>
      <trkpt lat="48.94615" lon="2.10708">
        <ele>61</ele>
        <time>2012-11-24T15:27:10Z</time>
      </trkpt>
      <trkpt lat="48.9462" lon="2.10719">
        <ele>61</ele>
        <time>2012-11-24T15:27:16Z</time>
      </trkpt>
      <trkpt lat="48.94623" lon="2.10727">
        <ele>61</ele>
        <time>2012-11-24T15:27:19Z</time>
      </trkpt>
      <trkpt lat="48.94626" lon="2.10733">
        <ele>61</ele>
        <time>2012-11-24T15:27:23Z</time>
      </trkpt>
      <trkpt lat="48.94629" lon="2.10739">
        <ele>61</ele>
        <time>2012-11-24T15:27:26Z</time>
      </trkpt>
      <trkpt lat="48.94632" lon="2.10747">
        <ele>60</ele>
        <time>2012-11-24T15:27:32Z</time>
      </trkpt>
      <trkpt lat="48.94635" lon="2.10753">
        <ele>61</ele>
        <time>2012-11-24T15:27:37Z</time>
      </trkpt>
      <trkpt lat="48.94638" lon="2.1076">
        <ele>61</ele>
        <time>2012-11-24T15:27:42Z</time>
      </trkpt>
      <trkpt lat="48.94645" lon="2.10768">
        <ele>61</ele>
        <time>2012-11-24T15:27:49Z</time>
      </trkpt>
      <trkpt lat="48.94648" lon="2.10775">
        <ele>61</ele>
        <time>2012-11-24T15:27:53Z</time>
      </trkpt>
      <trkpt lat="48.94651" lon="2.10782">
        <ele>61</ele>
        <time>2012-11-24T15:27:56Z</time>
      </trkpt>
      <trkpt lat="48.94655" lon="2.10787">
        <ele>61</ele>
        <time>2012-11-24T15:27:59Z</time>
      </trkpt>
      <trkpt lat="48.94659" lon="2.10792">
        <ele>61</ele>
        <time>2012-11-24T15:28:02Z</time>
      </trkpt>
      <trkpt lat="48.94662" lon="2.10798">
        <ele>61</ele>
        <time>2012-11-24T15:28:06Z</time>
      </trkpt>
      <trkpt lat="48.94666" lon="2.10805">
        <ele>61</ele>
        <time>2012-11-24T15:28:09Z</time>
      </trkpt>
      <trkpt lat="48.94669" lon="2.10812">
        <ele>58</ele>
        <time>2012-11-24T15:28:14Z</time>
      </trkpt>
      <trkpt lat="48.94673" lon="2.10819">
        <ele>59</ele>
        <time>2012-11-24T15:28:21Z</time>
      </trkpt>
      <trkpt lat="48.94677" lon="2.10824">
        <ele>59</ele>
        <time>2012-11-24T15:28:26Z</time>
      </trkpt>
      <trkpt lat="48.94681" lon="2.1083">
        <ele>59</ele>
        <time>2012-11-24T15:28:31Z</time>
      </trkpt>
      <trkpt lat="48.94685" lon="2.10836">
        <ele>59</ele>
        <time>2012-11-24T15:28:34Z</time>
      </trkpt>
      <trkpt lat="48.94688" lon="2.10841">
        <ele>59</ele>
        <time>2012-11-24T15:28:39Z</time>
      </trkpt>
      <trkpt lat="48.94691" lon="2.10848">
        <ele>59</ele>
        <time>2012-11-24T15:28:44Z</time>
      </trkpt>
      <trkpt lat="48.94695" lon="2.10857">
        <ele>59</ele>
        <time>2012-11-24T15:28:47Z</time>
      </trkpt>
      <trkpt lat="48.94697" lon="2.10864">
        <ele>59</ele>
        <time>2012-11-24T15:28:54Z</time>
      </trkpt>
      <trkpt lat="48.947" lon="2.10871">
        <ele>59</ele>
        <time>2012-11-24T15:28:58Z</time>
      </trkpt>
      <trkpt lat="48.94704" lon="2.10878">
        <ele>59</ele>
        <time>2012-11-24T15:29:01Z</time>
      </trkpt>
      <trkpt lat="48.94707" lon="2.10883">
        <ele>59</ele>
        <time>2012-11-24T15:29:05Z</time>
      </trkpt>
      <trkpt lat="48.94711" lon="2.10891">
        <ele>59</ele>
        <time>2012-11-24T15:29:10Z</time>
      </trkpt>
      <trkpt lat="48.94713" lon="2.10896">
        <ele>59</ele>
        <time>2012-11-24T15:29:13Z</time>
      </trkpt>
      <trkpt lat="48.94716" lon="2.10903">
        <ele>59</ele>
        <time>2012-11-24T15:29:18Z</time>
      </trkpt>
      <trkpt lat="48.9472" lon="2.10908">
        <ele>58</ele>
        <time>2012-11-24T15:29:22Z</time>
      </trkpt>
      <trkpt lat="48.94723" lon="2.10913">
        <ele>58</ele>
        <time>2012-11-24T15:29:26Z</time>
      </trkpt>
      <trkpt lat="48.94727" lon="2.10919">
        <ele>60</ele>
        <time>2012-11-24T15:29:31Z</time>
      </trkpt>
      <trkpt lat="48.94731" lon="2.10927">
        <ele>60</ele>
        <time>2012-11-24T15:29:36Z</time>
      </trkpt>
      <trkpt lat="48.94733" lon="2.10933">
        <ele>60</ele>
        <time>2012-11-24T15:29:39Z</time>
      </trkpt>
      <trkpt lat="48.94736" lon="2.10939">
        <ele>61</ele>
        <time>2012-11-24T15:29:42Z</time>
      </trkpt>
      <trkpt lat="48.9474" lon="2.10944">
        <ele>61</ele>
        <time>2012-11-24T15:29:44Z</time>
      </trkpt>
      <trkpt lat="48.94745" lon="2.10949">
        <ele>61</ele>
        <time>2012-11-24T15:29:48Z</time>
      </trkpt>
      <trkpt lat="48.94748" lon="2.10954">
        <ele>61</ele>
        <time>2012-11-24T15:29:52Z</time>
      </trkpt>
      <trkpt lat="48.94752" lon="2.10957">
        <ele>59</ele>
        <time>2012-11-24T15:29:56Z</time>
      </trkpt>
      <trkpt lat="48.94752" lon="2.10965">
        <ele>60</ele>
        <time>2012-11-24T15:30:40Z</time>
      </trkpt>
      <trkpt lat="48.94748" lon="2.10967">
        <ele>62</ele>
        <time>2012-11-24T15:31:20Z</time>
      </trkpt>
      <trkpt lat="48.94743" lon="2.10966">
        <ele>62</ele>
        <time>2012-11-24T15:31:32Z</time>
      </trkpt>
      <trkpt lat="48.9474" lon="2.1096">
        <ele>62</ele>
        <time>2012-11-24T15:31:38Z</time>
      </trkpt>
      <trkpt lat="48.94735" lon="2.10958">
        <ele>62</ele>
        <time>2012-11-24T15:31:42Z</time>
      </trkpt>
      <trkpt lat="48.94744" lon="2.1096">
        <ele>62</ele>
        <time>2012-11-24T15:32:00Z</time>
      </trkpt>
      <trkpt lat="48.94751" lon="2.10959">
        <ele>59</ele>
        <time>2012-11-24T15:32:03Z</time>
      </trkpt>
      <trkpt lat="48.94755" lon="2.1096">
        <ele>59</ele>
        <time>2012-11-24T15:32:06Z</time>
      </trkpt>
      <trkpt lat="48.94761" lon="2.10961">
        <ele>59</ele>
        <time>2012-11-24T15:32:10Z</time>
      </trkpt>
      <trkpt lat="48.94765" lon="2.10961">
        <ele>59</ele>
        <time>2012-11-24T15:32:17Z</time>
      </trkpt>
      <trkpt lat="48.9477" lon="2.10964">
        <ele>59</ele>
        <time>2012-11-24T15:32:22Z</time>
      </trkpt>
      <trkpt lat="48.94775" lon="2.10965">
        <ele>59</ele>
        <time>2012-11-24T15:32:27Z</time>
      </trkpt>
      <trkpt lat="48.9478" lon="2.10966">
        <ele>59</ele>
        <time>2012-11-24T15:32:32Z</time>
      </trkpt>
      <trkpt lat="48.94785" lon="2.10968">
        <ele>59</ele>
        <time>2012-11-24T15:32:36Z</time>
      </trkpt>
      <trkpt lat="48.9479" lon="2.10969">
        <ele>59</ele>
        <time>2012-11-24T15:32:41Z</time>
      </trkpt>
      <trkpt lat="48.94795" lon="2.10972">
        <ele>59</ele>
        <time>2012-11-24T15:32:46Z</time>
      </trkpt>
      <trkpt lat="48.94801" lon="2.10974">
        <ele>59</ele>
        <time>2012-11-24T15:32:50Z</time>
      </trkpt>
      <trkpt lat="48.94806" lon="2.10977">
        <ele>59</ele>
        <time>2012-11-24T15:32:54Z</time>
      </trkpt>
      <trkpt lat="48.94812" lon="2.10978">
        <ele>59</ele>
        <time>2012-11-24T15:32:58Z</time>
      </trkpt>
      <trkpt lat="48.94817" lon="2.10978">
        <ele>59</ele>
        <time>2012-11-24T15:33:03Z</time>
      </trkpt>
      <trkpt lat="48.94827" lon="2.10982">
        <ele>59</ele>
        <time>2012-11-24T15:33:15Z</time>
      </trkpt>
      <trkpt lat="48.94832" lon="2.10985">
        <ele>59</ele>
        <time>2012-11-24T15:33:20Z</time>
      </trkpt>
      <trkpt lat="48.94838" lon="2.10985">
        <ele>58</ele>
        <time>2012-11-24T15:33:24Z</time>
      </trkpt>
      <trkpt lat="48.94842" lon="2.10986">
        <ele>58</ele>
        <time>2012-11-24T15:33:27Z</time>
      </trkpt>
      <trkpt lat="48.94846" lon="2.1099">
        <ele>58</ele>
        <time>2012-11-24T15:33:31Z</time>
      </trkpt>
      <trkpt lat="48.94852" lon="2.10991">
        <ele>58</ele>
        <time>2012-11-24T15:33:35Z</time>
      </trkpt>
      <trkpt lat="48.94857" lon="2.10992">
        <ele>58</ele>
        <time>2012-11-24T15:33:39Z</time>
      </trkpt>
      <trkpt lat="48.94862" lon="2.10992">
        <ele>57</ele>
        <time>2012-11-24T15:33:42Z</time>
      </trkpt>
      <trkpt lat="48.94867" lon="2.10996">
        <ele>57</ele>
        <time>2012-11-24T15:33:46Z</time>
      </trkpt>
      <trkpt lat="48.9487" lon="2.11003">
        <ele>59</ele>
        <time>2012-11-24T15:33:50Z</time>
      </trkpt>
      <trkpt lat="48.9487" lon="2.11011">
        <ele>59</ele>
        <time>2012-11-24T15:33:53Z</time>
      </trkpt>
      <trkpt lat="48.9487" lon="2.11019">
        <ele>59</ele>
        <time>2012-11-24T15:33:57Z</time>
      </trkpt>
      <trkpt lat="48.94872" lon="2.11026">
        <ele>59</ele>
        <time>2012-11-24T15:34:01Z</time>
      </trkpt>
      <trkpt lat="48.9487" lon="2.1104">
        <ele>60</ele>
        <time>2012-11-24T15:34:08Z</time>
      </trkpt>
      <trkpt lat="48.9487" lon="2.11049">
        <ele>60</ele>
        <time>2012-11-24T15:34:13Z</time>
      </trkpt>
      <trkpt lat="48.94867" lon="2.11058">
        <ele>60</ele>
        <time>2012-11-24T15:34:17Z</time>
      </trkpt>
      <trkpt lat="48.94865" lon="2.11066">
        <ele>60</ele>
        <time>2012-11-24T15:34:21Z</time>
      </trkpt>
      <trkpt lat="48.94865" lon="2.11073">
        <ele>60</ele>
        <time>2012-11-24T15:34:25Z</time>
      </trkpt>
      <trkpt lat="48.94866" lon="2.11081">
        <ele>61</ele>
        <time>2012-11-24T15:34:28Z</time>
      </trkpt>
      <trkpt lat="48.94869" lon="2.11087">
        <ele>62</ele>
        <time>2012-11-24T15:34:32Z</time>
      </trkpt>
      <trkpt lat="48.94869" lon="2.11095">
        <ele>62</ele>
        <time>2012-11-24T15:34:38Z</time>
      </trkpt>
      <trkpt lat="48.94869" lon="2.11102">
        <ele>62</ele>
        <time>2012-11-24T15:34:42Z</time>
      </trkpt>
      <trkpt lat="48.94869" lon="2.11109">
        <ele>63</ele>
        <time>2012-11-24T15:34:45Z</time>
      </trkpt>
      <trkpt lat="48.94871" lon="2.11117">
        <ele>63</ele>
        <time>2012-11-24T15:34:50Z</time>
      </trkpt>
      <trkpt lat="48.94872" lon="2.11126">
        <ele>63</ele>
        <time>2012-11-24T15:34:55Z</time>
      </trkpt>
      <trkpt lat="48.94872" lon="2.11134">
        <ele>63</ele>
        <time>2012-11-24T15:35:00Z</time>
      </trkpt>
      <trkpt lat="48.94872" lon="2.11141">
        <ele>63</ele>
        <time>2012-11-24T15:35:04Z</time>
      </trkpt>
      <trkpt lat="48.94873" lon="2.11148">
        <ele>63</ele>
        <time>2012-11-24T15:35:08Z</time>
      </trkpt>
      <trkpt lat="48.94874" lon="2.11156">
        <ele>63</ele>
        <time>2012-11-24T15:35:12Z</time>
      </trkpt>
      <trkpt lat="48.94875" lon="2.11163">
        <ele>63</ele>
        <time>2012-11-24T15:35:15Z</time>
      </trkpt>
      <trkpt lat="48.94875" lon="2.11171">
        <ele>64</ele>
        <time>2012-11-24T15:35:19Z</time>
      </trkpt>
      <trkpt lat="48.94875" lon="2.11179">
        <ele>65</ele>
        <time>2012-11-24T15:35:23Z</time>
      </trkpt>
      <trkpt lat="48.94876" lon="2.11186">
        <ele>65</ele>
        <time>2012-11-24T15:35:27Z</time>
      </trkpt>
      <trkpt lat="48.94877" lon="2.11193">
        <ele>65</ele>
        <time>2012-11-24T15:35:29Z</time>
      </trkpt>
      <trkpt lat="48.94876" lon="2.11201">
        <ele>65</ele>
        <time>2012-11-24T15:35:32Z</time>
      </trkpt>
      <trkpt lat="48.94874" lon="2.11209">
        <ele>65</ele>
        <time>2012-11-24T15:35:35Z</time>
      </trkpt>
      <trkpt lat="48.94875" lon="2.11217">
        <ele>65</ele>
        <time>2012-11-24T15:35:46Z</time>
      </trkpt>
      <trkpt lat="48.94878" lon="2.11229">
        <ele>65</ele>
        <time>2012-11-24T15:36:07Z</time>
      </trkpt>
      <trkpt lat="48.94878" lon="2.11237">
        <ele>65</ele>
        <time>2012-11-24T15:36:12Z</time>
      </trkpt>
      <trkpt lat="48.94876" lon="2.11244">
        <ele>65</ele>
        <time>2012-11-24T15:36:18Z</time>
      </trkpt>
      <trkpt lat="48.94876" lon="2.11253">
        <ele>65</ele>
        <time>2012-11-24T15:36:22Z</time>
      </trkpt>
      <trkpt lat="48.94876" lon="2.11262">
        <ele>65</ele>
        <time>2012-11-24T15:36:28Z</time>
      </trkpt>
      <trkpt lat="48.94876" lon="2.11269">
        <ele>65</ele>
        <time>2012-11-24T15:36:32Z</time>
      </trkpt>
      <trkpt lat="48.94876" lon="2.11276">
        <ele>65</ele>
        <time>2012-11-24T15:36:36Z</time>
      </trkpt>
      <trkpt lat="48.94875" lon="2.11284">
        <ele>65</ele>
        <time>2012-11-24T15:36:40Z</time>
      </trkpt>
      <trkpt lat="48.94874" lon="2.11291">
        <ele>65</ele>
        <time>2012-11-24T15:36:44Z</time>
      </trkpt>
      <trkpt lat="48.94874" lon="2.113">
        <ele>65</ele>
        <time>2012-11-24T15:36:49Z</time>
      </trkpt>
      <trkpt lat="48.94874" lon="2.11314">
        <ele>65</ele>
        <time>2012-11-24T15:36:56Z</time>
      </trkpt>
      <trkpt lat="48.94873" lon="2.11321">
        <ele>65</ele>
        <time>2012-11-24T15:36:59Z</time>
      </trkpt>
      <trkpt lat="48.94872" lon="2.11329">
        <ele>65</ele>
        <time>2012-11-24T15:37:04Z</time>
      </trkpt>
      <trkpt lat="48.9487" lon="2.11337">
        <ele>64</ele>
        <time>2012-11-24T15:37:08Z</time>
      </trkpt>
      <trkpt lat="48.9487" lon="2.11345">
        <ele>64</ele>
        <time>2012-11-24T15:37:12Z</time>
      </trkpt>
      <trkpt lat="48.94868" lon="2.11352">
        <ele>64</ele>
        <time>2012-11-24T15:37:15Z</time>
      </trkpt>
      <trkpt lat="48.94868" lon="2.11359">
        <ele>64</ele>
        <time>2012-11-24T15:37:19Z</time>
      </trkpt>
      <trkpt lat="48.94868" lon="2.11366">
        <ele>64</ele>
        <time>2012-11-24T15:37:23Z</time>
      </trkpt>
      <trkpt lat="48.94867" lon="2.11374">
        <ele>64</ele>
        <time>2012-11-24T15:37:27Z</time>
      </trkpt>
      <trkpt lat="48.94866" lon="2.11381">
        <ele>64</ele>
        <time>2012-11-24T15:37:31Z</time>
      </trkpt>
      <trkpt lat="48.94865" lon="2.1139">
        <ele>64</ele>
        <time>2012-11-24T15:37:34Z</time>
      </trkpt>
      <trkpt lat="48.94865" lon="2.11398">
        <ele>64</ele>
        <time>2012-11-24T15:37:39Z</time>
      </trkpt>
      <trkpt lat="48.94865" lon="2.11406">
        <ele>64</ele>
        <time>2012-11-24T15:37:43Z</time>
      </trkpt>
      <trkpt lat="48.94865" lon="2.11414">
        <ele>64</ele>
        <time>2012-11-24T15:37:46Z</time>
      </trkpt>
      <trkpt lat="48.94865" lon="2.11422">
        <ele>63</ele>
        <time>2012-11-24T15:37:51Z</time>
      </trkpt>
      <trkpt lat="48.94864" lon="2.1143">
        <ele>63</ele>
        <time>2012-11-24T15:37:55Z</time>
      </trkpt>
      <trkpt lat="48.94864" lon="2.11438">
        <ele>63</ele>
        <time>2012-11-24T15:38:00Z</time>
      </trkpt>
      <trkpt lat="48.94864" lon="2.11446">
        <ele>63</ele>
        <time>2012-11-24T15:38:06Z</time>
      </trkpt>
      <trkpt lat="48.94866" lon="2.11453">
        <ele>64</ele>
        <time>2012-11-24T15:38:16Z</time>
      </trkpt>
      <trkpt lat="48.94864" lon="2.11459">
        <ele>64</ele>
        <time>2012-11-24T15:38:20Z</time>
      </trkpt>
      <trkpt lat="48.94862" lon="2.11474">
        <ele>63</ele>
        <time>2012-11-24T15:38:27Z</time>
      </trkpt>
      <trkpt lat="48.94862" lon="2.11482">
        <ele>63</ele>
        <time>2012-11-24T15:38:30Z</time>
      </trkpt>
      <trkpt lat="48.94862" lon="2.1149">
        <ele>63</ele>
        <time>2012-11-24T15:38:34Z</time>
      </trkpt>
      <trkpt lat="48.9486" lon="2.11497">
        <ele>63</ele>
        <time>2012-11-24T15:38:37Z</time>
      </trkpt>
      <trkpt lat="48.94859" lon="2.11505">
        <ele>63</ele>
        <time>2012-11-24T15:38:39Z</time>
      </trkpt>
      <trkpt lat="48.94858" lon="2.11514">
        <ele>63</ele>
        <time>2012-11-24T15:38:44Z</time>
      </trkpt>
      <trkpt lat="48.94858" lon="2.11522">
        <ele>63</ele>
        <time>2012-11-24T15:38:46Z</time>
      </trkpt>
      <trkpt lat="48.94858" lon="2.11529">
        <ele>63</ele>
        <time>2012-11-24T15:38:51Z</time>
      </trkpt>
      <trkpt lat="48.94857" lon="2.11538">
        <ele>63</ele>
        <time>2012-11-24T15:38:54Z</time>
      </trkpt>
      <trkpt lat="48.94855" lon="2.11546">
        <ele>63</ele>
        <time>2012-11-24T15:38:59Z</time>
      </trkpt>
      <trkpt lat="48.94855" lon="2.11554">
        <ele>63</ele>
        <time>2012-11-24T15:39:03Z</time>
      </trkpt>
      <trkpt lat="48.94855" lon="2.11561">
        <ele>63</ele>
        <time>2012-11-24T15:39:07Z</time>
      </trkpt>
      <trkpt lat="48.94855" lon="2.11568">
        <ele>63</ele>
        <time>2012-11-24T15:39:11Z</time>
      </trkpt>
      <trkpt lat="48.94855" lon="2.11576">
        <ele>63</ele>
        <time>2012-11-24T15:39:15Z</time>
      </trkpt>
      <trkpt lat="48.94854" lon="2.1159">
        <ele>62</ele>
        <time>2012-11-24T15:39:22Z</time>
      </trkpt>
      <trkpt lat="48.94853" lon="2.11597">
        <ele>62</ele>
        <time>2012-11-24T15:39:25Z</time>
      </trkpt>
      <trkpt lat="48.94852" lon="2.11605">
        <ele>62</ele>
        <time>2012-11-24T15:39:30Z</time>
      </trkpt>
      <trkpt lat="48.94853" lon="2.11613">
        <ele>62</ele>
        <time>2012-11-24T15:39:34Z</time>
      </trkpt>
      <trkpt lat="48.94852" lon="2.11621">
        <ele>62</ele>
        <time>2012-11-24T15:39:38Z</time>
      </trkpt>
      <trkpt lat="48.94853" lon="2.11628">
        <ele>62</ele>
        <time>2012-11-24T15:39:42Z</time>
      </trkpt>
      <trkpt lat="48.94852" lon="2.11635">
        <ele>62</ele>
        <time>2012-11-24T15:39:45Z</time>
      </trkpt>
      <trkpt lat="48.94851" lon="2.11642">
        <ele>62</ele>
        <time>2012-11-24T15:39:49Z</time>
      </trkpt>
      <trkpt lat="48.9485" lon="2.11649">
        <ele>62</ele>
        <time>2012-11-24T15:39:52Z</time>
      </trkpt>
      <trkpt lat="48.9485" lon="2.11657">
        <ele>62</ele>
        <time>2012-11-24T15:39:57Z</time>
      </trkpt>
      <trkpt lat="48.94849" lon="2.11665">
        <ele>62</ele>
        <time>2012-11-24T15:40:01Z</time>
      </trkpt>
      <trkpt lat="48.94847" lon="2.11671">
        <ele>63</ele>
        <time>2012-11-24T15:40:05Z</time>
      </trkpt>
      <trkpt lat="48.94847" lon="2.11679">
        <ele>63</ele>
        <time>2012-11-24T15:40:08Z</time>
      </trkpt>
      <trkpt lat="48.94848" lon="2.11686">
        <ele>63</ele>
        <time>2012-11-24T15:40:11Z</time>
      </trkpt>
      <trkpt lat="48.94847" lon="2.11693">
        <ele>63</ele>
        <time>2012-11-24T15:40:15Z</time>
      </trkpt>
      <trkpt lat="48.94847" lon="2.11701">
        <ele>63</ele>
        <time>2012-11-24T15:40:20Z</time>
      </trkpt>
      <trkpt lat="48.94845" lon="2.11707">
        <ele>64</ele>
        <time>2012-11-24T15:40:23Z</time>
      </trkpt>
      <trkpt lat="48.94844" lon="2.11716">
        <ele>64</ele>
        <time>2012-11-24T15:40:28Z</time>
      </trkpt>
      <trkpt lat="48.94844" lon="2.11723">
        <ele>64</ele>
        <time>2012-11-24T15:40:32Z</time>
      </trkpt>
      <trkpt lat="48.94844" lon="2.11733">
        <ele>64</ele>
        <time>2012-11-24T15:40:36Z</time>
      </trkpt>
      <trkpt lat="48.94844" lon="2.1174">
        <ele>64</ele>
        <time>2012-11-24T15:40:41Z</time>
      </trkpt>
      <trkpt lat="48.94844" lon="2.11748">
        <ele>65</ele>
        <time>2012-11-24T15:40:45Z</time>
      </trkpt>
      <trkpt lat="48.94845" lon="2.11755">
        <ele>65</ele>
        <time>2012-11-24T15:40:48Z</time>
      </trkpt>
      <trkpt lat="48.94843" lon="2.11763">
        <ele>65</ele>
        <time>2012-11-24T15:40:52Z</time>
      </trkpt>
      <trkpt lat="48.94844" lon="2.11771">
        <ele>65</ele>
        <time>2012-11-24T15:40:56Z</time>
      </trkpt>
      <trkpt lat="48.94845" lon="2.11779">
        <ele>65</ele>
        <time>2012-11-24T15:41:00Z</time>
      </trkpt>
      <trkpt lat="48.94844" lon="2.11787">
        <ele>65</ele>
        <time>2012-11-24T15:41:03Z</time>
      </trkpt>
      <trkpt lat="48.94843" lon="2.11794">
        <ele>65</ele>
        <time>2012-11-24T15:41:06Z</time>
      </trkpt>
      <trkpt lat="48.94842" lon="2.11803">
        <ele>65</ele>
        <time>2012-11-24T15:41:12Z</time>
      </trkpt>
      <trkpt lat="48.94842" lon="2.1181">
        <ele>65</ele>
        <time>2012-11-24T15:41:17Z</time>
      </trkpt>
      <trkpt lat="48.94844" lon="2.11817">
        <ele>65</ele>
        <time>2012-11-24T15:41:21Z</time>
      </trkpt>
      <trkpt lat="48.94844" lon="2.1183">
        <ele>65</ele>
        <time>2012-11-24T15:41:28Z</time>
      </trkpt>
      <trkpt lat="48.94844" lon="2.11839">
        <ele>65</ele>
        <time>2012-11-24T15:41:32Z</time>
      </trkpt>
      <trkpt lat="48.94845" lon="2.11847">
        <ele>65</ele>
        <time>2012-11-24T15:41:37Z</time>
      </trkpt>
      <trkpt lat="48.94843" lon="2.11855">
        <ele>65</ele>
        <time>2012-11-24T15:41:42Z</time>
      </trkpt>
      <trkpt lat="48.94842" lon="2.11862">
        <ele>65</ele>
        <time>2012-11-24T15:41:46Z</time>
      </trkpt>
      <trkpt lat="48.9484" lon="2.11871">
        <ele>65</ele>
        <time>2012-11-24T15:41:50Z</time>
      </trkpt>
      <trkpt lat="48.94838" lon="2.11877">
        <ele>65</ele>
        <time>2012-11-24T15:41:53Z</time>
      </trkpt>
      <trkpt lat="48.94837" lon="2.11886">
        <ele>65</ele>
        <time>2012-11-24T15:41:56Z</time>
      </trkpt>
      <trkpt lat="48.94836" lon="2.11893">
        <ele>64</ele>
        <time>2012-11-24T15:41:59Z</time>
      </trkpt>
      <trkpt lat="48.94835" lon="2.119">
        <ele>64</ele>
        <time>2012-11-24T15:42:03Z</time>
      </trkpt>
      <trkpt lat="48.94834" lon="2.11907">
        <ele>64</ele>
        <time>2012-11-24T15:42:06Z</time>
      </trkpt>
      <trkpt lat="48.94833" lon="2.11921">
        <ele>64</ele>
        <time>2012-11-24T15:42:14Z</time>
      </trkpt>
      <trkpt lat="48.94833" lon="2.1193">
        <ele>65</ele>
        <time>2012-11-24T15:42:18Z</time>
      </trkpt>
      <trkpt lat="48.94832" lon="2.11937">
        <ele>65</ele>
        <time>2012-11-24T15:42:22Z</time>
      </trkpt>
      <trkpt lat="48.94831" lon="2.11946">
        <ele>65</ele>
        <time>2012-11-24T15:42:26Z</time>
      </trkpt>
      <trkpt lat="48.9483" lon="2.11953">
        <ele>65</ele>
        <time>2012-11-24T15:42:29Z</time>
      </trkpt>
      <trkpt lat="48.94828" lon="2.1196">
        <ele>65</ele>
        <time>2012-11-24T15:42:36Z</time>
      </trkpt>
      <trkpt lat="48.94825" lon="2.11968">
        <ele>65</ele>
        <time>2012-11-24T15:42:40Z</time>
      </trkpt>
      <trkpt lat="48.94824" lon="2.11976">
        <ele>65</ele>
        <time>2012-11-24T15:42:43Z</time>
      </trkpt>
      <trkpt lat="48.94824" lon="2.11985">
        <ele>65</ele>
        <time>2012-11-24T15:42:47Z</time>
      </trkpt>
      <trkpt lat="48.94825" lon="2.12">
        <ele>65</ele>
        <time>2012-11-24T15:42:56Z</time>
      </trkpt>
      <trkpt lat="48.94825" lon="2.12008">
        <ele>65</ele>
        <time>2012-11-24T15:43:01Z</time>
      </trkpt>
      <trkpt lat="48.94825" lon="2.12015">
        <ele>65</ele>
        <time>2012-11-24T15:43:04Z</time>
      </trkpt>
      <trkpt lat="48.94826" lon="2.12024">
        <ele>65</ele>
        <time>2012-11-24T15:43:08Z</time>
      </trkpt>
      <trkpt lat="48.94826" lon="2.12032">
        <ele>65</ele>
        <time>2012-11-24T15:43:11Z</time>
      </trkpt>
      <trkpt lat="48.94825" lon="2.12041">
        <ele>65</ele>
        <time>2012-11-24T15:43:15Z</time>
      </trkpt>
      <trkpt lat="48.94823" lon="2.12049">
        <ele>65</ele>
        <time>2012-11-24T15:43:20Z</time>
      </trkpt>
      <trkpt lat="48.94822" lon="2.12056">
        <ele>65</ele>
        <time>2012-11-24T15:43:27Z</time>
      </trkpt>
      <trkpt lat="48.94822" lon="2.12064">
        <ele>65</ele>
        <time>2012-11-24T15:43:30Z</time>
      </trkpt>
      <trkpt lat="48.9482" lon="2.12077">
        <ele>65</ele>
        <time>2012-11-24T15:43:38Z</time>
      </trkpt>
      <trkpt lat="48.94819" lon="2.12085">
        <ele>65</ele>
        <time>2012-11-24T15:43:42Z</time>
      </trkpt>
      <trkpt lat="48.94818" lon="2.12092">
        <ele>65</ele>
        <time>2012-11-24T15:43:46Z</time>
      </trkpt>
      <trkpt lat="48.94817" lon="2.121">
        <ele>65</ele>
        <time>2012-11-24T15:43:51Z</time>
      </trkpt>
      <trkpt lat="48.94817" lon="2.12107">
        <ele>64</ele>
        <time>2012-11-24T15:43:55Z</time>
      </trkpt>
      <trkpt lat="48.94815" lon="2.12116">
        <ele>64</ele>
        <time>2012-11-24T15:43:59Z</time>
      </trkpt>
      <trkpt lat="48.94814" lon="2.12124">
        <ele>64</ele>
        <time>2012-11-24T15:44:04Z</time>
      </trkpt>
      <trkpt lat="48.94814" lon="2.12132">
        <ele>64</ele>
        <time>2012-11-24T15:44:09Z</time>
      </trkpt>
      <trkpt lat="48.94813" lon="2.12141">
        <ele>64</ele>
        <time>2012-11-24T15:44:13Z</time>
      </trkpt>
      <trkpt lat="48.94812" lon="2.12148">
        <ele>64</ele>
        <time>2012-11-24T15:44:17Z</time>
      </trkpt>
      <trkpt lat="48.94812" lon="2.12156">
        <ele>63</ele>
        <time>2012-11-24T15:44:21Z</time>
      </trkpt>
      <trkpt lat="48.94812" lon="2.12164">
        <ele>63</ele>
        <time>2012-11-24T15:44:24Z</time>
      </trkpt>
      <trkpt lat="48.94812" lon="2.12171">
        <ele>62</ele>
        <time>2012-11-24T15:44:28Z</time>
      </trkpt>
      <trkpt lat="48.94813" lon="2.12178">
        <ele>62</ele>
        <time>2012-11-24T15:44:33Z</time>
      </trkpt>
      <trkpt lat="48.94813" lon="2.12185">
        <ele>62</ele>
        <time>2012-11-24T15:44:36Z</time>
      </trkpt>
      <trkpt lat="48.94813" lon="2.12193">
        <ele>62</ele>
        <time>2012-11-24T15:44:40Z</time>
      </trkpt>
      <trkpt lat="48.94813" lon="2.12203">
        <ele>62</ele>
        <time>2012-11-24T15:44:43Z</time>
      </trkpt>
      <trkpt lat="48.94812" lon="2.12212">
        <ele>62</ele>
        <time>2012-11-24T15:44:47Z</time>
      </trkpt>
      <trkpt lat="48.94812" lon="2.1222">
        <ele>62</ele>
        <time>2012-11-24T15:44:50Z</time>
      </trkpt>
      <trkpt lat="48.9481" lon="2.12229">
        <ele>62</ele>
        <time>2012-11-24T15:44:55Z</time>
      </trkpt>
      <trkpt lat="48.94809" lon="2.12236">
        <ele>62</ele>
        <time>2012-11-24T15:44:59Z</time>
      </trkpt>
      <trkpt lat="48.94807" lon="2.12245">
        <ele>62</ele>
        <time>2012-11-24T15:45:06Z</time>
      </trkpt>
      <trkpt lat="48.94806" lon="2.12259">
        <ele>61</ele>
        <time>2012-11-24T15:45:12Z</time>
      </trkpt>
      <trkpt lat="48.94804" lon="2.12266">
        <ele>61</ele>
        <time>2012-11-24T15:45:16Z</time>
      </trkpt>
      <trkpt lat="48.94804" lon="2.12274">
        <ele>61</ele>
        <time>2012-11-24T15:45:19Z</time>
      </trkpt>
      <trkpt lat="48.94804" lon="2.12283">
        <ele>61</ele>
        <time>2012-11-24T15:45:23Z</time>
      </trkpt>
      <trkpt lat="48.94807" lon="2.1229">
        <ele>61</ele>
        <time>2012-11-24T15:45:30Z</time>
      </trkpt>
      <trkpt lat="48.94809" lon="2.12299">
        <ele>61</ele>
        <time>2012-11-24T15:45:33Z</time>
      </trkpt>
      <trkpt lat="48.9481" lon="2.12308">
        <ele>61</ele>
        <time>2012-11-24T15:45:37Z</time>
      </trkpt>
      <trkpt lat="48.9481" lon="2.12315">
        <ele>61</ele>
        <time>2012-11-24T15:45:40Z</time>
      </trkpt>
      <trkpt lat="48.94811" lon="2.12329">
        <ele>61</ele>
        <time>2012-11-24T15:45:49Z</time>
      </trkpt>
      <trkpt lat="48.94809" lon="2.12336">
        <ele>60</ele>
        <time>2012-11-24T15:45:52Z</time>
      </trkpt>
      <trkpt lat="48.94808" lon="2.12343">
        <ele>61</ele>
        <time>2012-11-24T15:45:55Z</time>
      </trkpt>
      <trkpt lat="48.94806" lon="2.12351">
        <ele>61</ele>
        <time>2012-11-24T15:45:59Z</time>
      </trkpt>
      <trkpt lat="48.94805" lon="2.12365">
        <ele>61</ele>
        <time>2012-11-24T15:46:09Z</time>
      </trkpt>
      <trkpt lat="48.94806" lon="2.12373">
        <ele>61</ele>
        <time>2012-11-24T15:46:12Z</time>
      </trkpt>
      <trkpt lat="48.94808" lon="2.1238">
        <ele>61</ele>
        <time>2012-11-24T15:46:16Z</time>
      </trkpt>
      <trkpt lat="48.9481" lon="2.12388">
        <ele>61</ele>
        <time>2012-11-24T15:46:19Z</time>
      </trkpt>
      <trkpt lat="48.94806" lon="2.12395">
        <ele>61</ele>
        <time>2012-11-24T15:46:23Z</time>
      </trkpt>
      <trkpt lat="48.94804" lon="2.12402">
        <ele>61</ele>
        <time>2012-11-24T15:46:27Z</time>
      </trkpt>
      <trkpt lat="48.94802" lon="2.12409">
        <ele>61</ele>
        <time>2012-11-24T15:46:30Z</time>
      </trkpt>
      <trkpt lat="48.94802" lon="2.12416">
        <ele>61</ele>
        <time>2012-11-24T15:46:34Z</time>
      </trkpt>
      <trkpt lat="48.94802" lon="2.12423">
        <ele>62</ele>
        <time>2012-11-24T15:46:38Z</time>
      </trkpt>
      <trkpt lat="48.94801" lon="2.12433">
        <ele>62</ele>
        <time>2012-11-24T15:46:43Z</time>
      </trkpt>
      <trkpt lat="48.94802" lon="2.1244">
        <ele>62</ele>
        <time>2012-11-24T15:46:47Z</time>
      </trkpt>
      <trkpt lat="48.94802" lon="2.12449">
        <ele>62</ele>
        <time>2012-11-24T15:46:52Z</time>
      </trkpt>
      <trkpt lat="48.94798" lon="2.12462">
        <ele>62</ele>
        <time>2012-11-24T15:47:06Z</time>
      </trkpt>
      <trkpt lat="48.94799" lon="2.1247">
        <ele>62</ele>
        <time>2012-11-24T15:47:11Z</time>
      </trkpt>
      <trkpt lat="48.94799" lon="2.12477">
        <ele>62</ele>
        <time>2012-11-24T15:47:17Z</time>
      </trkpt>
      <trkpt lat="48.94799" lon="2.12485">
        <ele>62</ele>
        <time>2012-11-24T15:47:22Z</time>
      </trkpt>
      <trkpt lat="48.94799" lon="2.12492">
        <ele>62</ele>
        <time>2012-11-24T15:47:27Z</time>
      </trkpt>
      <trkpt lat="48.94798" lon="2.12499">
        <ele>62</ele>
        <time>2012-11-24T15:47:31Z</time>
      </trkpt>
      <trkpt lat="48.94794" lon="2.12508">
        <ele>63</ele>
        <time>2012-11-24T15:47:36Z</time>
      </trkpt>
      <trkpt lat="48.94794" lon="2.12522">
        <ele>63</ele>
        <time>2012-11-24T15:47:43Z</time>
      </trkpt>
      <trkpt lat="48.94794" lon="2.1253">
        <ele>63</ele>
        <time>2012-11-24T15:47:46Z</time>
      </trkpt>
      <trkpt lat="48.94793" lon="2.12539">
        <ele>63</ele>
        <time>2012-11-24T15:47:50Z</time>
      </trkpt>
      <trkpt lat="48.94791" lon="2.12547">
        <ele>63</ele>
        <time>2012-11-24T15:47:53Z</time>
      </trkpt>
      <trkpt lat="48.9479" lon="2.12555">
        <ele>63</ele>
        <time>2012-11-24T15:47:57Z</time>
      </trkpt>
      <trkpt lat="48.94791" lon="2.12562">
        <ele>63</ele>
        <time>2012-11-24T15:48:02Z</time>
      </trkpt>
      <trkpt lat="48.94794" lon="2.12568">
        <ele>63</ele>
        <time>2012-11-24T15:48:06Z</time>
      </trkpt>
      <trkpt lat="48.94794" lon="2.12576">
        <ele>63</ele>
        <time>2012-11-24T15:48:11Z</time>
      </trkpt>
      <trkpt lat="48.94794" lon="2.12584">
        <ele>63</ele>
        <time>2012-11-24T15:48:16Z</time>
      </trkpt>
      <trkpt lat="48.94793" lon="2.12592">
        <ele>63</ele>
        <time>2012-11-24T15:48:22Z</time>
      </trkpt>
      <trkpt lat="48.94793" lon="2.12599">
        <ele>63</ele>
        <time>2012-11-24T15:48:25Z</time>
      </trkpt>
      <trkpt lat="48.94793" lon="2.12608">
        <ele>63</ele>
        <time>2012-11-24T15:48:29Z</time>
      </trkpt>
      <trkpt lat="48.94794" lon="2.12615">
        <ele>63</ele>
        <time>2012-11-24T15:48:32Z</time>
      </trkpt>
      <trkpt lat="48.94794" lon="2.12622">
        <ele>63</ele>
        <time>2012-11-24T15:48:35Z</time>
      </trkpt>
      <trkpt lat="48.94794" lon="2.1263">
        <ele>63</ele>
        <time>2012-11-24T15:48:37Z</time>
      </trkpt>
      <trkpt lat="48.94794" lon="2.12638">
        <ele>63</ele>
        <time>2012-11-24T15:48:41Z</time>
      </trkpt>
      <trkpt lat="48.94796" lon="2.12646">
        <ele>63</ele>
        <time>2012-11-24T15:48:45Z</time>
      </trkpt>
      <trkpt lat="48.94796" lon="2.12654">
        <ele>63</ele>
        <time>2012-11-24T15:48:49Z</time>
      </trkpt>
      <trkpt lat="48.94795" lon="2.12661">
        <ele>63</ele>
        <time>2012-11-24T15:48:53Z</time>
      </trkpt>
      <trkpt lat="48.94794" lon="2.1267">
        <ele>62</ele>
        <time>2012-11-24T15:48:59Z</time>
      </trkpt>
      <trkpt lat="48.94793" lon="2.12677">
        <ele>62</ele>
        <time>2012-11-24T15:49:05Z</time>
      </trkpt>
      <trkpt lat="48.94792" lon="2.12685">
        <ele>62</ele>
        <time>2012-11-24T15:49:10Z</time>
      </trkpt>
      <trkpt lat="48.9479" lon="2.12692">
        <ele>62</ele>
        <time>2012-11-24T15:49:14Z</time>
      </trkpt>
      <trkpt lat="48.9479" lon="2.127">
        <ele>62</ele>
        <time>2012-11-24T15:49:17Z</time>
      </trkpt>
      <trkpt lat="48.94787" lon="2.12706">
        <ele>62</ele>
        <time>2012-11-24T15:49:21Z</time>
      </trkpt>
      <trkpt lat="48.94787" lon="2.12714">
        <ele>62</ele>
        <time>2012-11-24T15:49:25Z</time>
      </trkpt>
      <trkpt lat="48.94786" lon="2.12722">
        <ele>62</ele>
        <time>2012-11-24T15:49:29Z</time>
      </trkpt>
      <trkpt lat="48.94784" lon="2.1273">
        <ele>62</ele>
        <time>2012-11-24T15:49:34Z</time>
      </trkpt>
      <trkpt lat="48.94783" lon="2.12737">
        <ele>62</ele>
        <time>2012-11-24T15:49:37Z</time>
      </trkpt>
      <trkpt lat="48.94784" lon="2.12745">
        <ele>62</ele>
        <time>2012-11-24T15:49:41Z</time>
      </trkpt>
      <trkpt lat="48.94783" lon="2.1276">
        <ele>61</ele>
        <time>2012-11-24T15:49:48Z</time>
      </trkpt>
      <trkpt lat="48.94781" lon="2.12767">
        <ele>61</ele>
        <time>2012-11-24T15:49:53Z</time>
      </trkpt>
      <trkpt lat="48.94783" lon="2.12774">
        <ele>61</ele>
        <time>2012-11-24T15:49:58Z</time>
      </trkpt>
      <trkpt lat="48.9478" lon="2.12782">
        <ele>61</ele>
        <time>2012-11-24T15:50:01Z</time>
      </trkpt>
      <trkpt lat="48.94779" lon="2.1279">
        <ele>61</ele>
        <time>2012-11-24T15:50:06Z</time>
      </trkpt>
      <trkpt lat="48.94778" lon="2.12797">
        <ele>61</ele>
        <time>2012-11-24T15:50:11Z</time>
      </trkpt>
      <trkpt lat="48.94777" lon="2.12805">
        <ele>61</ele>
        <time>2012-11-24T15:50:15Z</time>
      </trkpt>
      <trkpt lat="48.94776" lon="2.12819">
        <ele>61</ele>
        <time>2012-11-24T15:50:22Z</time>
      </trkpt>
      <trkpt lat="48.94777" lon="2.12829">
        <ele>61</ele>
        <time>2012-11-24T15:50:26Z</time>
      </trkpt>
      <trkpt lat="48.94776" lon="2.12837">
        <ele>60</ele>
        <time>2012-11-24T15:50:29Z</time>
      </trkpt>
      <trkpt lat="48.94775" lon="2.12846">
        <ele>60</ele>
        <time>2012-11-24T15:50:33Z</time>
      </trkpt>
      <trkpt lat="48.94776" lon="2.12853">
        <ele>60</ele>
        <time>2012-11-24T15:50:37Z</time>
      </trkpt>
      <trkpt lat="48.94774" lon="2.1286">
        <ele>60</ele>
        <time>2012-11-24T15:50:41Z</time>
      </trkpt>
      <trkpt lat="48.94774" lon="2.12875">
        <ele>60</ele>
        <time>2012-11-24T15:50:48Z</time>
      </trkpt>
      <trkpt lat="48.94773" lon="2.12882">
        <ele>60</ele>
        <time>2012-11-24T15:50:51Z</time>
      </trkpt>
      <trkpt lat="48.94773" lon="2.1289">
        <ele>60</ele>
        <time>2012-11-24T15:50:54Z</time>
      </trkpt>
      <trkpt lat="48.94772" lon="2.12898">
        <ele>60</ele>
        <time>2012-11-24T15:50:58Z</time>
      </trkpt>
      <trkpt lat="48.9477" lon="2.12905">
        <ele>60</ele>
        <time>2012-11-24T15:51:01Z</time>
      </trkpt>
      <trkpt lat="48.94772" lon="2.12913">
        <ele>60</ele>
        <time>2012-11-24T15:51:06Z</time>
      </trkpt>
      <trkpt lat="48.9477" lon="2.12921">
        <ele>60</ele>
        <time>2012-11-24T15:51:12Z</time>
      </trkpt>
      <trkpt lat="48.94769" lon="2.1293">
        <ele>60</ele>
        <time>2012-11-24T15:51:17Z</time>
      </trkpt>
      <trkpt lat="48.94767" lon="2.12937">
        <ele>60</ele>
        <time>2012-11-24T15:51:20Z</time>
      </trkpt>
      <trkpt lat="48.94768" lon="2.12945">
        <ele>60</ele>
        <time>2012-11-24T15:51:24Z</time>
      </trkpt>
      <trkpt lat="48.94767" lon="2.12953">
        <ele>60</ele>
        <time>2012-11-24T15:51:29Z</time>
      </trkpt>
      <trkpt lat="48.94765" lon="2.12961">
        <ele>60</ele>
        <time>2012-11-24T15:51:34Z</time>
      </trkpt>
      <trkpt lat="48.94762" lon="2.12968">
        <ele>60</ele>
        <time>2012-11-24T15:51:37Z</time>
      </trkpt>
      <trkpt lat="48.94758" lon="2.12977">
        <ele>60</ele>
        <time>2012-11-24T15:51:42Z</time>
      </trkpt>
      <trkpt lat="48.94755" lon="2.12971">
        <ele>60</ele>
        <time>2012-11-24T15:51:54Z</time>
      </trkpt>
      <trkpt lat="48.94759" lon="2.12975">
        <ele>60</ele>
        <time>2012-11-24T15:52:02Z</time>
      </trkpt>
      <trkpt lat="48.94762" lon="2.12982">
        <ele>60</ele>
        <time>2012-11-24T15:52:06Z</time>
      </trkpt>
      <trkpt lat="48.94767" lon="2.12983">
        <ele>60</ele>
        <time>2012-11-24T15:52:10Z</time>
      </trkpt>
      <trkpt lat="48.94776" lon="2.12991">
        <ele>60</ele>
        <time>2012-11-24T15:52:16Z</time>
      </trkpt>
      <trkpt lat="48.9478" lon="2.12995">
        <ele>60</ele>
        <time>2012-11-24T15:52:20Z</time>
      </trkpt>
      <trkpt lat="48.94783" lon="2.13">
        <ele>59</ele>
        <time>2012-11-24T15:52:23Z</time>
      </trkpt>
      <trkpt lat="48.94788" lon="2.13005">
        <ele>59</ele>
        <time>2012-11-24T15:52:27Z</time>
      </trkpt>
      <trkpt lat="48.94793" lon="2.13003">
        <ele>59</ele>
        <time>2012-11-24T15:52:30Z</time>
      </trkpt>
      <trkpt lat="48.94797" lon="2.13006">
        <ele>59</ele>
        <time>2012-11-24T15:52:33Z</time>
      </trkpt>
      <trkpt lat="48.94801" lon="2.1301">
        <ele>59</ele>
        <time>2012-11-24T15:52:35Z</time>
      </trkpt>
      <trkpt lat="48.94805" lon="2.13017">
        <ele>59</ele>
        <time>2012-11-24T15:52:37Z</time>
      </trkpt>
      <trkpt lat="48.94803" lon="2.13024">
        <ele>59</ele>
        <time>2012-11-24T15:52:40Z</time>
      </trkpt>
      <trkpt lat="48.94798" lon="2.13021">
        <ele>59</ele>
        <time>2012-11-24T15:52:45Z</time>
      </trkpt>
      <trkpt lat="48.94796" lon="2.13014">
        <ele>59</ele>
        <time>2012-11-24T15:53:24Z</time>
      </trkpt>
      <trkpt lat="48.94792" lon="2.1301">
        <ele>59</ele>
        <time>2012-11-24T15:53:33Z</time>
      </trkpt>
      <trkpt lat="48.94787" lon="2.13009">
        <ele>59</ele>
        <time>2012-11-24T15:53:37Z</time>
      </trkpt>
      <trkpt lat="48.94781" lon="2.13006">
        <ele>59</ele>
        <time>2012-11-24T15:53:42Z</time>
      </trkpt>
      <trkpt lat="48.94777" lon="2.13007">
        <ele>59</ele>
        <time>2012-11-24T15:53:45Z</time>
      </trkpt>
      <trkpt lat="48.94771" lon="2.13006">
        <ele>59</ele>
        <time>2012-11-24T15:53:49Z</time>
      </trkpt>
      <trkpt lat="48.94766" lon="2.13003">
        <ele>60</ele>
        <time>2012-11-24T15:53:52Z</time>
      </trkpt>
      <trkpt lat="48.94762" lon="2.12998">
        <ele>60</ele>
        <time>2012-11-24T15:53:56Z</time>
      </trkpt>
      <trkpt lat="48.94758" lon="2.12994">
        <ele>60</ele>
        <time>2012-11-24T15:54:02Z</time>
      </trkpt>
      <trkpt lat="48.94755" lon="2.12988">
        <ele>60</ele>
        <time>2012-11-24T15:54:08Z</time>
      </trkpt>
      <trkpt lat="48.94753" lon="2.12982">
        <ele>60</ele>
        <time>2012-11-24T15:54:12Z</time>
      </trkpt>
      <trkpt lat="48.94753" lon="2.12975">
        <ele>60</ele>
        <time>2012-11-24T15:54:16Z</time>
      </trkpt>
      <trkpt lat="48.9476" lon="2.12971">
        <ele>60</ele>
        <time>2012-11-24T15:55:13Z</time>
      </trkpt>
      <trkpt lat="48.94759" lon="2.12979">
        <ele>60</ele>
        <time>2012-11-24T15:55:25Z</time>
      </trkpt>
      <trkpt lat="48.94761" lon="2.12986">
        <ele>60</ele>
        <time>2012-11-24T15:55:29Z</time>
      </trkpt>
      <trkpt lat="48.9476" lon="2.12994">
        <ele>60</ele>
        <time>2012-11-24T15:55:37Z</time>
      </trkpt>
      <trkpt lat="48.94754" lon="2.12991">
        <ele>60</ele>
        <time>2012-11-24T15:56:18Z</time>
      </trkpt>
      <trkpt lat="48.94756" lon="2.12999">
        <ele>60</ele>
        <time>2012-11-24T15:56:35Z</time>
      </trkpt>
      <trkpt lat="48.94759" lon="2.13005">
        <ele>60</ele>
        <time>2012-11-24T15:56:42Z</time>
      </trkpt>
      <trkpt lat="48.94757" lon="2.13013">
        <ele>60</ele>
        <time>2012-11-24T15:56:49Z</time>
      </trkpt>
      <trkpt lat="48.94758" lon="2.1302">
        <ele>59</ele>
        <time>2012-11-24T15:56:54Z</time>
      </trkpt>
      <trkpt lat="48.94758" lon="2.13028">
        <ele>59</ele>
        <time>2012-11-24T15:56:59Z</time>
      </trkpt>
      <trkpt lat="48.94758" lon="2.13036">
        <ele>59</ele>
        <time>2012-11-24T15:57:03Z</time>
      </trkpt>
      <trkpt lat="48.94758" lon="2.13046">
        <ele>59</ele>
        <time>2012-11-24T15:57:07Z</time>
      </trkpt>
      <trkpt lat="48.94759" lon="2.13053">
        <ele>59</ele>
        <time>2012-11-24T15:57:11Z</time>
      </trkpt>
      <trkpt lat="48.94759" lon="2.13062">
        <ele>59</ele>
        <time>2012-11-24T15:57:15Z</time>
      </trkpt>
      <trkpt lat="48.94759" lon="2.13075">
        <ele>58</ele>
        <time>2012-11-24T15:57:22Z</time>
      </trkpt>
      <trkpt lat="48.94758" lon="2.13083">
        <ele>58</ele>
        <time>2012-11-24T15:57:27Z</time>
      </trkpt>
      <trkpt lat="48.94758" lon="2.1309">
        <ele>57</ele>
        <time>2012-11-24T15:57:32Z</time>
      </trkpt>
      <trkpt lat="48.94756" lon="2.13098">
        <ele>57</ele>
        <time>2012-11-24T15:57:36Z</time>
      </trkpt>
      <trkpt lat="48.94753" lon="2.13104">
        <ele>57</ele>
        <time>2012-11-24T15:57:39Z</time>
      </trkpt>
      <trkpt lat="48.94747" lon="2.13108">
        <ele>56</ele>
        <time>2012-11-24T15:57:42Z</time>
      </trkpt>
      <trkpt lat="48.94742" lon="2.1311">
        <ele>56</ele>
        <time>2012-11-24T15:57:44Z</time>
      </trkpt>
      <trkpt lat="48.94733" lon="2.13115">
        <ele>55</ele>
        <time>2012-11-24T15:57:51Z</time>
      </trkpt>
      <trkpt lat="48.94728" lon="2.13118">
        <ele>55</ele>
        <time>2012-11-24T15:57:55Z</time>
      </trkpt>
      <trkpt lat="48.94722" lon="2.13119">
        <ele>55</ele>
        <time>2012-11-24T15:57:58Z</time>
      </trkpt>
      <trkpt lat="48.94717" lon="2.13121">
        <ele>55</ele>
        <time>2012-11-24T15:58:02Z</time>
      </trkpt>
      <trkpt lat="48.94716" lon="2.13129">
        <ele>54</ele>
        <time>2012-11-24T15:58:08Z</time>
      </trkpt>
      <trkpt lat="48.94717" lon="2.13137">
        <ele>54</ele>
        <time>2012-11-24T15:58:13Z</time>
      </trkpt>
      <trkpt lat="48.94719" lon="2.13143">
        <ele>54</ele>
        <time>2012-11-24T15:58:17Z</time>
      </trkpt>
      <trkpt lat="48.9472" lon="2.13151">
        <ele>54</ele>
        <time>2012-11-24T15:58:23Z</time>
      </trkpt>
      <trkpt lat="48.9472" lon="2.13158">
        <ele>54</ele>
        <time>2012-11-24T15:58:27Z</time>
      </trkpt>
      <trkpt lat="48.94719" lon="2.13166">
        <ele>54</ele>
        <time>2012-11-24T15:58:31Z</time>
      </trkpt>
      <trkpt lat="48.94719" lon="2.13175">
        <ele>52</ele>
        <time>2012-11-24T15:58:35Z</time>
      </trkpt>
      <trkpt lat="48.9472" lon="2.13183">
        <ele>52</ele>
        <time>2012-11-24T15:58:39Z</time>
      </trkpt>
      <trkpt lat="48.9472" lon="2.1319">
        <ele>51</ele>
        <time>2012-11-24T15:58:43Z</time>
      </trkpt>
      <trkpt lat="48.94719" lon="2.13197">
        <ele>51</ele>
        <time>2012-11-24T15:58:47Z</time>
      </trkpt>
      <trkpt lat="48.94718" lon="2.13205">
        <ele>51</ele>
        <time>2012-11-24T15:58:52Z</time>
      </trkpt>
      <trkpt lat="48.94717" lon="2.13213">
        <ele>51</ele>
        <time>2012-11-24T15:58:56Z</time>
      </trkpt>
      <trkpt lat="48.94717" lon="2.13223">
        <ele>51</ele>
        <time>2012-11-24T15:59:00Z</time>
      </trkpt>
      <trkpt lat="48.94717" lon="2.13231">
        <ele>50</ele>
        <time>2012-11-24T15:59:04Z</time>
      </trkpt>
      <trkpt lat="48.94717" lon="2.1324">
        <ele>50</ele>
        <time>2012-11-24T15:59:08Z</time>
      </trkpt>
      <trkpt lat="48.94718" lon="2.13248">
        <ele>50</ele>
        <time>2012-11-24T15:59:11Z</time>
      </trkpt>
      <trkpt lat="48.94715" lon="2.13261">
        <ele>49</ele>
        <time>2012-11-24T15:59:19Z</time>
      </trkpt>
      <trkpt lat="48.94714" lon="2.13269">
        <ele>49</ele>
        <time>2012-11-24T15:59:24Z</time>
      </trkpt>
      <trkpt lat="48.94714" lon="2.13277">
        <ele>49</ele>
        <time>2012-11-24T15:59:28Z</time>
      </trkpt>
      <trkpt lat="48.94712" lon="2.13285">
        <ele>49</ele>
        <time>2012-11-24T15:59:33Z</time>
      </trkpt>
      <trkpt lat="48.94712" lon="2.13292">
        <ele>48</ele>
        <time>2012-11-24T15:59:38Z</time>
      </trkpt>
      <trkpt lat="48.94713" lon="2.13299">
        <ele>48</ele>
        <time>2012-11-24T15:59:46Z</time>
      </trkpt>
      <trkpt lat="48.94717" lon="2.13305">
        <ele>48</ele>
        <time>2012-11-24T15:59:53Z</time>
      </trkpt>
      <trkpt lat="48.94722" lon="2.13309">
        <ele>48</ele>
        <time>2012-11-24T15:59:57Z</time>
      </trkpt>
      <trkpt lat="48.94722" lon="2.13317">
        <ele>48</ele>
        <time>2012-11-24T16:00:02Z</time>
      </trkpt>
      <trkpt lat="48.9472" lon="2.13324">
        <ele>48</ele>
        <time>2012-11-24T16:00:06Z</time>
      </trkpt>
      <trkpt lat="48.94717" lon="2.13331">
        <ele>48</ele>
        <time>2012-11-24T16:00:10Z</time>
      </trkpt>
      <trkpt lat="48.94716" lon="2.13338">
        <ele>48</ele>
        <time>2012-11-24T16:00:14Z</time>
      </trkpt>
      <trkpt lat="48.94714" lon="2.13353">
        <ele>48</ele>
        <time>2012-11-24T16:00:22Z</time>
      </trkpt>
      <trkpt lat="48.94713" lon="2.1336">
        <ele>48</ele>
        <time>2012-11-24T16:00:26Z</time>
      </trkpt>
      <trkpt lat="48.94713" lon="2.13367">
        <ele>48</ele>
        <time>2012-11-24T16:00:31Z</time>
      </trkpt>
      <trkpt lat="48.94712" lon="2.13374">
        <ele>47</ele>
        <time>2012-11-24T16:00:35Z</time>
      </trkpt>
      <trkpt lat="48.94713" lon="2.13383">
        <ele>47</ele>
        <time>2012-11-24T16:00:39Z</time>
      </trkpt>
      <trkpt lat="48.94712" lon="2.13391">
        <ele>47</ele>
        <time>2012-11-24T16:00:43Z</time>
      </trkpt>
      <trkpt lat="48.94711" lon="2.13398">
        <ele>47</ele>
        <time>2012-11-24T16:00:47Z</time>
      </trkpt>
      <trkpt lat="48.94708" lon="2.13404">
        <ele>47</ele>
        <time>2012-11-24T16:00:50Z</time>
      </trkpt>
      <trkpt lat="48.94707" lon="2.13411">
        <ele>47</ele>
        <time>2012-11-24T16:00:54Z</time>
      </trkpt>
      <trkpt lat="48.94705" lon="2.13419">
        <ele>47</ele>
        <time>2012-11-24T16:00:58Z</time>
      </trkpt>
      <trkpt lat="48.94703" lon="2.13426">
        <ele>47</ele>
        <time>2012-11-24T16:01:02Z</time>
      </trkpt>
      <trkpt lat="48.94702" lon="2.13434">
        <ele>47</ele>
        <time>2012-11-24T16:01:07Z</time>
      </trkpt>
      <trkpt lat="48.94702" lon="2.13441">
        <ele>46</ele>
        <time>2012-11-24T16:01:11Z</time>
      </trkpt>
      <trkpt lat="48.94701" lon="2.13448">
        <ele>46</ele>
        <time>2012-11-24T16:01:15Z</time>
      </trkpt>
      <trkpt lat="48.947" lon="2.13456">
        <ele>46</ele>
        <time>2012-11-24T16:01:19Z</time>
      </trkpt>
      <trkpt lat="48.94695" lon="2.13467">
        <ele>46</ele>
        <time>2012-11-24T16:01:27Z</time>
      </trkpt>
      <trkpt lat="48.94695" lon="2.13475">
        <ele>46</ele>
        <time>2012-11-24T16:01:32Z</time>
      </trkpt>
      <trkpt lat="48.94691" lon="2.13481">
        <ele>46</ele>
        <time>2012-11-24T16:01:36Z</time>
      </trkpt>
      <trkpt lat="48.94687" lon="2.13486">
        <ele>46</ele>
        <time>2012-11-24T16:01:41Z</time>
      </trkpt>
      <trkpt lat="48.94686" lon="2.13492">
        <ele>46</ele>
        <time>2012-11-24T16:01:46Z</time>
      </trkpt>
      <trkpt lat="48.94687" lon="2.13499">
        <ele>46</ele>
        <time>2012-11-24T16:01:52Z</time>
      </trkpt>
      <trkpt lat="48.94686" lon="2.13513">
        <ele>46</ele>
        <time>2012-11-24T16:02:03Z</time>
      </trkpt>
      <trkpt lat="48.94684" lon="2.13521">
        <ele>45</ele>
        <time>2012-11-24T16:02:08Z</time>
      </trkpt>
      <trkpt lat="48.94681" lon="2.13527">
        <ele>45</ele>
        <time>2012-11-24T16:02:12Z</time>
      </trkpt>
      <trkpt lat="48.9468" lon="2.1354">
        <ele>45</ele>
        <time>2012-11-24T16:02:19Z</time>
      </trkpt>
      <trkpt lat="48.94677" lon="2.13548">
        <ele>45</ele>
        <time>2012-11-24T16:02:23Z</time>
      </trkpt>
      <trkpt lat="48.94676" lon="2.13556">
        <ele>45</ele>
        <time>2012-11-24T16:02:27Z</time>
      </trkpt>
      <trkpt lat="48.94676" lon="2.13563">
        <ele>45</ele>
        <time>2012-11-24T16:02:31Z</time>
      </trkpt>
      <trkpt lat="48.94675" lon="2.13578">
        <ele>45</ele>
        <time>2012-11-24T16:02:41Z</time>
      </trkpt>
      <trkpt lat="48.94673" lon="2.13585">
        <ele>45</ele>
        <time>2012-11-24T16:02:46Z</time>
      </trkpt>
      <trkpt lat="48.94669" lon="2.13599">
        <ele>45</ele>
        <time>2012-11-24T16:02:54Z</time>
      </trkpt>
      <trkpt lat="48.94667" lon="2.13608">
        <ele>44</ele>
        <time>2012-11-24T16:02:59Z</time>
      </trkpt>
      <trkpt lat="48.94665" lon="2.13615">
        <ele>45</ele>
        <time>2012-11-24T16:03:03Z</time>
      </trkpt>
      <trkpt lat="48.94664" lon="2.13623">
        <ele>45</ele>
        <time>2012-11-24T16:03:06Z</time>
      </trkpt>
      <trkpt lat="48.94662" lon="2.13631">
        <ele>45</ele>
        <time>2012-11-24T16:03:10Z</time>
      </trkpt>
      <trkpt lat="48.9466" lon="2.13639">
        <ele>44</ele>
        <time>2012-11-24T16:03:15Z</time>
      </trkpt>
      <trkpt lat="48.94659" lon="2.13646">
        <ele>44</ele>
        <time>2012-11-24T16:03:18Z</time>
      </trkpt>
      <trkpt lat="48.94659" lon="2.13654">
        <ele>44</ele>
        <time>2012-11-24T16:03:23Z</time>
      </trkpt>
      <trkpt lat="48.94658" lon="2.13663">
        <ele>44</ele>
        <time>2012-11-24T16:03:28Z</time>
      </trkpt>
      <trkpt lat="48.94656" lon="2.13669">
        <ele>43</ele>
        <time>2012-11-24T16:03:33Z</time>
      </trkpt>
      <trkpt lat="48.94655" lon="2.13676">
        <ele>43</ele>
        <time>2012-11-24T16:03:39Z</time>
      </trkpt>
      <trkpt lat="48.94658" lon="2.13684">
        <ele>44</ele>
        <time>2012-11-24T16:03:44Z</time>
      </trkpt>
      <trkpt lat="48.94659" lon="2.13691">
        <ele>44</ele>
        <time>2012-11-24T16:03:48Z</time>
      </trkpt>
      <trkpt lat="48.9466" lon="2.13698">
        <ele>44</ele>
        <time>2012-11-24T16:03:51Z</time>
      </trkpt>
      <trkpt lat="48.94658" lon="2.13706">
        <ele>44</ele>
        <time>2012-11-24T16:03:55Z</time>
      </trkpt>
      <trkpt lat="48.94658" lon="2.13714">
        <ele>44</ele>
        <time>2012-11-24T16:04:00Z</time>
      </trkpt>
      <trkpt lat="48.94657" lon="2.13721">
        <ele>44</ele>
        <time>2012-11-24T16:04:03Z</time>
      </trkpt>
      <trkpt lat="48.94653" lon="2.13728">
        <ele>44</ele>
        <time>2012-11-24T16:04:07Z</time>
      </trkpt>
      <trkpt lat="48.9465" lon="2.13735">
        <ele>44</ele>
        <time>2012-11-24T16:04:11Z</time>
      </trkpt>
      <trkpt lat="48.9465" lon="2.13743">
        <ele>43</ele>
        <time>2012-11-24T16:04:15Z</time>
      </trkpt>
      <trkpt lat="48.94649" lon="2.13751">
        <ele>43</ele>
        <time>2012-11-24T16:04:22Z</time>
      </trkpt>
      <trkpt lat="48.94647" lon="2.13757">
        <ele>43</ele>
        <time>2012-11-24T16:04:25Z</time>
      </trkpt>
      <trkpt lat="48.94645" lon="2.13764">
        <ele>43</ele>
        <time>2012-11-24T16:04:29Z</time>
      </trkpt>
      <trkpt lat="48.94644" lon="2.13772">
        <ele>43</ele>
        <time>2012-11-24T16:04:34Z</time>
      </trkpt>
      <trkpt lat="48.94643" lon="2.13781">
        <ele>43</ele>
        <time>2012-11-24T16:04:39Z</time>
      </trkpt>
      <trkpt lat="48.94644" lon="2.13789">
        <ele>43</ele>
        <time>2012-11-24T16:04:43Z</time>
      </trkpt>
      <trkpt lat="48.94644" lon="2.13797">
        <ele>43</ele>
        <time>2012-11-24T16:04:47Z</time>
      </trkpt>
      <trkpt lat="48.94641" lon="2.13803">
        <ele>43</ele>
        <time>2012-11-24T16:04:51Z</time>
      </trkpt>
      <trkpt lat="48.9464" lon="2.13812">
        <ele>43</ele>
        <time>2012-11-24T16:04:55Z</time>
      </trkpt>
      <trkpt lat="48.94638" lon="2.13819">
        <ele>43</ele>
        <time>2012-11-24T16:05:00Z</time>
      </trkpt>
      <trkpt lat="48.94638" lon="2.13827">
        <ele>43</ele>
        <time>2012-11-24T16:05:05Z</time>
      </trkpt>
      <trkpt lat="48.94637" lon="2.13835">
        <ele>43</ele>
        <time>2012-11-24T16:05:09Z</time>
      </trkpt>
      <trkpt lat="48.94636" lon="2.13841">
        <ele>43</ele>
        <time>2012-11-24T16:05:13Z</time>
      </trkpt>
      <trkpt lat="48.94631" lon="2.13846">
        <ele>42</ele>
        <time>2012-11-24T16:05:16Z</time>
      </trkpt>
      <trkpt lat="48.94627" lon="2.1385">
        <ele>42</ele>
        <time>2012-11-24T16:05:19Z</time>
      </trkpt>
      <trkpt lat="48.94625" lon="2.13857">
        <ele>42</ele>
        <time>2012-11-24T16:05:23Z</time>
      </trkpt>
      <trkpt lat="48.94622" lon="2.13864">
        <ele>42</ele>
        <time>2012-11-24T16:05:28Z</time>
      </trkpt>
      <trkpt lat="48.94619" lon="2.13871">
        <ele>42</ele>
        <time>2012-11-24T16:05:33Z</time>
      </trkpt>
      <trkpt lat="48.94619" lon="2.13878">
        <ele>42</ele>
        <time>2012-11-24T16:05:38Z</time>
      </trkpt>
      <trkpt lat="48.94618" lon="2.13885">
        <ele>42</ele>
        <time>2012-11-24T16:05:44Z</time>
      </trkpt>
      <trkpt lat="48.94621" lon="2.13892">
        <ele>42</ele>
        <time>2012-11-24T16:05:49Z</time>
      </trkpt>
      <trkpt lat="48.94622" lon="2.13899">
        <ele>42</ele>
        <time>2012-11-24T16:05:54Z</time>
      </trkpt>
      <trkpt lat="48.94619" lon="2.13905">
        <ele>42</ele>
        <time>2012-11-24T16:05:59Z</time>
      </trkpt>
      <trkpt lat="48.94616" lon="2.13911">
        <ele>42</ele>
        <time>2012-11-24T16:06:05Z</time>
      </trkpt>
      <trkpt lat="48.94617" lon="2.13919">
        <ele>41</ele>
        <time>2012-11-24T16:06:10Z</time>
      </trkpt>
      <trkpt lat="48.94617" lon="2.13926">
        <ele>41</ele>
        <time>2012-11-24T16:06:17Z</time>
      </trkpt>
      <trkpt lat="48.94614" lon="2.13934">
        <ele>41</ele>
        <time>2012-11-24T16:06:23Z</time>
      </trkpt>
      <trkpt lat="48.9461" lon="2.13937">
        <ele>41</ele>
        <time>2012-11-24T16:06:26Z</time>
      </trkpt>
      <trkpt lat="48.94606" lon="2.13941">
        <ele>41</ele>
        <time>2012-11-24T16:06:30Z</time>
      </trkpt>
      <trkpt lat="48.94606" lon="2.13949">
        <ele>41</ele>
        <time>2012-11-24T16:06:34Z</time>
      </trkpt>
      <trkpt lat="48.94609" lon="2.13956">
        <ele>41</ele>
        <time>2012-11-24T16:06:37Z</time>
      </trkpt>
      <trkpt lat="48.94608" lon="2.13963">
        <ele>41</ele>
        <time>2012-11-24T16:06:41Z</time>
      </trkpt>
      <trkpt lat="48.94603" lon="2.13967">
        <ele>41</ele>
        <time>2012-11-24T16:06:46Z</time>
      </trkpt>
      <trkpt lat="48.94602" lon="2.13975">
        <ele>41</ele>
        <time>2012-11-24T16:06:50Z</time>
      </trkpt>
      <trkpt lat="48.94599" lon="2.13983">
        <ele>41</ele>
        <time>2012-11-24T16:06:54Z</time>
      </trkpt>
      <trkpt lat="48.94596" lon="2.13989">
        <ele>40</ele>
        <time>2012-11-24T16:06:58Z</time>
      </trkpt>
      <trkpt lat="48.94595" lon="2.13997">
        <ele>40</ele>
        <time>2012-11-24T16:07:02Z</time>
      </trkpt>
      <trkpt lat="48.94593" lon="2.14003">
        <ele>40</ele>
        <time>2012-11-24T16:07:07Z</time>
      </trkpt>
      <trkpt lat="48.94593" lon="2.14011">
        <ele>40</ele>
        <time>2012-11-24T16:07:13Z</time>
      </trkpt>
      <trkpt lat="48.94596" lon="2.14018">
        <ele>40</ele>
        <time>2012-11-24T16:07:18Z</time>
      </trkpt>
      <trkpt lat="48.94592" lon="2.1403">
        <ele>40</ele>
        <time>2012-11-24T16:07:25Z</time>
      </trkpt>
      <trkpt lat="48.94589" lon="2.14035">
        <ele>40</ele>
        <time>2012-11-24T16:07:28Z</time>
      </trkpt>
      <trkpt lat="48.94588" lon="2.14044">
        <ele>40</ele>
        <time>2012-11-24T16:07:32Z</time>
      </trkpt>
      <trkpt lat="48.94588" lon="2.14052">
        <ele>40</ele>
        <time>2012-11-24T16:07:36Z</time>
      </trkpt>
      <trkpt lat="48.94589" lon="2.14059">
        <ele>39</ele>
        <time>2012-11-24T16:07:40Z</time>
      </trkpt>
      <trkpt lat="48.94592" lon="2.14068">
        <ele>39</ele>
        <time>2012-11-24T16:07:44Z</time>
      </trkpt>
      <trkpt lat="48.94591" lon="2.14075">
        <ele>39</ele>
        <time>2012-11-24T16:07:48Z</time>
      </trkpt>
      <trkpt lat="48.94587" lon="2.14082">
        <ele>39</ele>
        <time>2012-11-24T16:07:52Z</time>
      </trkpt>
      <trkpt lat="48.94584" lon="2.14087">
        <ele>39</ele>
        <time>2012-11-24T16:07:55Z</time>
      </trkpt>
      <trkpt lat="48.94586" lon="2.14094">
        <ele>39</ele>
        <time>2012-11-24T16:08:00Z</time>
      </trkpt>
      <trkpt lat="48.94586" lon="2.14102">
        <ele>39</ele>
        <time>2012-11-24T16:08:05Z</time>
      </trkpt>
      <trkpt lat="48.94582" lon="2.14114">
        <ele>39</ele>
        <time>2012-11-24T16:08:13Z</time>
      </trkpt>
      <trkpt lat="48.94578" lon="2.14117">
        <ele>39</ele>
        <time>2012-11-24T16:08:18Z</time>
      </trkpt>
      <trkpt lat="48.94576" lon="2.14125">
        <ele>39</ele>
        <time>2012-11-24T16:08:24Z</time>
      </trkpt>
      <trkpt lat="48.94574" lon="2.14133">
        <ele>40</ele>
        <time>2012-11-24T16:08:28Z</time>
      </trkpt>
      <trkpt lat="48.94574" lon="2.14141">
        <ele>40</ele>
        <time>2012-11-24T16:08:31Z</time>
      </trkpt>
      <trkpt lat="48.94571" lon="2.14148">
        <ele>40</ele>
        <time>2012-11-24T16:08:35Z</time>
      </trkpt>
      <trkpt lat="48.94573" lon="2.14157">
        <ele>40</ele>
        <time>2012-11-24T16:08:39Z</time>
      </trkpt>
      <trkpt lat="48.94576" lon="2.14164">
        <ele>40</ele>
        <time>2012-11-24T16:08:42Z</time>
      </trkpt>
      <trkpt lat="48.94578" lon="2.14178">
        <ele>40</ele>
        <time>2012-11-24T16:08:50Z</time>
      </trkpt>
      <trkpt lat="48.94575" lon="2.14184">
        <ele>40</ele>
        <time>2012-11-24T16:08:54Z</time>
      </trkpt>
      <trkpt lat="48.94574" lon="2.14192">
        <ele>40</ele>
        <time>2012-11-24T16:08:59Z</time>
      </trkpt>
      <trkpt lat="48.94571" lon="2.14199">
        <ele>40</ele>
        <time>2012-11-24T16:09:03Z</time>
      </trkpt>
      <trkpt lat="48.94568" lon="2.14204">
        <ele>40</ele>
        <time>2012-11-24T16:09:07Z</time>
      </trkpt>
      <trkpt lat="48.94568" lon="2.14211">
        <ele>40</ele>
        <time>2012-11-24T16:09:11Z</time>
      </trkpt>
      <trkpt lat="48.9457" lon="2.14217">
        <ele>40</ele>
        <time>2012-11-24T16:09:13Z</time>
      </trkpt>
      <trkpt lat="48.94572" lon="2.14225">
        <ele>40</ele>
        <time>2012-11-24T16:09:15Z</time>
      </trkpt>
      <trkpt lat="48.9457" lon="2.14231">
        <ele>40</ele>
        <time>2012-11-24T16:09:18Z</time>
      </trkpt>
      <trkpt lat="48.94566" lon="2.14236">
        <ele>40</ele>
        <time>2012-11-24T16:09:21Z</time>
      </trkpt>
      <trkpt lat="48.94563" lon="2.14241">
        <ele>40</ele>
        <time>2012-11-24T16:09:24Z</time>
      </trkpt>
      <trkpt lat="48.94564" lon="2.14249">
        <ele>40</ele>
        <time>2012-11-24T16:09:28Z</time>
      </trkpt>
      <trkpt lat="48.94563" lon="2.14257">
        <ele>40</ele>
        <time>2012-11-24T16:09:33Z</time>
      </trkpt>
      <trkpt lat="48.94559" lon="2.14271">
        <ele>40</ele>
        <time>2012-11-24T16:09:41Z</time>
      </trkpt>
      <trkpt lat="48.94557" lon="2.14278">
        <ele>40</ele>
        <time>2012-11-24T16:09:45Z</time>
      </trkpt>
      <trkpt lat="48.94556" lon="2.14285">
        <ele>40</ele>
        <time>2012-11-24T16:09:50Z</time>
      </trkpt>
      <trkpt lat="48.94556" lon="2.14294">
        <ele>40</ele>
        <time>2012-11-24T16:09:55Z</time>
      </trkpt>
      <trkpt lat="48.94556" lon="2.14302">
        <ele>40</ele>
        <time>2012-11-24T16:10:00Z</time>
      </trkpt>
      <trkpt lat="48.94558" lon="2.1431">
        <ele>40</ele>
        <time>2012-11-24T16:10:05Z</time>
      </trkpt>
      <trkpt lat="48.94557" lon="2.14318">
        <ele>40</ele>
        <time>2012-11-24T16:10:10Z</time>
      </trkpt>
      <trkpt lat="48.94555" lon="2.14324">
        <ele>40</ele>
        <time>2012-11-24T16:10:14Z</time>
      </trkpt>
      <trkpt lat="48.94553" lon="2.14331">
        <ele>40</ele>
        <time>2012-11-24T16:10:19Z</time>
      </trkpt>
      <trkpt lat="48.94548" lon="2.14343">
        <ele>41</ele>
        <time>2012-11-24T16:10:27Z</time>
      </trkpt>
      <trkpt lat="48.94546" lon="2.14357">
        <ele>41</ele>
        <time>2012-11-24T16:10:38Z</time>
      </trkpt>
      <trkpt lat="48.94545" lon="2.14365">
        <ele>41</ele>
        <time>2012-11-24T16:10:43Z</time>
      </trkpt>
      <trkpt lat="48.94545" lon="2.14373">
        <ele>41</ele>
        <time>2012-11-24T16:10:48Z</time>
      </trkpt>
      <trkpt lat="48.94544" lon="2.1438">
        <ele>41</ele>
        <time>2012-11-24T16:10:54Z</time>
      </trkpt>
      <trkpt lat="48.94545" lon="2.14387">
        <ele>41</ele>
        <time>2012-11-24T16:11:37Z</time>
      </trkpt>
      <trkpt lat="48.94546" lon="2.14395">
        <ele>41</ele>
        <time>2012-11-24T16:11:41Z</time>
      </trkpt>
      <trkpt lat="48.94548" lon="2.14402">
        <ele>41</ele>
        <time>2012-11-24T16:11:48Z</time>
      </trkpt>
      <trkpt lat="48.94548" lon="2.14409">
        <ele>41</ele>
        <time>2012-11-24T16:11:59Z</time>
      </trkpt>
      <trkpt lat="48.94553" lon="2.14413">
        <ele>41</ele>
        <time>2012-11-24T16:12:04Z</time>
      </trkpt>
      <trkpt lat="48.94557" lon="2.14418">
        <ele>42</ele>
        <time>2012-11-24T16:12:08Z</time>
      </trkpt>
      <trkpt lat="48.94561" lon="2.14426">
        <ele>42</ele>
        <time>2012-11-24T16:12:12Z</time>
      </trkpt>
      <trkpt lat="48.94566" lon="2.14429">
        <ele>42</ele>
        <time>2012-11-24T16:12:17Z</time>
      </trkpt>
      <trkpt lat="48.9457" lon="2.14436">
        <ele>42</ele>
        <time>2012-11-24T16:12:47Z</time>
      </trkpt>
      <trkpt lat="48.94571" lon="2.14444">
        <ele>42</ele>
        <time>2012-11-24T16:14:55Z</time>
      </trkpt>
      <trkpt lat="48.94573" lon="2.1445">
        <ele>42</ele>
        <time>2012-11-24T16:15:06Z</time>
      </trkpt>
      <trkpt lat="48.94578" lon="2.14453">
        <ele>42</ele>
        <time>2012-11-24T16:15:14Z</time>
      </trkpt>
      <trkpt lat="48.94582" lon="2.14458">
        <ele>42</ele>
        <time>2012-11-24T16:15:21Z</time>
      </trkpt>
      <trkpt lat="48.94581" lon="2.14466">
        <ele>42</ele>
        <time>2012-11-24T16:15:25Z</time>
      </trkpt>
      <trkpt lat="48.9458" lon="2.14473">
        <ele>42</ele>
        <time>2012-11-24T16:15:32Z</time>
      </trkpt>
      <trkpt lat="48.94572" lon="2.14481">
        <ele>42</ele>
        <time>2012-11-24T16:16:00Z</time>
      </trkpt>
      <trkpt lat="48.94567" lon="2.14483">
        <ele>42</ele>
        <time>2012-11-24T16:16:05Z</time>
      </trkpt>
      <trkpt lat="48.94562" lon="2.14485">
        <ele>42</ele>
        <time>2012-11-24T16:16:10Z</time>
      </trkpt>
      <trkpt lat="48.94558" lon="2.14489">
        <ele>42</ele>
        <time>2012-11-24T16:16:14Z</time>
      </trkpt>
      <trkpt lat="48.94556" lon="2.14495">
        <ele>42</ele>
        <time>2012-11-24T16:16:21Z</time>
      </trkpt>
      <trkpt lat="48.94555" lon="2.14503">
        <ele>42</ele>
        <time>2012-11-24T16:16:47Z</time>
      </trkpt>
      <trkpt lat="48.94557" lon="2.14497">
        <ele>42</ele>
        <time>2012-11-24T16:18:03Z</time>
      </trkpt>
      <trkpt lat="48.94553" lon="2.14501">
        <ele>42</ele>
        <time>2012-11-24T16:18:29Z</time>
      </trkpt>
      <trkpt lat="48.94555" lon="2.14494">
        <ele>42</ele>
        <time>2012-11-24T16:19:06Z</time>
      </trkpt>
      <trkpt lat="48.9455" lon="2.145">
        <ele>42</ele>
        <time>2012-11-24T16:19:14Z</time>
      </trkpt>
      <trkpt lat="48.94555" lon="2.14502">
        <ele>42</ele>
        <time>2012-11-24T16:19:22Z</time>
      </trkpt>
      <trkpt lat="48.94556" lon="2.14495">
        <ele>42</ele>
        <time>2012-11-24T16:19:53Z</time>
      </trkpt>
      <trkpt lat="48.94551" lon="2.14498">
        <ele>42</ele>
        <time>2012-11-24T16:21:02Z</time>
      </trkpt>
      <trkpt lat="48.94556" lon="2.14494">
        <ele>42</ele>
        <time>2012-11-24T16:21:32Z</time>
      </trkpt>
      <trkpt lat="48.94558" lon="2.145">
        <ele>42</ele>
        <time>2012-11-24T16:23:00Z</time>
      </trkpt>
      <trkpt lat="48.94553" lon="2.1451">
        <ele>42</ele>
        <time>2012-11-24T16:23:25Z</time>
      </trkpt>
      <trkpt lat="48.94555" lon="2.14502">
        <ele>42</ele>
        <time>2012-11-24T16:25:39Z</time>
      </trkpt>
      <trkpt lat="48.94556" lon="2.14501">
        <ele>42</ele>
        <time>2012-11-24T16:25:40Z</time>
      </trkpt>
    </trkseg>
  </trk>
</gpx>